<?xml version='1.0' encoding='UTF-8'?><gpx version="1.1" creator="JPX - https://github.com/jenetics/jpx" xmlns="http://www.topografix.com/GPX/1/1"><trk><trkseg><trkpt lat="44.140629492082795" lon="9.996149378542928"><ele>254.0</ele><time>2026-04-08T16:17:58Z</time></trkpt><trkpt lat="44.140632785095576" lon="9.995982745321133"><ele>253.99999999999997</ele><time>2026-04-08T16:18:00Z</time></trkpt><trkpt lat="44.14062653328711" lon="9.995854984074601"><ele>253.99999999999997</ele><time>2026-04-08T16:18:01Z</time></trkpt><trkpt lat="44.140573836808535" lon="9.995717193504943"><ele>254.0</ele><time>2026-04-08T16:18:02Z</time></trkpt><trkpt lat="44.140558116162886" lon="9.995559648409353"><ele>254.0</ele><time>2026-04-08T16:18:03Z</time></trkpt><trkpt lat="44.14054878587493" lon="9.995386814347329"><ele>251.2</ele><time>2026-04-08T16:18:04Z</time></trkpt><trkpt lat="44.140541506350466" lon="9.995230633313067"><ele>248.39999999999998</ele><time>2026-04-08T16:18:05Z</time></trkpt><trkpt lat="44.14052422673267" lon="9.995080583305352"><ele>245.6</ele><time>2026-04-08T16:18:06Z</time></trkpt><trkpt lat="44.14051952164309" lon="9.994948445335806"><ele>242.8</ele><time>2026-04-08T16:18:07Z</time></trkpt><trkpt lat="44.14051892778932" lon="9.994822145756816"><ele>240.0</ele><time>2026-04-08T16:18:08Z</time></trkpt><trkpt lat="44.14051641121963" lon="9.994664739997708"><ele>240.0</ele><time>2026-04-08T16:18:09.999Z</time></trkpt><trkpt lat="44.140563837822576" lon="9.994565369117337"><ele>240.0</ele><time>2026-04-08T16:18:11.999Z</time></trkpt><trkpt lat="44.14063571359575" lon="9.994452726211772"><ele>240.0</ele><time>2026-04-08T16:18:13.999Z</time></trkpt><trkpt lat="44.14068806200719" lon="9.99433699185079"><ele>240.0</ele><time>2026-04-08T16:18:17.999Z</time></trkpt><trkpt lat="44.140741372204715" lon="9.99421313151026"><ele>240.0</ele><time>2026-04-08T16:18:33.999Z</time></trkpt><trkpt lat="44.14067284349871" lon="9.994011065886326"><ele>240.0</ele><time>2026-04-08T16:18:34.999Z</time></trkpt><trkpt lat="44.140691045673655" lon="9.99387697363367"><ele>240.0</ele><time>2026-04-08T16:18:35.999Z</time></trkpt><trkpt lat="44.14072618341308" lon="9.993724201950384"><ele>240.0</ele><time>2026-04-08T16:18:36.999Z</time></trkpt><trkpt lat="44.1407401727924" lon="9.993559172118838"><ele>240.0</ele><time>2026-04-08T16:18:37.999Z</time></trkpt><trkpt lat="44.14072636330942" lon="9.993424267053587"><ele>240.0</ele><time>2026-04-08T16:18:38.999Z</time></trkpt><trkpt lat="44.14068129070357" lon="9.993339862294647"><ele>240.0</ele><time>2026-04-08T16:18:39.999Z</time></trkpt><trkpt lat="44.14058546652124" lon="9.993269980729366"><ele>240.0</ele><time>2026-04-08T16:18:41.999Z</time></trkpt><trkpt lat="44.140491118111974" lon="9.993307557322568"><ele>240.0</ele><time>2026-04-08T16:18:43.999Z</time></trkpt><trkpt lat="44.14041893245309" lon="9.993376805161096"><ele>240.0</ele><time>2026-04-08T16:18:44.999Z</time></trkpt><trkpt lat="44.14035770613451" lon="9.993503300280764"><ele>240.0</ele><time>2026-04-08T16:18:45.999Z</time></trkpt><trkpt lat="44.14028634188861" lon="9.993607895687562"><ele>240.0</ele><time>2026-04-08T16:18:46.999Z</time></trkpt><trkpt lat="44.14019756099922" lon="9.993672767013924"><ele>240.0</ele><time>2026-04-08T16:18:47.999Z</time></trkpt><trkpt lat="44.14008761843183" lon="9.993737936437572"><ele>240.0</ele><time>2026-04-08T16:18:48.999Z</time></trkpt><trkpt lat="44.13995675675837" lon="9.993777860413799"><ele>240.0</ele><time>2026-04-08T16:18:49.999Z</time></trkpt><trkpt lat="44.13982884043282" lon="9.99385228605777"><ele>247.25</ele><time>2026-04-08T16:18:50.999Z</time></trkpt><trkpt lat="44.13973351725974" lon="9.99398877156942"><ele>254.5</ele><time>2026-04-08T16:18:51.999Z</time></trkpt><trkpt lat="44.139634121560974" lon="9.99417890699531"><ele>261.75</ele><time>2026-04-08T16:18:52.999Z</time></trkpt><trkpt lat="44.139599654847984" lon="9.994294953305303"><ele>269.0</ele><time>2026-04-08T16:18:53.999Z</time></trkpt><trkpt lat="44.139566428296305" lon="9.994441968064566"><ele>269.0</ele><time>2026-04-08T16:18:54.999Z</time></trkpt><trkpt lat="44.139578239388314" lon="9.994591315584737"><ele>269.0</ele><time>2026-04-08T16:18:55.999Z</time></trkpt><trkpt lat="44.139605439072184" lon="9.994763571458687"><ele>269.0</ele><time>2026-04-08T16:18:56.999Z</time></trkpt><trkpt lat="44.13958970419379" lon="9.994929946783028"><ele>269.0</ele><time>2026-04-08T16:18:57.999Z</time></trkpt><trkpt lat="44.13961621930666" lon="9.99510242911437"><ele>269.1666666666667</ele><time>2026-04-08T16:18:58.999Z</time></trkpt><trkpt lat="44.13965161292771" lon="9.99525203333007"><ele>269.33333333333337</ele><time>2026-04-08T16:18:59.999Z</time></trkpt><trkpt lat="44.13966563423825" lon="9.995357044642436"><ele>269.5</ele><time>2026-04-08T16:19:00.999Z</time></trkpt><trkpt lat="44.13960944309688" lon="9.995426724513774"><ele>269.6666666666667</ele><time>2026-04-08T16:19:01.999Z</time></trkpt><trkpt lat="44.13952459724819" lon="9.995382996818412"><ele>269.8333333333333</ele><time>2026-04-08T16:19:04Z</time></trkpt><trkpt lat="44.13948383844974" lon="9.99531017651677"><ele>270.0</ele><time>2026-04-08T16:19:05Z</time></trkpt><trkpt lat="44.139505531226" lon="9.99519814372212"><ele>270.0</ele><time>2026-04-08T16:19:06Z</time></trkpt><trkpt lat="44.139531281937174" lon="9.995091855892008"><ele>270.0</ele><time>2026-04-08T16:19:07Z</time></trkpt><trkpt lat="44.13954048156366" lon="9.994907970390416"><ele>270.0</ele><time>2026-04-08T16:19:08Z</time></trkpt><trkpt lat="44.1395239383232" lon="9.994741256346877"><ele>270.0</ele><time>2026-04-08T16:19:09Z</time></trkpt><trkpt lat="44.13951382332677" lon="9.994618398660238"><ele>270.0</ele><time>2026-04-08T16:19:10Z</time></trkpt><trkpt lat="44.13949157102718" lon="9.994519789155978"><ele>269.8</ele><time>2026-04-08T16:19:11Z</time></trkpt><trkpt lat="44.13941452220934" lon="9.994455753952883"><ele>269.6</ele><time>2026-04-08T16:19:13Z</time></trkpt><trkpt lat="44.13935304766773" lon="9.994477364669256"><ele>269.4</ele><time>2026-04-08T16:19:14Z</time></trkpt><trkpt lat="44.139246027970614" lon="9.99458913212064"><ele>269.2</ele><time>2026-04-08T16:19:16Z</time></trkpt><trkpt lat="44.139257351245206" lon="9.99470968314627"><ele>269.0</ele><time>2026-04-08T16:19:17Z</time></trkpt><trkpt lat="44.13930397500517" lon="9.994804749449585"><ele>269.0</ele><time>2026-04-08T16:19:18Z</time></trkpt><trkpt lat="44.139314325343314" lon="9.994949815763595"><ele>269.0</ele><time>2026-04-08T16:19:19Z</time></trkpt><trkpt lat="44.13933084584742" lon="9.995132344694449"><ele>269.0</ele><time>2026-04-08T16:19:20Z</time></trkpt><trkpt lat="44.1393154208936" lon="9.995277844215279"><ele>269.0</ele><time>2026-04-08T16:19:21Z</time></trkpt><trkpt lat="44.13928619045515" lon="9.995425843414603"><ele>269.25</ele><time>2026-04-08T16:19:22Z</time></trkpt><trkpt lat="44.139260190559256" lon="9.995594785690406"><ele>269.5</ele><time>2026-04-08T16:19:23Z</time></trkpt><trkpt lat="44.139231512675416" lon="9.995781620283935"><ele>269.75</ele><time>2026-04-08T16:19:24Z</time></trkpt><trkpt lat="44.1392044320554" lon="9.995988117573514"><ele>270.0</ele><time>2026-04-08T16:19:25Z</time></trkpt><trkpt lat="44.13919268720131" lon="9.996124813584613"><ele>272.3333333333333</ele><time>2026-04-08T16:19:26Z</time></trkpt><trkpt lat="44.139217348744296" lon="9.996348295216618"><ele>274.66666666666663</ele><time>2026-04-08T16:19:27Z</time></trkpt><trkpt lat="44.13927017358189" lon="9.996540064852892"><ele>277.0</ele><time>2026-04-08T16:19:28Z</time></trkpt><trkpt lat="44.139354826366905" lon="9.996760830988517"><ele>279.8</ele><time>2026-04-08T16:19:29Z</time></trkpt><trkpt lat="44.1394232565916" lon="9.996918279629055"><ele>282.6</ele><time>2026-04-08T16:19:30Z</time></trkpt><trkpt lat="44.139452684079856" lon="9.997052907735142"><ele>285.40000000000003</ele><time>2026-04-08T16:19:31Z</time></trkpt><trkpt lat="44.13946081621319" lon="9.997172784269932"><ele>288.2</ele><time>2026-04-08T16:19:32Z</time></trkpt><trkpt lat="44.139513075571436" lon="9.99732404743969"><ele>291.0</ele><time>2026-04-08T16:19:34Z</time></trkpt><trkpt lat="44.13948367979327" lon="9.997476055163137"><ele>293.2</ele><time>2026-04-08T16:19:37Z</time></trkpt><trkpt lat="44.13944110879832" lon="9.997601316626241"><ele>295.40000000000003</ele><time>2026-04-08T16:19:38Z</time></trkpt><trkpt lat="44.13940017343205" lon="9.997724157353552"><ele>297.6</ele><time>2026-04-08T16:19:39Z</time></trkpt><trkpt lat="44.13936697899323" lon="9.997803326562629"><ele>299.8</ele><time>2026-04-08T16:19:40Z</time></trkpt><trkpt lat="44.13928362659839" lon="9.997723795740301"><ele>302.0</ele><time>2026-04-08T16:19:43Z</time></trkpt><trkpt lat="44.13932432670201" lon="9.997601033994169"><ele>299.8</ele><time>2026-04-08T16:19:44Z</time></trkpt><trkpt lat="44.13934480720969" lon="9.997464645290693"><ele>297.6</ele><time>2026-04-08T16:19:45Z</time></trkpt><trkpt lat="44.13934894434135" lon="9.997307270231666"><ele>295.40000000000003</ele><time>2026-04-08T16:19:46Z</time></trkpt><trkpt lat="44.1393551780253" lon="9.997192648558292"><ele>293.2</ele><time>2026-04-08T16:19:47Z</time></trkpt><trkpt lat="44.139299922879" lon="9.9970600751573"><ele>291.0</ele><time>2026-04-08T16:19:49Z</time></trkpt><trkpt lat="44.139253026024896" lon="9.996963597243843"><ele>291.0</ele><time>2026-04-08T16:19:50Z</time></trkpt><trkpt lat="44.13917070430696" lon="9.996896936576867"><ele>291.0</ele><time>2026-04-08T16:19:51Z</time></trkpt><trkpt lat="44.13907618516487" lon="9.996835388276546"><ele>291.0</ele><time>2026-04-08T16:19:52Z</time></trkpt><trkpt lat="44.138954070672426" lon="9.996784665853795"><ele>291.0</ele><time>2026-04-08T16:19:53Z</time></trkpt><trkpt lat="44.13885414473971" lon="9.99672164781082"><ele>291.0</ele><time>2026-04-08T16:19:54Z</time></trkpt><trkpt lat="44.138793841174945" lon="9.996650197585751"><ele>290.1666666666667</ele><time>2026-04-08T16:19:55Z</time></trkpt><trkpt lat="44.13872938559441" lon="9.996564818645194"><ele>289.3333333333333</ele><time>2026-04-08T16:19:57Z</time></trkpt><trkpt lat="44.13865130217773" lon="9.996548784346386"><ele>288.5</ele><time>2026-04-08T16:19:59Z</time></trkpt><trkpt lat="44.13860432633632" lon="9.99664623912994"><ele>287.66666666666663</ele><time>2026-04-08T16:20:00Z</time></trkpt><trkpt lat="44.138587041292745" lon="9.996746213582151"><ele>286.8333333333333</ele><time>2026-04-08T16:20:01Z</time></trkpt><trkpt lat="44.13856812860901" lon="9.996864569203074"><ele>286.0</ele><time>2026-04-08T16:20:02Z</time></trkpt><trkpt lat="44.13854904743591" lon="9.996997742006904"><ele>286.0</ele><time>2026-04-08T16:20:03Z</time></trkpt><trkpt lat="44.13853015289624" lon="9.997134336476629"><ele>286.0</ele><time>2026-04-08T16:20:04Z</time></trkpt><trkpt lat="44.13851313211312" lon="9.99726377117917"><ele>286.0</ele><time>2026-04-08T16:20:05Z</time></trkpt><trkpt lat="44.13849969299546" lon="9.997375666082688"><ele>286.0</ele><time>2026-04-08T16:20:06Z</time></trkpt><trkpt lat="44.13849296517785" lon="9.997467554028894"><ele>286.0</ele><time>2026-04-08T16:20:07Z</time></trkpt><trkpt lat="44.13851175675031" lon="9.997627904696168"><ele>287.66666666666663</ele><time>2026-04-08T16:20:09Z</time></trkpt><trkpt lat="44.138532282200806" lon="9.997716988343733"><ele>289.3333333333333</ele><time>2026-04-08T16:20:10Z</time></trkpt><trkpt lat="44.138577502758835" lon="9.9978182817417"><ele>291.0</ele><time>2026-04-08T16:20:11Z</time></trkpt><trkpt lat="44.138634701844495" lon="9.99791792757664"><ele>292.6666666666667</ele><time>2026-04-08T16:20:12Z</time></trkpt><trkpt lat="44.13869168377777" lon="9.998029676554795"><ele>294.33333333333337</ele><time>2026-04-08T16:20:13Z</time></trkpt><trkpt lat="44.13873470561787" lon="9.998143188114653"><ele>296.0</ele><time>2026-04-08T16:20:14Z</time></trkpt><trkpt lat="44.138761248361604" lon="9.998246721751396"><ele>298.0</ele><time>2026-04-08T16:20:15Z</time></trkpt><trkpt lat="44.138749137939065" lon="9.998334893257221"><ele>300.0</ele><time>2026-04-08T16:20:16Z</time></trkpt><trkpt lat="44.138698554892926" lon="9.998490288335725"><ele>302.0</ele><time>2026-04-08T16:20:18Z</time></trkpt><trkpt lat="44.138643098992915" lon="9.998563201077358"><ele>304.0</ele><time>2026-04-08T16:20:19Z</time></trkpt><trkpt lat="44.138602605335706" lon="9.99866494764655"><ele>306.0</ele><time>2026-04-08T16:20:19.999Z</time></trkpt><trkpt lat="44.13855894780927" lon="9.998790936539704"><ele>308.0</ele><time>2026-04-08T16:20:20.999Z</time></trkpt><trkpt lat="44.13852523172992" lon="9.998926859328037"><ele>308.0</ele><time>2026-04-08T16:20:21.999Z</time></trkpt><trkpt lat="44.13851586973753" lon="9.999082950349663"><ele>308.0</ele><time>2026-04-08T16:20:22.999Z</time></trkpt><trkpt lat="44.13851148287044" lon="9.999243703811532"><ele>308.0</ele><time>2026-04-08T16:20:23.999Z</time></trkpt><trkpt lat="44.1385116530579" lon="9.999405462900194"><ele>308.0</ele><time>2026-04-08T16:20:24.999Z</time></trkpt><trkpt lat="44.138518253839" lon="9.999549462746508"><ele>308.0</ele><time>2026-04-08T16:20:25.999Z</time></trkpt><trkpt lat="44.1385376770656" lon="9.999672338096934"><ele>309.6</ele><time>2026-04-08T16:20:26.999Z</time></trkpt><trkpt lat="44.13859853501063" lon="9.999783221722868"><ele>311.20000000000005</ele><time>2026-04-08T16:20:27.999Z</time></trkpt><trkpt lat="44.13864652704026" lon="9.999906976140332"><ele>312.8</ele><time>2026-04-08T16:20:28.999Z</time></trkpt><trkpt lat="44.138703305646416" lon="10.000047715873798"><ele>314.40000000000003</ele><time>2026-04-08T16:20:29.999Z</time></trkpt><trkpt lat="44.138762789139534" lon="10.000170141102766"><ele>316.0</ele><time>2026-04-08T16:20:30.999Z</time></trkpt><trkpt lat="44.138807384192724" lon="10.000255400652053"><ele>316.0</ele><time>2026-04-08T16:20:31.999Z</time></trkpt><trkpt lat="44.13886572014359" lon="10.00037706217568"><ele>316.0</ele><time>2026-04-08T16:20:33.999Z</time></trkpt><trkpt lat="44.13888458758234" lon="10.000466708439726"><ele>316.0</ele><time>2026-04-08T16:20:36.999Z</time></trkpt><trkpt lat="44.138807109396176" lon="10.000560222520924"><ele>316.0</ele><time>2026-04-08T16:20:38.999Z</time></trkpt><trkpt lat="44.138746636251575" lon="10.000647025081161"><ele>316.0</ele><time>2026-04-08T16:20:39.999Z</time></trkpt><trkpt lat="44.138683111975" lon="10.00075732940974"><ele>317.8</ele><time>2026-04-08T16:20:40.999Z</time></trkpt><trkpt lat="44.13863913830856" lon="10.000871361977637"><ele>319.6</ele><time>2026-04-08T16:20:41.999Z</time></trkpt><trkpt lat="44.13862486993495" lon="10.00098623679628"><ele>321.4</ele><time>2026-04-08T16:20:42.999Z</time></trkpt><trkpt lat="44.13863031474534" lon="10.001104419286193"><ele>323.2</ele><time>2026-04-08T16:20:43.999Z</time></trkpt><trkpt lat="44.138670807135846" lon="10.00123265549857"><ele>325.0</ele><time>2026-04-08T16:20:44.999Z</time></trkpt><trkpt lat="44.13876793850614" lon="10.001330091471559"><ele>325.0</ele><time>2026-04-08T16:20:45.999Z</time></trkpt><trkpt lat="44.13885205307136" lon="10.001453662713487"><ele>325.0</ele><time>2026-04-08T16:20:46.999Z</time></trkpt><trkpt lat="44.13892372888387" lon="10.001580142160538"><ele>325.0</ele><time>2026-04-08T16:20:47.999Z</time></trkpt><trkpt lat="44.13897795438985" lon="10.001706833774406"><ele>325.0</ele><time>2026-04-08T16:20:48.999Z</time></trkpt><trkpt lat="44.13896327898528" lon="10.00184522512791"><ele>325.0</ele><time>2026-04-08T16:20:49.999Z</time></trkpt><trkpt lat="44.13896285146014" lon="10.001964312721103"><ele>326.5</ele><time>2026-04-08T16:20:50.999Z</time></trkpt><trkpt lat="44.13894169210788" lon="10.00207942545741"><ele>328.0</ele><time>2026-04-08T16:20:51.999Z</time></trkpt><trkpt lat="44.13889754624213" lon="10.002174235251196"><ele>329.5</ele><time>2026-04-08T16:20:52.999Z</time></trkpt><trkpt lat="44.13883738547535" lon="10.002252085889983"><ele>331.0</ele><time>2026-04-08T16:20:53.999Z</time></trkpt><trkpt lat="44.13876377195056" lon="10.002300328757793"><ele>332.5</ele><time>2026-04-08T16:20:54.999Z</time></trkpt><trkpt lat="44.13868331606605" lon="10.002355203907523"><ele>334.0</ele><time>2026-04-08T16:20:55.999Z</time></trkpt><trkpt lat="44.13858399788326" lon="10.002378673202688"><ele>334.0</ele><time>2026-04-08T16:20:56.999Z</time></trkpt><trkpt lat="44.138490273953025" lon="10.002404375163552"><ele>334.0</ele><time>2026-04-08T16:20:57.999Z</time></trkpt><trkpt lat="44.13842738500184" lon="10.002451908481628"><ele>334.0</ele><time>2026-04-08T16:20:58.999Z</time></trkpt><trkpt lat="44.13838526291917" lon="10.002538010150968"><ele>334.0</ele><time>2026-04-08T16:20:59.999Z</time></trkpt><trkpt lat="44.138361198706086" lon="10.002650628115346"><ele>334.0</ele><time>2026-04-08T16:21:00.999Z</time></trkpt><trkpt lat="44.13834438616784" lon="10.002782040094731"><ele>334.0</ele><time>2026-04-08T16:21:01.999Z</time></trkpt><trkpt lat="44.138327786878314" lon="10.002932054652556"><ele>336.25</ele><time>2026-04-08T16:21:02.999Z</time></trkpt><trkpt lat="44.1383292886366" lon="10.003104103795716"><ele>338.5</ele><time>2026-04-08T16:21:03.999Z</time></trkpt><trkpt lat="44.13833179458381" lon="10.003287098869807"><ele>340.75</ele><time>2026-04-08T16:21:04.999Z</time></trkpt><trkpt lat="44.13834991797117" lon="10.003474981954799"><ele>343.0</ele><time>2026-04-08T16:21:05.999Z</time></trkpt><trkpt lat="44.13836717414264" lon="10.00366984680608"><ele>344.0</ele><time>2026-04-08T16:21:06.999Z</time></trkpt><trkpt lat="44.13838374268286" lon="10.003875443136046"><ele>345.0</ele><time>2026-04-08T16:21:07.999Z</time></trkpt><trkpt lat="44.1383912268226" lon="10.004068392159606"><ele>346.0</ele><time>2026-04-08T16:21:08.999Z</time></trkpt><trkpt lat="44.13837793077509" lon="10.00422716702959"><ele>347.0</ele><time>2026-04-08T16:21:10Z</time></trkpt><trkpt lat="44.13836283102748" lon="10.00436962608037"><ele>349.25</ele><time>2026-04-08T16:21:11Z</time></trkpt><trkpt lat="44.13827408812945" lon="10.00447011065221"><ele>351.5</ele><time>2026-04-08T16:21:12Z</time></trkpt><trkpt lat="44.13820134195006" lon="10.004601567020114"><ele>353.75</ele><time>2026-04-08T16:21:13Z</time></trkpt><trkpt lat="44.138130409667006" lon="10.004744296539654"><ele>356.0</ele><time>2026-04-08T16:21:14Z</time></trkpt><trkpt lat="44.13809900056143" lon="10.004904532499815"><ele>352.25</ele><time>2026-04-08T16:21:15Z</time></trkpt><trkpt lat="44.13805833792388" lon="10.005053426205787"><ele>348.5</ele><time>2026-04-08T16:21:16Z</time></trkpt><trkpt lat="44.13804657209081" lon="10.005228166115256"><ele>344.75</ele><time>2026-04-08T16:21:17Z</time></trkpt><trkpt lat="44.13804455152329" lon="10.00541167163779"><ele>341.0</ele><time>2026-04-08T16:21:18Z</time></trkpt><trkpt lat="44.138063630857765" lon="10.00560692495616"><ele>341.0</ele><time>2026-04-08T16:21:19Z</time></trkpt><trkpt lat="44.13807103157067" lon="10.005806294163417"><ele>341.0</ele><time>2026-04-08T16:21:20Z</time></trkpt><trkpt lat="44.13808842268819" lon="10.006010539183317"><ele>341.0</ele><time>2026-04-08T16:21:21Z</time></trkpt><trkpt lat="44.13810142904466" lon="10.006225434274368"><ele>341.0</ele><time>2026-04-08T16:21:22Z</time></trkpt><trkpt lat="44.13813660230742" lon="10.006438811055046"><ele>342.33333333333337</ele><time>2026-04-08T16:21:23Z</time></trkpt><trkpt lat="44.13817678078198" lon="10.00665739111566"><ele>343.6666666666667</ele><time>2026-04-08T16:21:24Z</time></trkpt><trkpt lat="44.13821744747749" lon="10.006877675163981"><ele>345.0</ele><time>2026-04-08T16:21:25Z</time></trkpt><trkpt lat="44.13826438788641" lon="10.007096641454382"><ele>353.3333333333333</ele><time>2026-04-08T16:21:26Z</time></trkpt><trkpt lat="44.1383225863034" lon="10.007316815751949"><ele>361.66666666666663</ele><time>2026-04-08T16:21:27Z</time></trkpt><trkpt lat="44.138387648574856" lon="10.007532624723261"><ele>370.0</ele><time>2026-04-08T16:21:28Z</time></trkpt><trkpt lat="44.138458641966594" lon="10.007748095433632"><ele>370.25</ele><time>2026-04-08T16:21:29Z</time></trkpt><trkpt lat="44.13854435428669" lon="10.007941323889376"><ele>370.5</ele><time>2026-04-08T16:21:30Z</time></trkpt><trkpt lat="44.13860879449262" lon="10.008117387490202"><ele>370.75</ele><time>2026-04-08T16:21:31Z</time></trkpt><trkpt lat="44.13870860144346" lon="10.008224125990868"><ele>371.0</ele><time>2026-04-08T16:21:32Z</time></trkpt><trkpt lat="44.138799043355064" lon="10.008327948819284"><ele>369.33333333333337</ele><time>2026-04-08T16:21:33Z</time></trkpt><trkpt lat="44.13889239180427" lon="10.008393778629703"><ele>367.6666666666667</ele><time>2026-04-08T16:21:34Z</time></trkpt><trkpt lat="44.138981555593205" lon="10.008425078072296"><ele>366.0</ele><time>2026-04-08T16:21:35Z</time></trkpt><trkpt lat="44.13906056910038" lon="10.008469813014925"><ele>364.3333333333333</ele><time>2026-04-08T16:21:36Z</time></trkpt><trkpt lat="44.139141173087324" lon="10.008497287969178"><ele>362.66666666666663</ele><time>2026-04-08T16:21:37Z</time></trkpt><trkpt lat="44.13921680406021" lon="10.008521771768566"><ele>361.0</ele><time>2026-04-08T16:21:38Z</time></trkpt><trkpt lat="44.139291052413824" lon="10.008551729672833"><ele>365.16666666666663</ele><time>2026-04-08T16:21:39Z</time></trkpt><trkpt lat="44.139366934758115" lon="10.008584045223673"><ele>369.3333333333333</ele><time>2026-04-08T16:21:40Z</time></trkpt><trkpt lat="44.13943723432604" lon="10.008628949345063"><ele>373.5</ele><time>2026-04-08T16:21:41Z</time></trkpt><trkpt lat="44.13951207065427" lon="10.00866808475358"><ele>377.66666666666663</ele><time>2026-04-08T16:21:42Z</time></trkpt><trkpt lat="44.139559251004904" lon="10.008757778334944"><ele>381.8333333333333</ele><time>2026-04-08T16:21:43Z</time></trkpt><trkpt lat="44.13960572549705" lon="10.008836070496121"><ele>386.0</ele><time>2026-04-08T16:21:44Z</time></trkpt><trkpt lat="44.13967631533446" lon="10.008901354545028"><ele>386.0</ele><time>2026-04-08T16:21:45Z</time></trkpt><trkpt lat="44.139738531769574" lon="10.009005578800352"><ele>386.0</ele><time>2026-04-08T16:21:46Z</time></trkpt><trkpt lat="44.13981611592167" lon="10.009101637708484"><ele>386.0</ele><time>2026-04-08T16:21:47Z</time></trkpt><trkpt lat="44.13990083166708" lon="10.009175525067263"><ele>386.0</ele><time>2026-04-08T16:21:48Z</time></trkpt><trkpt lat="44.139970882782116" lon="10.009284334359199"><ele>386.0</ele><time>2026-04-08T16:21:49Z</time></trkpt><trkpt lat="44.14005655026939" lon="10.009361617929077"><ele>386.8333333333333</ele><time>2026-04-08T16:21:50Z</time></trkpt><trkpt lat="44.14013143498344" lon="10.009431690176998"><ele>387.66666666666663</ele><time>2026-04-08T16:21:51Z</time></trkpt><trkpt lat="44.14018771999883" lon="10.009509050368479"><ele>388.5</ele><time>2026-04-08T16:21:52Z</time></trkpt><trkpt lat="44.140220577758164" lon="10.009604651560185"><ele>389.33333333333337</ele><time>2026-04-08T16:21:53Z</time></trkpt><trkpt lat="44.14024386728996" lon="10.009725370521132"><ele>390.1666666666667</ele><time>2026-04-08T16:21:54Z</time></trkpt><trkpt lat="44.14027449472434" lon="10.009868847671244"><ele>391.0</ele><time>2026-04-08T16:21:55Z</time></trkpt><trkpt lat="44.140326491381806" lon="10.010010611755265"><ele>391.0</ele><time>2026-04-08T16:21:56Z</time></trkpt><trkpt lat="44.14039299097393" lon="10.010158855254149"><ele>391.0</ele><time>2026-04-08T16:21:57Z</time></trkpt><trkpt lat="44.1404768743265" lon="10.010304973193518"><ele>391.0</ele><time>2026-04-08T16:21:58Z</time></trkpt><trkpt lat="44.14057589544277" lon="10.010443845786085"><ele>391.0</ele><time>2026-04-08T16:21:59Z</time></trkpt><trkpt lat="44.140666997207994" lon="10.010549430269737"><ele>394.0</ele><time>2026-04-08T16:22:00Z</time></trkpt><trkpt lat="44.14074600296546" lon="10.010663204413719"><ele>397.0</ele><time>2026-04-08T16:22:01Z</time></trkpt><trkpt lat="44.140802418627175" lon="10.01079392923852"><ele>400.0</ele><time>2026-04-08T16:22:02Z</time></trkpt><trkpt lat="44.140843152748" lon="10.010922208440586"><ele>403.0</ele><time>2026-04-08T16:22:03Z</time></trkpt><trkpt lat="44.14087425985618" lon="10.011034138333729"><ele>406.0</ele><time>2026-04-08T16:22:04Z</time></trkpt><trkpt lat="44.14089592717944" lon="10.011127575743604"><ele>406.00000000000006</ele><time>2026-04-08T16:22:05Z</time></trkpt><trkpt lat="44.14091728334025" lon="10.011221867389077"><ele>406.0</ele><time>2026-04-08T16:22:07Z</time></trkpt><trkpt lat="44.14093571851924" lon="10.011309205573806"><ele>406.0</ele><time>2026-04-08T16:22:15Z</time></trkpt><trkpt lat="44.14095819867115" lon="10.011416680379824"><ele>406.0</ele><time>2026-04-08T16:22:16Z</time></trkpt><trkpt lat="44.141000640682186" lon="10.011548550567579"><ele>406.00000000000006</ele><time>2026-04-08T16:22:17Z</time></trkpt><trkpt lat="44.14102851622364" lon="10.011706198508724"><ele>406.0</ele><time>2026-04-08T16:22:18Z</time></trkpt><trkpt lat="44.141059563756926" lon="10.0118654146426"><ele>406.25</ele><time>2026-04-08T16:22:19Z</time></trkpt><trkpt lat="44.141076882054946" lon="10.012037301227755"><ele>406.5</ele><time>2026-04-08T16:22:20Z</time></trkpt><trkpt lat="44.1410601410069" lon="10.012208050903567"><ele>406.75</ele><time>2026-04-08T16:22:21Z</time></trkpt><trkpt lat="44.141035748143835" lon="10.012363525721888"><ele>407.0</ele><time>2026-04-08T16:22:21.999Z</time></trkpt><trkpt lat="44.14101007944706" lon="10.012504879621268"><ele>408.0</ele><time>2026-04-08T16:22:22.999Z</time></trkpt><trkpt lat="44.14098622144592" lon="10.012628545520542"><ele>409.0</ele><time>2026-04-08T16:22:23.999Z</time></trkpt><trkpt lat="44.14095488130099" lon="10.012760697375283"><ele>410.0</ele><time>2026-04-08T16:22:24.999Z</time></trkpt><trkpt lat="44.140923227229464" lon="10.012896554504813"><ele>411.0</ele><time>2026-04-08T16:22:25.999Z</time></trkpt><trkpt lat="44.140909775249604" lon="10.013036578847126"><ele>412.0</ele><time>2026-04-08T16:22:26.999Z</time></trkpt><trkpt lat="44.140879956445886" lon="10.013159781110723"><ele>412.0</ele><time>2026-04-08T16:22:27.999Z</time></trkpt><trkpt lat="44.140868529151554" lon="10.013281025915536"><ele>412.0</ele><time>2026-04-08T16:22:28.999Z</time></trkpt><trkpt lat="44.14085841917244" lon="10.013418044856442"><ele>412.0</ele><time>2026-04-08T16:22:29.999Z</time></trkpt><trkpt lat="44.14085335939214" lon="10.013560791380197"><ele>412.0</ele><time>2026-04-08T16:22:30.999Z</time></trkpt><trkpt lat="44.140849138708646" lon="10.013699364763978"><ele>412.0</ele><time>2026-04-08T16:22:31.999Z</time></trkpt><trkpt lat="44.140837749515555" lon="10.013837780093258"><ele>413.6666666666667</ele><time>2026-04-08T16:22:32.999Z</time></trkpt><trkpt lat="44.14083235648454" lon="10.01396493963559"><ele>415.33333333333337</ele><time>2026-04-08T16:22:33.999Z</time></trkpt><trkpt lat="44.14082458438782" lon="10.014092175809834"><ele>417.0</ele><time>2026-04-08T16:22:34.999Z</time></trkpt><trkpt lat="44.14080425654516" lon="10.014212142620442"><ele>418.66666666666663</ele><time>2026-04-08T16:22:35.999Z</time></trkpt><trkpt lat="44.14076187313256" lon="10.014303058700717"><ele>420.3333333333333</ele><time>2026-04-08T16:22:36.999Z</time></trkpt><trkpt lat="44.14071649582056" lon="10.014403394390653"><ele>422.0</ele><time>2026-04-08T16:22:37.999Z</time></trkpt><trkpt lat="44.140674563277976" lon="10.014506909709793"><ele>421.99999999999994</ele><time>2026-04-08T16:22:38.999Z</time></trkpt><trkpt lat="44.140634062130395" lon="10.014603719576845"><ele>422.0</ele><time>2026-04-08T16:22:39.999Z</time></trkpt><trkpt lat="44.14059458570268" lon="10.01470249486457"><ele>422.0</ele><time>2026-04-08T16:22:40.999Z</time></trkpt><trkpt lat="44.14055861278049" lon="10.014799750471315"><ele>422.0</ele><time>2026-04-08T16:22:41.999Z</time></trkpt><trkpt lat="44.140518954043195" lon="10.014900172115212"><ele>421.99999999999994</ele><time>2026-04-08T16:22:42.999Z</time></trkpt><trkpt lat="44.140475158085046" lon="10.014995662990318"><ele>422.0</ele><time>2026-04-08T16:22:43.999Z</time></trkpt><trkpt lat="44.14043592112743" lon="10.0150950072946"><ele>423.49999999999994</ele><time>2026-04-08T16:22:44.999Z</time></trkpt><trkpt lat="44.140395939523515" lon="10.015192731088444"><ele>425.0</ele><time>2026-04-08T16:22:45.999Z</time></trkpt><trkpt lat="44.14036628396052" lon="10.01529542327616"><ele>426.5</ele><time>2026-04-08T16:22:46.999Z</time></trkpt><trkpt lat="44.140340796593044" lon="10.015399109721018"><ele>428.0</ele><time>2026-04-08T16:22:47.999Z</time></trkpt><trkpt lat="44.14032603722872" lon="10.015503761928311"><ele>429.49999999999994</ele><time>2026-04-08T16:22:48.999Z</time></trkpt><trkpt lat="44.140333834856825" lon="10.015611737731263"><ele>431.0</ele><time>2026-04-08T16:22:49.999Z</time></trkpt><trkpt lat="44.140355103590835" lon="10.015715243846971"><ele>430.99999999999994</ele><time>2026-04-08T16:22:50.999Z</time></trkpt><trkpt lat="44.14038363284961" lon="10.015814984906694"><ele>431.0</ele><time>2026-04-08T16:22:51.999Z</time></trkpt><trkpt lat="44.14040976812526" lon="10.015912916565716"><ele>431.0</ele><time>2026-04-08T16:22:52.999Z</time></trkpt><trkpt lat="44.14042964121454" lon="10.016015953802066"><ele>431.0</ele><time>2026-04-08T16:22:53.999Z</time></trkpt><trkpt lat="44.14042636941673" lon="10.016130045057865"><ele>430.99999999999994</ele><time>2026-04-08T16:22:54.999Z</time></trkpt><trkpt lat="44.140428953489014" lon="10.016243411686975"><ele>431.0</ele><time>2026-04-08T16:22:55.999Z</time></trkpt><trkpt lat="44.14042468294652" lon="10.016357933880368"><ele>432.49999999999994</ele><time>2026-04-08T16:22:56.999Z</time></trkpt><trkpt lat="44.14040244935793" lon="10.016467761029322"><ele>434.0</ele><time>2026-04-08T16:22:57.999Z</time></trkpt><trkpt lat="44.14036641025271" lon="10.016567711129175"><ele>435.5</ele><time>2026-04-08T16:22:58.999Z</time></trkpt><trkpt lat="44.140334150221804" lon="10.016651735684832"><ele>437.0</ele><time>2026-04-08T16:22:59.999Z</time></trkpt><trkpt lat="44.14028456920445" lon="10.016726452833304"><ele>438.49999999999994</ele><time>2026-04-08T16:23:00.999Z</time></trkpt><trkpt lat="44.14022951090146" lon="10.01679781980869"><ele>440.0</ele><time>2026-04-08T16:23:01.999Z</time></trkpt><trkpt lat="44.14018379408945" lon="10.01689058900543"><ele>440.66666666666663</ele><time>2026-04-08T16:23:02.999Z</time></trkpt><trkpt lat="44.140156343721785" lon="10.017004605366266"><ele>441.3333333333333</ele><time>2026-04-08T16:23:03.999Z</time></trkpt><trkpt lat="44.14015009271026" lon="10.017125517673847"><ele>442.0</ele><time>2026-04-08T16:23:04.999Z</time></trkpt><trkpt lat="44.140164048589746" lon="10.017246608918153"><ele>442.66666666666663</ele><time>2026-04-08T16:23:05.999Z</time></trkpt><trkpt lat="44.140192702558714" lon="10.017362489266397"><ele>443.3333333333333</ele><time>2026-04-08T16:23:06.999Z</time></trkpt><trkpt lat="44.14024003382036" lon="10.017466844883105"><ele>444.0</ele><time>2026-04-08T16:23:07.999Z</time></trkpt><trkpt lat="44.1403027872805" lon="10.017559451461063"><ele>445.0</ele><time>2026-04-08T16:23:08.999Z</time></trkpt><trkpt lat="44.14035198622676" lon="10.01766850457783"><ele>446.0</ele><time>2026-04-08T16:23:09.999Z</time></trkpt><trkpt lat="44.14041401200758" lon="10.017769152544922"><ele>447.0</ele><time>2026-04-08T16:23:10.999Z</time></trkpt><trkpt lat="44.14047901306445" lon="10.017869348707345"><ele>448.0</ele><time>2026-04-08T16:23:11.999Z</time></trkpt><trkpt lat="44.14054307486699" lon="10.017974598999086"><ele>449.0</ele><time>2026-04-08T16:23:12.999Z</time></trkpt><trkpt lat="44.14059323746775" lon="10.018089781930374"><ele>448.99999999999994</ele><time>2026-04-08T16:23:13.999Z</time></trkpt><trkpt lat="44.140617869010256" lon="10.018215127005362"><ele>449.0</ele><time>2026-04-08T16:23:14.999Z</time></trkpt><trkpt lat="44.140624403982535" lon="10.018337770956222"><ele>449.0</ele><time>2026-04-08T16:23:16Z</time></trkpt><trkpt lat="44.14061144565419" lon="10.018451689353807"><ele>449.0</ele><time>2026-04-08T16:23:17Z</time></trkpt><trkpt lat="44.140576043102094" lon="10.018555087358"><ele>448.99999999999994</ele><time>2026-04-08T16:23:18Z</time></trkpt><trkpt lat="44.14054058755503" lon="10.0186597663806"><ele>449.0</ele><time>2026-04-08T16:23:19Z</time></trkpt><trkpt lat="44.14048585886821" lon="10.018746445194902"><ele>449.16666666666663</ele><time>2026-04-08T16:23:20Z</time></trkpt><trkpt lat="44.14043669185721" lon="10.018831333324327"><ele>449.3333333333333</ele><time>2026-04-08T16:23:21Z</time></trkpt><trkpt lat="44.140407080321765" lon="10.01893376174143"><ele>449.5</ele><time>2026-04-08T16:23:22Z</time></trkpt><trkpt lat="44.14039508197417" lon="10.019042885619049"><ele>449.66666666666663</ele><time>2026-04-08T16:23:23Z</time></trkpt><trkpt lat="44.140373596526544" lon="10.019145730120803"><ele>449.8333333333333</ele><time>2026-04-08T16:23:24Z</time></trkpt><trkpt lat="44.14037258952039" lon="10.019250013216388"><ele>450.0</ele><time>2026-04-08T16:23:25Z</time></trkpt><trkpt lat="44.14036572593591" lon="10.019348876903804"><ele>451.5</ele><time>2026-04-08T16:23:26Z</time></trkpt><trkpt lat="44.140356069621866" lon="10.019438861195281"><ele>453.0</ele><time>2026-04-08T16:23:27Z</time></trkpt><trkpt lat="44.14029795485084" lon="10.019507835479038"><ele>454.5</ele><time>2026-04-08T16:23:28Z</time></trkpt><trkpt lat="44.140210577248624" lon="10.019546164932828"><ele>456.0</ele><time>2026-04-08T16:23:29Z</time></trkpt><trkpt lat="44.14013339876946" lon="10.019605592944584"><ele>457.5</ele><time>2026-04-08T16:23:30Z</time></trkpt><trkpt lat="44.14005298887771" lon="10.01966358467002"><ele>459.0</ele><time>2026-04-08T16:23:31Z</time></trkpt><trkpt lat="44.13996543732222" lon="10.019723256782433"><ele>457.5</ele><time>2026-04-08T16:23:32Z</time></trkpt><trkpt lat="44.13987139999402" lon="10.019787789508419"><ele>456.0</ele><time>2026-04-08T16:23:33Z</time></trkpt><trkpt lat="44.13976147469781" lon="10.019811469788191"><ele>454.5</ele><time>2026-04-08T16:23:34Z</time></trkpt><trkpt lat="44.13964740647248" lon="10.019827813123902"><ele>453.0</ele><time>2026-04-08T16:23:35Z</time></trkpt><trkpt lat="44.139526895690416" lon="10.019850923676206"><ele>453.0</ele><time>2026-04-08T16:23:36Z</time></trkpt><trkpt lat="44.139403350728664" lon="10.019893301319266"><ele>453.0</ele><time>2026-04-08T16:23:37Z</time></trkpt><trkpt lat="44.13927869842948" lon="10.019970937104302"><ele>453.0</ele><time>2026-04-08T16:23:38Z</time></trkpt><trkpt lat="44.139159738774104" lon="10.020080608681281"><ele>453.0</ele><time>2026-04-08T16:23:39Z</time></trkpt><trkpt lat="44.139048463916936" lon="10.020210087425896"><ele>455.66666666666663</ele><time>2026-04-08T16:23:40Z</time></trkpt><trkpt lat="44.13893944668557" lon="10.020353323310358"><ele>458.3333333333333</ele><time>2026-04-08T16:23:41Z</time></trkpt><trkpt lat="44.138829035613384" lon="10.02049760528296"><ele>461.0</ele><time>2026-04-08T16:23:42Z</time></trkpt><trkpt lat="44.13871407965156" lon="10.020642625463317"><ele>461.0</ele><time>2026-04-08T16:23:43Z</time></trkpt><trkpt lat="44.13860697425718" lon="10.020764939115184"><ele>461.0</ele><time>2026-04-08T16:23:44Z</time></trkpt><trkpt lat="44.13852399400917" lon="10.020871463820148"><ele>461.0</ele><time>2026-04-08T16:23:45Z</time></trkpt><trkpt lat="44.13847311551606" lon="10.020976544159037"><ele>461.0</ele><time>2026-04-08T16:23:46Z</time></trkpt><trkpt lat="44.13845525232691" lon="10.021104430575518"><ele>461.0</ele><time>2026-04-08T16:23:47Z</time></trkpt><trkpt lat="44.13844762919564" lon="10.021258508554046"><ele>464.25</ele><time>2026-04-08T16:23:48Z</time></trkpt><trkpt lat="44.13843412156744" lon="10.021435987698043"><ele>467.5</ele><time>2026-04-08T16:23:49Z</time></trkpt><trkpt lat="44.13842594501111" lon="10.021622326222591"><ele>470.75</ele><time>2026-04-08T16:23:50Z</time></trkpt><trkpt lat="44.13841600709126" lon="10.021813831986497"><ele>474.0</ele><time>2026-04-08T16:23:51Z</time></trkpt><trkpt lat="44.13837365291089" lon="10.02198334535306"><ele>475.75</ele><time>2026-04-08T16:23:52Z</time></trkpt><trkpt lat="44.13833901948326" lon="10.02213614044326"><ele>477.5</ele><time>2026-04-08T16:23:53Z</time></trkpt><trkpt lat="44.13829035553861" lon="10.022274334018679"><ele>479.25</ele><time>2026-04-08T16:23:54Z</time></trkpt><trkpt lat="44.138189324555896" lon="10.022336339064266"><ele>481.0</ele><time>2026-04-08T16:23:55Z</time></trkpt><trkpt lat="44.13809499724385" lon="10.022427268750665"><ele>484.0</ele><time>2026-04-08T16:23:56Z</time></trkpt><trkpt lat="44.13797920794017" lon="10.022486659067392"><ele>487.0</ele><time>2026-04-08T16:23:57Z</time></trkpt><trkpt lat="44.137861194111856" lon="10.02256088744124"><ele>490.0</ele><time>2026-04-08T16:23:58Z</time></trkpt><trkpt lat="44.13774370897904" lon="10.022633993276152"><ele>493.0</ele><time>2026-04-08T16:23:59Z</time></trkpt><trkpt lat="44.13762682362343" lon="10.022712252302712"><ele>493.0</ele><time>2026-04-08T16:24:00Z</time></trkpt><trkpt lat="44.13752797159534" lon="10.022765201383777"><ele>492.99999999999994</ele><time>2026-04-08T16:24:01Z</time></trkpt><trkpt lat="44.137458728390236" lon="10.02281454603004"><ele>492.99999999999994</ele><time>2026-04-08T16:24:02Z</time></trkpt><trkpt lat="44.13740068773197" lon="10.0228719171648"><ele>493.0</ele><time>2026-04-08T16:24:04Z</time></trkpt><trkpt lat="44.137375359928136" lon="10.023117802530289"><ele>493.0</ele><time>2026-04-08T16:24:06Z</time></trkpt><trkpt lat="44.13744505177124" lon="10.023182285948442"><ele>493.00000000000006</ele><time>2026-04-08T16:24:08Z</time></trkpt><trkpt lat="44.13752481767941" lon="10.023251418918095"><ele>493.0</ele><time>2026-04-08T16:24:10Z</time></trkpt><trkpt lat="44.1375808759648" lon="10.02329798755349"><ele>493.0</ele><time>2026-04-08T16:24:11Z</time></trkpt><trkpt lat="44.13764745344783" lon="10.023352682442848"><ele>493.0</ele><time>2026-04-08T16:24:12Z</time></trkpt><trkpt lat="44.137719134611714" lon="10.02340848532217"><ele>493.00000000000006</ele><time>2026-04-08T16:24:13Z</time></trkpt><trkpt lat="44.13779870403247" lon="10.023464662558148"><ele>493.0</ele><time>2026-04-08T16:24:14Z</time></trkpt><trkpt lat="44.13790773382127" lon="10.023520976113495"><ele>493.4</ele><time>2026-04-08T16:24:15Z</time></trkpt><trkpt lat="44.13800006614223" lon="10.023560792060044"><ele>493.79999999999995</ele><time>2026-04-08T16:24:16Z</time></trkpt><trkpt lat="44.13807842039907" lon="10.0235932692197"><ele>494.2</ele><time>2026-04-08T16:24:17Z</time></trkpt><trkpt lat="44.1381840823981" lon="10.023631118916525"><ele>494.6</ele><time>2026-04-08T16:24:19Z</time></trkpt><trkpt lat="44.138280119787225" lon="10.023611201935637"><ele>495.0</ele><time>2026-04-08T16:24:21Z</time></trkpt><trkpt lat="44.13852407769431" lon="10.023702735767868"><ele>498.75</ele><time>2026-04-08T16:24:22Z</time></trkpt><trkpt lat="44.13861269556365" lon="10.02364364313613"><ele>502.5</ele><time>2026-04-08T16:24:28.999Z</time></trkpt><trkpt lat="44.13869168455857" lon="10.023616480281058"><ele>506.25</ele><time>2026-04-08T16:24:30.999Z</time></trkpt><trkpt lat="44.138829183550826" lon="10.023491091479547"><ele>510.0</ele><time>2026-04-08T16:24:31.999Z</time></trkpt><trkpt lat="44.1389029334347" lon="10.02337386525294"><ele>509.3333333333333</ele><time>2026-04-08T16:24:32.999Z</time></trkpt><trkpt lat="44.13891920123449" lon="10.023273329501771"><ele>508.66666666666663</ele><time>2026-04-08T16:24:34.999Z</time></trkpt><trkpt lat="44.138997832279216" lon="10.023196741317093"><ele>508.0</ele><time>2026-04-08T16:24:37.999Z</time></trkpt><trkpt lat="44.1390739706966" lon="10.023129739854973"><ele>507.3333333333333</ele><time>2026-04-08T16:24:38.999Z</time></trkpt><trkpt lat="44.13913124947497" lon="10.023082569524503"><ele>506.66666666666663</ele><time>2026-04-08T16:24:39.999Z</time></trkpt><trkpt lat="44.13920393286934" lon="10.023076354330346"><ele>506.0</ele><time>2026-04-08T16:24:41.999Z</time></trkpt><trkpt lat="44.13926586201404" lon="10.023017345400062"><ele>506.0</ele><time>2026-04-08T16:24:45.999Z</time></trkpt><trkpt lat="44.139358039915074" lon="10.02298104435842"><ele>506.0</ele><time>2026-04-08T16:24:46.999Z</time></trkpt><trkpt lat="44.13943241582325" lon="10.022952934771315"><ele>506.0</ele><time>2026-04-08T16:24:47.999Z</time></trkpt><trkpt lat="44.13956976547203" lon="10.023302121843388"><ele>509.0</ele><time>2026-04-08T16:24:49.999Z</time></trkpt><trkpt lat="44.139658057594644" lon="10.02335512538824"><ele>512.0</ele><time>2026-04-08T16:24:50.999Z</time></trkpt><trkpt lat="44.13975778614701" lon="10.023401765944978"><ele>515.0</ele><time>2026-04-08T16:24:51.999Z</time></trkpt><trkpt lat="44.13984300877646" lon="10.023434245437624"><ele>518.0</ele><time>2026-04-08T16:24:52.999Z</time></trkpt><trkpt lat="44.13992888685879" lon="10.023466030319266"><ele>521.0</ele><time>2026-04-08T16:24:53.999Z</time></trkpt><trkpt lat="44.13999967379889" lon="10.02344649727292"><ele>523.4</ele><time>2026-04-08T16:24:54.999Z</time></trkpt><trkpt lat="44.140138100547155" lon="10.023462996621353"><ele>525.8</ele><time>2026-04-08T16:24:56.999Z</time></trkpt><trkpt lat="44.14021902285587" lon="10.023449041144767"><ele>528.1999999999999</ele><time>2026-04-08T16:24:57.999Z</time></trkpt><trkpt lat="44.14028979717058" lon="10.023449264638714"><ele>530.6</ele><time>2026-04-08T16:24:58.999Z</time></trkpt><trkpt lat="44.14038040481133" lon="10.02345972338862"><ele>533.0</ele><time>2026-04-08T16:24:59.999Z</time></trkpt><trkpt lat="44.14045778915515" lon="10.023473721836256"><ele>533.0</ele><time>2026-04-08T16:25:00.999Z</time></trkpt><trkpt lat="44.14053000835945" lon="10.023486079996909"><ele>533.0</ele><time>2026-04-08T16:25:01.999Z</time></trkpt><trkpt lat="44.140607475826656" lon="10.023493591920586"><ele>533.0</ele><time>2026-04-08T16:25:02.999Z</time></trkpt><trkpt lat="44.14068791933176" lon="10.023481518645445"><ele>533.0</ele><time>2026-04-08T16:25:03.999Z</time></trkpt><trkpt lat="44.14076231153264" lon="10.023445980966033"><ele>533.0</ele><time>2026-04-08T16:25:04.999Z</time></trkpt><trkpt lat="44.14083113810215" lon="10.023453328079095"><ele>533.0</ele><time>2026-04-08T16:25:05.999Z</time></trkpt><trkpt lat="44.14089302939737" lon="10.023492492977418"><ele>533.0</ele><time>2026-04-08T16:25:06.999Z</time></trkpt><trkpt lat="44.14101915581214" lon="10.023611339956151"><ele>535.6</ele><time>2026-04-08T16:25:08.999Z</time></trkpt><trkpt lat="44.14110852295859" lon="10.0236726535538"><ele>538.1999999999999</ele><time>2026-04-08T16:25:09.999Z</time></trkpt><trkpt lat="44.14120241384189" lon="10.0237193476166"><ele>540.8</ele><time>2026-04-08T16:25:10.999Z</time></trkpt><trkpt lat="44.141309807673025" lon="10.023733224478148"><ele>543.4</ele><time>2026-04-08T16:25:11.999Z</time></trkpt><trkpt lat="44.14141111877573" lon="10.023751484833488"><ele>546.0</ele><time>2026-04-08T16:25:12.999Z</time></trkpt><trkpt lat="44.141518987070306" lon="10.023759831876951"><ele>546.0</ele><time>2026-04-08T16:25:13.999Z</time></trkpt><trkpt lat="44.14161964046471" lon="10.023770029622527"><ele>546.0</ele><time>2026-04-08T16:25:14.999Z</time></trkpt><trkpt lat="44.1417081652954" lon="10.023777194023204"><ele>546.0</ele><time>2026-04-08T16:25:15.999Z</time></trkpt><trkpt lat="44.14178782846597" lon="10.023782467979776"><ele>546.0</ele><time>2026-04-08T16:25:16.999Z</time></trkpt><trkpt lat="44.141883021704786" lon="10.023779361386707"><ele>546.0</ele><time>2026-04-08T16:25:17.999Z</time></trkpt><trkpt lat="44.14196138745938" lon="10.02384272223471"><ele>546.0</ele><time>2026-04-08T16:25:18.999Z</time></trkpt><trkpt lat="44.14204610905261" lon="10.023905104925563"><ele>546.0</ele><time>2026-04-08T16:25:19.999Z</time></trkpt><trkpt lat="44.1421209523469" lon="10.023969407717603"><ele>546.0</ele><time>2026-04-08T16:25:20.999Z</time></trkpt><trkpt lat="44.14217310079297" lon="10.024018743813215"><ele>546.0</ele><time>2026-04-08T16:25:22Z</time></trkpt><trkpt lat="44.142243349657285" lon="10.024085272971131"><ele>546.0</ele><time>2026-04-08T16:25:25Z</time></trkpt><trkpt lat="44.1423128189601" lon="10.024133425109143"><ele>546.0</ele><time>2026-04-08T16:25:27Z</time></trkpt><trkpt lat="44.14241202645946" lon="10.024231936183565"><ele>548.6666666666666</ele><time>2026-04-08T16:25:29Z</time></trkpt><trkpt lat="44.14246958462565" lon="10.024284417435544"><ele>551.3333333333334</ele><time>2026-04-08T16:25:30Z</time></trkpt><trkpt lat="44.14254661370206" lon="10.02439982512869"><ele>554.0</ele><time>2026-04-08T16:25:32Z</time></trkpt><trkpt lat="44.14257095709051" lon="10.024488693522372"><ele>556.6666666666667</ele><time>2026-04-08T16:25:34Z</time></trkpt><trkpt lat="44.14254669256418" lon="10.024604103755442"><ele>559.3333333333334</ele><time>2026-04-08T16:25:37Z</time></trkpt><trkpt lat="44.14250331371497" lon="10.024737618755148"><ele>562.0</ele><time>2026-04-08T16:25:39Z</time></trkpt><trkpt lat="44.1424749437243" lon="10.024820922480208"><ele>562.0</ele><time>2026-04-08T16:25:40Z</time></trkpt><trkpt lat="44.14244101138455" lon="10.024940582020843"><ele>562.0</ele><time>2026-04-08T16:25:42Z</time></trkpt><trkpt lat="44.14236529675789" lon="10.025065729469809"><ele>562.0</ele><time>2026-04-08T16:25:44Z</time></trkpt><trkpt lat="44.14232186615936" lon="10.025153764985138"><ele>562.0</ele><time>2026-04-08T16:25:45Z</time></trkpt><trkpt lat="44.14228172954804" lon="10.025235080763473"><ele>562.0</ele><time>2026-04-08T16:25:46Z</time></trkpt><trkpt lat="44.142237789808476" lon="10.02531772931961"><ele>562.0</ele><time>2026-04-08T16:25:47Z</time></trkpt><trkpt lat="44.14218602160934" lon="10.02541365154661"><ele>565.5714285714287</ele><time>2026-04-08T16:25:48Z</time></trkpt><trkpt lat="44.14213727491562" lon="10.025498797127815"><ele>569.1428571428571</ele><time>2026-04-08T16:25:49Z</time></trkpt><trkpt lat="44.142083626938145" lon="10.025584783710578"><ele>572.7142857142858</ele><time>2026-04-08T16:25:50Z</time></trkpt><trkpt lat="44.14202783231751" lon="10.025659699953641"><ele>576.2857142857143</ele><time>2026-04-08T16:25:51Z</time></trkpt><trkpt lat="44.14198497393403" lon="10.025728730322319"><ele>579.8571428571429</ele><time>2026-04-08T16:25:52Z</time></trkpt><trkpt lat="44.14191349133698" lon="10.025759853182732"><ele>583.4285714285714</ele><time>2026-04-08T16:25:53Z</time></trkpt><trkpt lat="44.14186418309239" lon="10.02582476451908"><ele>587.0</ele><time>2026-04-08T16:25:54Z</time></trkpt><trkpt lat="44.14176199116313" lon="10.025912710541368"><ele>587.0</ele><time>2026-04-08T16:25:56Z</time></trkpt><trkpt lat="44.14166712034483" lon="10.026015381294073"><ele>587.0</ele><time>2026-04-08T16:25:58Z</time></trkpt><trkpt lat="44.14157059455052" lon="10.026112728501046"><ele>587.0</ele><time>2026-04-08T16:26:00Z</time></trkpt><trkpt lat="44.14149900696495" lon="10.026238584970063"><ele>587.0</ele><time>2026-04-08T16:26:02Z</time></trkpt><trkpt lat="44.141468784111034" lon="10.026391971524264"><ele>587.0</ele><time>2026-04-08T16:26:04Z</time></trkpt><trkpt lat="44.14153981361607" lon="10.026463039170121"><ele>587.0</ele><time>2026-04-08T16:26:05Z</time></trkpt><trkpt lat="44.14162270070757" lon="10.026537036366221"><ele>587.0</ele><time>2026-04-08T16:26:07Z</time></trkpt><trkpt lat="44.14167069406087" lon="10.026617932072792"><ele>587.0</ele><time>2026-04-08T16:26:09Z</time></trkpt><trkpt lat="44.14165340672199" lon="10.026721940586787"><ele>587.0</ele><time>2026-04-08T16:26:12Z</time></trkpt><trkpt lat="44.141708336361106" lon="10.0268216293979"><ele>587.0</ele><time>2026-04-08T16:26:16Z</time></trkpt><trkpt lat="44.14179212495879" lon="10.026837681927946"><ele>585.0</ele><time>2026-04-08T16:26:18Z</time></trkpt><trkpt lat="44.141871592491896" lon="10.026850579927958"><ele>583.0</ele><time>2026-04-08T16:26:20Z</time></trkpt><trkpt lat="44.14195278771153" lon="10.026872668929698"><ele>581.0</ele><time>2026-04-08T16:26:22Z</time></trkpt><trkpt lat="44.14202630514723" lon="10.026879441207258"><ele>579.0</ele><time>2026-04-08T16:26:24Z</time></trkpt><trkpt lat="44.142118959408826" lon="10.026865045878761"><ele>577.0</ele><time>2026-04-08T16:26:27Z</time></trkpt><trkpt lat="44.142190773404984" lon="10.026880817806004"><ele>575.0</ele><time>2026-04-08T16:26:29.999Z</time></trkpt><trkpt lat="44.14226949117264" lon="10.026895626483068"><ele>575.0</ele><time>2026-04-08T16:26:32.999Z</time></trkpt><trkpt lat="44.14235816536264" lon="10.02691855324723"><ele>575.0</ele><time>2026-04-08T16:26:35.999Z</time></trkpt><trkpt lat="44.14242500075917" lon="10.02693513713863"><ele>575.0</ele><time>2026-04-08T16:26:37.999Z</time></trkpt><trkpt lat="44.14250426692286" lon="10.026945311889715"><ele>575.0</ele><time>2026-04-08T16:26:40.999Z</time></trkpt><trkpt lat="44.142582937432216" lon="10.026940487223852"><ele>575.0</ele><time>2026-04-08T16:26:42.999Z</time></trkpt><trkpt lat="44.14266356469788" lon="10.026911596399653"><ele>575.0</ele><time>2026-04-08T16:26:45.999Z</time></trkpt><trkpt lat="44.14273171463006" lon="10.026891961152849"><ele>573.3333333333333</ele><time>2026-04-08T16:26:47.999Z</time></trkpt><trkpt lat="44.14280283016133" lon="10.02686310479889"><ele>571.6666666666666</ele><time>2026-04-08T16:26:49.999Z</time></trkpt><trkpt lat="44.14288030197368" lon="10.02683987561176"><ele>570.0</ele><time>2026-04-08T16:26:51.999Z</time></trkpt><trkpt lat="44.14298063277435" lon="10.026818641673348"><ele>568.3333333333334</ele><time>2026-04-08T16:26:53.999Z</time></trkpt><trkpt lat="44.143093693601394" lon="10.026823654946877"><ele>566.6666666666667</ele><time>2026-04-08T16:26:55.999Z</time></trkpt><trkpt lat="44.14316197360658" lon="10.026825362836448"><ele>565.0</ele><time>2026-04-08T16:26:56.999Z</time></trkpt><trkpt lat="44.1432362475731" lon="10.026827014115083"><ele>563.6</ele><time>2026-04-08T16:26:58.999Z</time></trkpt><trkpt lat="44.14332435160582" lon="10.0268069919626"><ele>562.2</ele><time>2026-04-08T16:27:00.999Z</time></trkpt><trkpt lat="44.143441353799275" lon="10.026778804016613"><ele>560.8</ele><time>2026-04-08T16:27:02.999Z</time></trkpt><trkpt lat="44.14354933182036" lon="10.026738468913827"><ele>559.4</ele><time>2026-04-08T16:27:03.999Z</time></trkpt><trkpt lat="44.143667778995784" lon="10.026696482937629"><ele>558.0</ele><time>2026-04-08T16:27:04.999Z</time></trkpt><trkpt lat="44.14378365219603" lon="10.026666135393217"><ele>558.0</ele><time>2026-04-08T16:27:05.999Z</time></trkpt><trkpt lat="44.14387557320896" lon="10.02666275019736"><ele>558.0</ele><time>2026-04-08T16:27:06.999Z</time></trkpt><trkpt lat="44.14396148351449" lon="10.02667168331358"><ele>558.0</ele><time>2026-04-08T16:27:07.999Z</time></trkpt><trkpt lat="44.14403321772005" lon="10.026668481766954"><ele>558.0</ele><time>2026-04-08T16:27:08.999Z</time></trkpt><trkpt lat="44.144000460597965" lon="10.026748862563354"><ele>558.0</ele><time>2026-04-08T16:27:26.999Z</time></trkpt><trkpt lat="44.144023347573004" lon="10.026888134732603"><ele>558.0</ele><time>2026-04-08T16:27:30Z</time></trkpt><trkpt lat="44.14405735438406" lon="10.026967030233955"><ele>558.6666666666666</ele><time>2026-04-08T16:27:31Z</time></trkpt><trkpt lat="44.14407128017992" lon="10.027086138369596"><ele>559.3333333333334</ele><time>2026-04-08T16:27:33Z</time></trkpt><trkpt lat="44.14409988326156" lon="10.027199743185495"><ele>560.0</ele><time>2026-04-08T16:27:37Z</time></trkpt><trkpt lat="44.144118509381585" lon="10.027316638007598"><ele>560.6666666666667</ele><time>2026-04-08T16:27:40Z</time></trkpt><trkpt lat="44.14413843359346" lon="10.027420363974558"><ele>561.3333333333334</ele><time>2026-04-08T16:27:44Z</time></trkpt><trkpt lat="44.14417054664776" lon="10.027559313321072"><ele>562.0</ele><time>2026-04-08T16:27:47Z</time></trkpt><trkpt lat="44.14419778954682" lon="10.027662482230964"><ele>562.2857142857143</ele><time>2026-04-08T16:27:49Z</time></trkpt><trkpt lat="44.144242442648206" lon="10.027746470766239"><ele>562.5714285714286</ele><time>2026-04-08T16:27:51Z</time></trkpt><trkpt lat="44.144265228281185" lon="10.027832121582419"><ele>562.8571428571429</ele><time>2026-04-08T16:27:55Z</time></trkpt><trkpt lat="44.144288532340966" lon="10.027932373133812"><ele>563.1428571428571</ele><time>2026-04-08T16:28:03Z</time></trkpt><trkpt lat="44.14428055438055" lon="10.02802018461757"><ele>563.4285714285714</ele><time>2026-04-08T16:28:05Z</time></trkpt><trkpt lat="44.14422737759228" lon="10.028109215300168"><ele>563.7142857142858</ele><time>2026-04-08T16:28:07Z</time></trkpt><trkpt lat="44.144167640916805" lon="10.028143733760135"><ele>564.0</ele><time>2026-04-08T16:28:08Z</time></trkpt><trkpt lat="44.1440902840557" lon="10.028248629552548"><ele>562.6666666666666</ele><time>2026-04-08T16:28:10Z</time></trkpt><trkpt lat="44.144112945723386" lon="10.028405249530751"><ele>561.3333333333334</ele><time>2026-04-08T16:28:11Z</time></trkpt><trkpt lat="44.144100517780714" lon="10.028518265766005"><ele>560.0</ele><time>2026-04-08T16:28:12Z</time></trkpt><trkpt lat="44.14407218082797" lon="10.02861178391184"><ele>558.6666666666667</ele><time>2026-04-08T16:28:13Z</time></trkpt><trkpt lat="44.14403716973852" lon="10.028727361130233"><ele>557.3333333333334</ele><time>2026-04-08T16:28:15Z</time></trkpt><trkpt lat="44.14403010065027" lon="10.028821356319284"><ele>556.0</ele><time>2026-04-08T16:28:18Z</time></trkpt><trkpt lat="44.144017068953566" lon="10.028950051637246"><ele>556.0</ele><time>2026-04-08T16:28:54.999Z</time></trkpt><trkpt lat="44.144119732964555" lon="10.029063202886169"><ele>556.0</ele><time>2026-04-08T16:29:53Z</time></trkpt><trkpt lat="44.14404703313314" lon="10.028988951983866"><ele>556.0</ele><time>2026-04-08T16:30:23Z</time></trkpt><trkpt lat="44.14402121970573" lon="10.028893858193237"><ele>556.0</ele><time>2026-04-08T16:30:49.999Z</time></trkpt><trkpt lat="44.14403750292571" lon="10.0288072874471"><ele>556.0</ele><time>2026-04-08T16:31:23.999Z</time></trkpt><trkpt lat="44.14403966561584" lon="10.028711597797713"><ele>556.0</ele><time>2026-04-08T16:31:28.999Z</time></trkpt><trkpt lat="44.144049543388995" lon="10.0286206804319"><ele>556.0</ele><time>2026-04-08T16:31:29.999Z</time></trkpt><trkpt lat="44.14406476030019" lon="10.028514214792457"><ele>556.0</ele><time>2026-04-08T16:31:32.999Z</time></trkpt><trkpt lat="44.14408756242761" lon="10.028429112170741"><ele>556.0</ele><time>2026-04-08T16:31:47Z</time></trkpt><trkpt lat="44.14412156610646" lon="10.028269725214958"><ele>556.0</ele><time>2026-04-08T16:31:50Z</time></trkpt><trkpt lat="44.14419553811907" lon="10.02816766176921"><ele>556.0</ele><time>2026-04-08T16:31:51Z</time></trkpt><trkpt lat="44.14426396480098" lon="10.028120642776608"><ele>556.0</ele><time>2026-04-08T16:31:52Z</time></trkpt><trkpt lat="44.1443109583649" lon="10.028055557024002"><ele>557.0</ele><time>2026-04-08T16:31:53Z</time></trkpt><trkpt lat="44.14429048402466" lon="10.027948790211774"><ele>558.0</ele><time>2026-04-08T16:31:56Z</time></trkpt><trkpt lat="44.14426321810789" lon="10.027860348453741"><ele>559.0</ele><time>2026-04-08T16:32:00Z</time></trkpt><trkpt lat="44.14423520552835" lon="10.027769703798679"><ele>560.0</ele><time>2026-04-08T16:32:03Z</time></trkpt><trkpt lat="44.14418243481313" lon="10.027669661419573"><ele>561.0</ele><time>2026-04-08T16:32:06Z</time></trkpt><trkpt lat="44.144136184899416" lon="10.02760394942247"><ele>562.0</ele><time>2026-04-08T16:32:08Z</time></trkpt><trkpt lat="44.14409915371308" lon="10.027453147024863"><ele>562.0000000000001</ele><time>2026-04-08T16:32:10Z</time></trkpt><trkpt lat="44.144085554563205" lon="10.02735788807445"><ele>562.0</ele><time>2026-04-08T16:32:12Z</time></trkpt><trkpt lat="44.144067597473864" lon="10.027268709935543"><ele>562.0</ele><time>2026-04-08T16:32:15Z</time></trkpt><trkpt lat="44.14404831246433" lon="10.027148286331819"><ele>562.0</ele><time>2026-04-08T16:32:18Z</time></trkpt><trkpt lat="44.14403159750119" lon="10.027051692040606"><ele>562.0</ele><time>2026-04-08T16:32:23Z</time></trkpt><trkpt lat="44.144015559128114" lon="10.02694347605809"><ele>562.0000000000001</ele><time>2026-04-08T16:32:25Z</time></trkpt><trkpt lat="44.143992631103416" lon="10.026845340500206"><ele>562.0</ele><time>2026-04-08T16:32:28Z</time></trkpt><trkpt lat="44.14403229196269" lon="10.02676395112142"><ele>562.0</ele><time>2026-04-08T16:32:32Z</time></trkpt><trkpt lat="44.14411562551495" lon="10.026708778766404"><ele>562.0</ele><time>2026-04-08T16:32:34Z</time></trkpt><trkpt lat="44.14419769584191" lon="10.02673723551208"><ele>562.0</ele><time>2026-04-08T16:32:35Z</time></trkpt><trkpt lat="44.14432761783804" lon="10.026764061225748"><ele>562.0</ele><time>2026-04-08T16:32:37Z</time></trkpt><trkpt lat="44.14439487267557" lon="10.02677094681935"><ele>562.0</ele><time>2026-04-08T16:32:38Z</time></trkpt><trkpt lat="44.14447398456119" lon="10.026798893413435"><ele>562.0</ele><time>2026-04-08T16:32:42Z</time></trkpt><trkpt lat="44.14454958102232" lon="10.026796333189392"><ele>562.0</ele><time>2026-04-08T16:32:47Z</time></trkpt><trkpt lat="44.144611649398" lon="10.026818348748446"><ele>562.0</ele><time>2026-04-08T16:32:50.999Z</time></trkpt><trkpt lat="44.14468055175301" lon="10.026853244206487"><ele>562.0</ele><time>2026-04-08T16:32:52.999Z</time></trkpt><trkpt lat="44.144779237546736" lon="10.026913129966008"><ele>562.0</ele><time>2026-04-08T16:32:54.999Z</time></trkpt><trkpt lat="44.144864733340555" lon="10.026998967436535"><ele>562.0</ele><time>2026-04-08T16:32:57.999Z</time></trkpt><trkpt lat="44.14496227034238" lon="10.027058743191937"><ele>561.4</ele><time>2026-04-08T16:32:59.999Z</time></trkpt><trkpt lat="44.14503472535664" lon="10.027077284331119"><ele>560.8000000000001</ele><time>2026-04-08T16:33:00.999Z</time></trkpt><trkpt lat="44.14512204564234" lon="10.027061106539582"><ele>560.2</ele><time>2026-04-08T16:33:01.999Z</time></trkpt><trkpt lat="44.14521640032272" lon="10.027031180868281"><ele>559.6</ele><time>2026-04-08T16:33:02.999Z</time></trkpt><trkpt lat="44.14531211701616" lon="10.027102404427172"><ele>559.0</ele><time>2026-04-08T16:33:04.999Z</time></trkpt><trkpt lat="44.14542105416797" lon="10.027191899221886"><ele>559.0</ele><time>2026-04-08T16:33:06.999Z</time></trkpt><trkpt lat="44.14549088690968" lon="10.027198889365216"><ele>559.0</ele><time>2026-04-08T16:33:07.999Z</time></trkpt><trkpt lat="44.14556777479846" lon="10.027216248612524"><ele>559.0</ele><time>2026-04-08T16:33:08.999Z</time></trkpt><trkpt lat="44.145642850594925" lon="10.02722220000595"><ele>559.0</ele><time>2026-04-08T16:33:09.999Z</time></trkpt><trkpt lat="44.14575786043957" lon="10.027279439966792"><ele>559.0</ele><time>2026-04-08T16:33:11.999Z</time></trkpt><trkpt lat="44.14583772164679" lon="10.027348419060992"><ele>559.0</ele><time>2026-04-08T16:33:13.999Z</time></trkpt><trkpt lat="44.1458968402118" lon="10.027314030648434"><ele>557.6666666666667</ele><time>2026-04-08T16:33:15.999Z</time></trkpt><trkpt lat="44.14592961860455" lon="10.027203930572712"><ele>556.3333333333334</ele><time>2026-04-08T16:33:17.999Z</time></trkpt><trkpt lat="44.14592021534803" lon="10.027071107809435"><ele>555.0</ele><time>2026-04-08T16:33:19.999Z</time></trkpt><trkpt lat="44.14588435203167" lon="10.026955210620484"><ele>553.6666666666666</ele><time>2026-04-08T16:33:21.999Z</time></trkpt><trkpt lat="44.1458741938914" lon="10.026856288739237"><ele>552.3333333333333</ele><time>2026-04-08T16:33:23.999Z</time></trkpt><trkpt lat="44.14590936528594" lon="10.026748167036356"><ele>551.0</ele><time>2026-04-08T16:33:25.999Z</time></trkpt><trkpt lat="44.14597117409364" lon="10.026623670327817"><ele>549.0</ele><time>2026-04-08T16:33:27.999Z</time></trkpt><trkpt lat="44.146036705609326" lon="10.026530423499715"><ele>547.0</ele><time>2026-04-08T16:33:29.999Z</time></trkpt><trkpt lat="44.14607920022198" lon="10.026392457549557"><ele>545.0</ele><time>2026-04-08T16:33:31.999Z</time></trkpt><trkpt lat="44.14609032154775" lon="10.026294973870693"><ele>543.0</ele><time>2026-04-08T16:33:32.999Z</time></trkpt><trkpt lat="44.14607534126533" lon="10.026198787863708"><ele>541.0</ele><time>2026-04-08T16:33:33.999Z</time></trkpt><trkpt lat="44.14605678864979" lon="10.026046048239072"><ele>541.0</ele><time>2026-04-08T16:33:35.999Z</time></trkpt><trkpt lat="44.146064341503774" lon="10.025955989452338"><ele>541.0</ele><time>2026-04-08T16:33:36.999Z</time></trkpt><trkpt lat="44.14607407922865" lon="10.0258026307695"><ele>541.0</ele><time>2026-04-08T16:33:38.999Z</time></trkpt><trkpt lat="44.14610555894811" lon="10.0256757859797"><ele>541.0</ele><time>2026-04-08T16:33:40.999Z</time></trkpt><trkpt lat="44.146183835790204" lon="10.025577710946623"><ele>541.0</ele><time>2026-04-08T16:33:42.999Z</time></trkpt><trkpt lat="44.14622628148439" lon="10.025466995286665"><ele>538.2</ele><time>2026-04-08T16:33:44.999Z</time></trkpt><trkpt lat="44.14628429242389" lon="10.025385576461774"><ele>535.4000000000001</ele><time>2026-04-08T16:33:47Z</time></trkpt><trkpt lat="44.14637069878396" lon="10.02535609205439"><ele>532.6</ele><time>2026-04-08T16:33:50Z</time></trkpt><trkpt lat="44.14647131986866" lon="10.025272198101753"><ele>529.8000000000001</ele><time>2026-04-08T16:33:52Z</time></trkpt><trkpt lat="44.14653240159288" lon="10.025198711374346"><ele>527.0</ele><time>2026-04-08T16:33:53Z</time></trkpt><trkpt lat="44.14660162848238" lon="10.025122540214724"><ele>527.0</ele><time>2026-04-08T16:33:54Z</time></trkpt><trkpt lat="44.14666723102131" lon="10.025036726702545"><ele>527.0</ele><time>2026-04-08T16:33:55Z</time></trkpt><trkpt lat="44.14672547793089" lon="10.024978984378876"><ele>527.0</ele><time>2026-04-08T16:33:56Z</time></trkpt><trkpt lat="44.146796915748816" lon="10.024899798765043"><ele>527.0</ele><time>2026-04-08T16:33:59Z</time></trkpt><trkpt lat="44.14686602129729" lon="10.024812320763235"><ele>527.0</ele><time>2026-04-08T16:34:01Z</time></trkpt><trkpt lat="44.146926739103925" lon="10.024748277044194"><ele>527.0</ele><time>2026-04-08T16:34:03Z</time></trkpt><trkpt lat="44.147025148633524" lon="10.024774131564543"><ele>527.0</ele><time>2026-04-08T16:34:05Z</time></trkpt><trkpt lat="44.14711885243481" lon="10.024829316924142"><ele>527.0</ele><time>2026-04-08T16:34:07Z</time></trkpt><trkpt lat="44.14723128861107" lon="10.024872292162064"><ele>527.0</ele><time>2026-04-08T16:34:15Z</time></trkpt><trkpt lat="44.1472948913993" lon="10.02495197631928"><ele>527.0</ele><time>2026-04-08T16:34:16Z</time></trkpt><trkpt lat="44.14737918394072" lon="10.025003312107119"><ele>527.0</ele><time>2026-04-08T16:34:17Z</time></trkpt><trkpt lat="44.14748274175113" lon="10.024977300930027"><ele>527.0</ele><time>2026-04-08T16:34:18Z</time></trkpt><trkpt lat="44.14757410796736" lon="10.02492902138388"><ele>527.0</ele><time>2026-04-08T16:34:19Z</time></trkpt><trkpt lat="44.14768080775767" lon="10.024906249580013"><ele>527.0</ele><time>2026-04-08T16:34:20Z</time></trkpt><trkpt lat="44.14779444297951" lon="10.024860143846105"><ele>527.0</ele><time>2026-04-08T16:34:21Z</time></trkpt><trkpt lat="44.14790359310291" lon="10.024822726359268"><ele>527.0</ele><time>2026-04-08T16:34:22Z</time></trkpt><trkpt lat="44.14800137460345" lon="10.02480892804155"><ele>527.0</ele><time>2026-04-08T16:34:23Z</time></trkpt><trkpt lat="44.14808752041553" lon="10.024829184256296"><ele>527.0</ele><time>2026-04-08T16:34:24Z</time></trkpt><trkpt lat="44.14815170244718" lon="10.024908047617798"><ele>527.0</ele><time>2026-04-08T16:34:25Z</time></trkpt><trkpt lat="44.148206322143295" lon="10.02500882348657"><ele>527.0</ele><time>2026-04-08T16:34:26Z</time></trkpt><trkpt lat="44.14827852432094" lon="10.025125030795545"><ele>527.0</ele><time>2026-04-08T16:34:27Z</time></trkpt><trkpt lat="44.14835592057186" lon="10.025221209392932"><ele>523.0</ele><time>2026-04-08T16:34:28Z</time></trkpt><trkpt lat="44.14842422167482" lon="10.02531968940973"><ele>519.0</ele><time>2026-04-08T16:34:29Z</time></trkpt><trkpt lat="44.14852751977212" lon="10.025353532102002"><ele>515.0</ele><time>2026-04-08T16:34:30Z</time></trkpt><trkpt lat="44.14863953623365" lon="10.025358224164167"><ele>511.0</ele><time>2026-04-08T16:34:31Z</time></trkpt><trkpt lat="44.14874987074962" lon="10.025346713335026"><ele>507.0</ele><time>2026-04-08T16:34:32Z</time></trkpt><trkpt lat="44.14885384448167" lon="10.025295722431439"><ele>507.0</ele><time>2026-04-08T16:34:33Z</time></trkpt><trkpt lat="44.148941688440004" lon="10.025209101563103"><ele>507.00000000000006</ele><time>2026-04-08T16:34:34Z</time></trkpt><trkpt lat="44.149011765608456" lon="10.025091349304779"><ele>507.00000000000006</ele><time>2026-04-08T16:34:35Z</time></trkpt><trkpt lat="44.14908098039504" lon="10.024989999267214"><ele>507.0</ele><time>2026-04-08T16:34:36Z</time></trkpt><trkpt lat="44.14913645155192" lon="10.024906353455457"><ele>507.0</ele><time>2026-04-08T16:34:37Z</time></trkpt><trkpt lat="44.149193840158055" lon="10.02485696300966"><ele>507.20000000000005</ele><time>2026-04-08T16:34:38Z</time></trkpt><trkpt lat="44.149310893957235" lon="10.02493252030103"><ele>507.40000000000003</ele><time>2026-04-08T16:34:40Z</time></trkpt><trkpt lat="44.149357346546154" lon="10.02503653895608"><ele>507.59999999999997</ele><time>2026-04-08T16:34:41Z</time></trkpt><trkpt lat="44.14943438676901" lon="10.025125239739715"><ele>507.79999999999995</ele><time>2026-04-08T16:34:42Z</time></trkpt><trkpt lat="44.14953108053666" lon="10.025201955154266"><ele>508.0</ele><time>2026-04-08T16:34:43Z</time></trkpt><trkpt lat="44.14961908121521" lon="10.025309645578965"><ele>508.00000000000006</ele><time>2026-04-08T16:34:44Z</time></trkpt><trkpt lat="44.14972406418822" lon="10.025355587613971"><ele>508.0</ele><time>2026-04-08T16:34:45Z</time></trkpt><trkpt lat="44.14980111546097" lon="10.025386537845304"><ele>508.0</ele><time>2026-04-08T16:34:46Z</time></trkpt><trkpt lat="44.14985357762998" lon="10.0254356047042"><ele>508.0</ele><time>2026-04-08T16:34:47Z</time></trkpt><trkpt lat="44.149885393084936" lon="10.0255191987987"><ele>508.00000000000006</ele><time>2026-04-08T16:34:48Z</time></trkpt><trkpt lat="44.14987884537629" lon="10.025625065671395"><ele>508.0</ele><time>2026-04-08T16:34:49Z</time></trkpt><trkpt lat="44.14985895190992" lon="10.025714986476055"><ele>505.5</ele><time>2026-04-08T16:34:50Z</time></trkpt><trkpt lat="44.149727400851134" lon="10.025899966473744"><ele>503.0</ele><time>2026-04-08T16:34:52Z</time></trkpt><trkpt lat="44.14972287780368" lon="10.025993073069452"><ele>500.5</ele><time>2026-04-08T16:34:53Z</time></trkpt><trkpt lat="44.149725145005014" lon="10.02609592908737"><ele>498.0</ele><time>2026-04-08T16:34:54Z</time></trkpt><trkpt lat="44.149774998533516" lon="10.026403096173897"><ele>498.0</ele><time>2026-04-08T16:34:55.999Z</time></trkpt><trkpt lat="44.14991990791116" lon="10.026478157362234"><ele>497.99999999999994</ele><time>2026-04-08T16:34:56.999Z</time></trkpt><trkpt lat="44.14996234533586" lon="10.026550661331735"><ele>497.99999999999994</ele><time>2026-04-08T16:34:57.999Z</time></trkpt><trkpt lat="44.150031008630876" lon="10.026618817123953"><ele>498.0</ele><time>2026-04-08T16:35:01.999Z</time></trkpt><trkpt lat="44.15008273586945" lon="10.02667016196315"><ele>498.0</ele><time>2026-04-08T16:35:03.999Z</time></trkpt><trkpt lat="44.15048948512891" lon="10.026413297452205"><ele>499.1666666666667</ele><time>2026-04-08T16:35:15.999Z</time></trkpt><trkpt lat="44.15057155697852" lon="10.026403039892418"><ele>500.33333333333337</ele><time>2026-04-08T16:35:18.999Z</time></trkpt><trkpt lat="44.15063440808018" lon="10.026424336883663"><ele>501.5</ele><time>2026-04-08T16:35:29.999Z</time></trkpt><trkpt lat="44.150700463501195" lon="10.026523415897477"><ele>502.6666666666667</ele><time>2026-04-08T16:35:33.999Z</time></trkpt><trkpt lat="44.15071852185069" lon="10.026625877035976"><ele>503.83333333333337</ele><time>2026-04-08T16:35:35.999Z</time></trkpt><trkpt lat="44.15073971956331" lon="10.02676088994655"><ele>505.0</ele><time>2026-04-08T16:35:38.999Z</time></trkpt><trkpt lat="44.1507597028215" lon="10.026844966660223"><ele>507.71428571428567</ele><time>2026-04-08T16:35:40.999Z</time></trkpt><trkpt lat="44.15082303857625" lon="10.026893916745188"><ele>510.4285714285714</ele><time>2026-04-08T16:35:44.999Z</time></trkpt><trkpt lat="44.150823718373566" lon="10.026802110209854"><ele>513.1428571428571</ele><time>2026-04-08T16:35:50.999Z</time></trkpt><trkpt lat="44.15080930690028" lon="10.026703925928524"><ele>515.8571428571429</ele><time>2026-04-08T16:35:57Z</time></trkpt><trkpt lat="44.15082420310564" lon="10.026612500808785"><ele>518.5714285714287</ele><time>2026-04-08T16:36:01Z</time></trkpt><trkpt lat="44.150841364650674" lon="10.02651889773744"><ele>521.2857142857143</ele><time>2026-04-08T16:36:05Z</time></trkpt><trkpt lat="44.15083538458437" lon="10.02642649852232"><ele>524.0</ele><time>2026-04-08T16:36:11Z</time></trkpt><trkpt lat="44.150833190139515" lon="10.026337735292305"><ele>525.3333333333333</ele><time>2026-04-08T16:36:14Z</time></trkpt><trkpt lat="44.15086628744292" lon="10.026201381112692"><ele>526.6666666666666</ele><time>2026-04-08T16:36:17Z</time></trkpt><trkpt lat="44.1508966170628" lon="10.026108737725767"><ele>528.0</ele><time>2026-04-08T16:36:20Z</time></trkpt><trkpt lat="44.150940491075886" lon="10.026011586492977"><ele>529.3333333333334</ele><time>2026-04-08T16:36:22Z</time></trkpt><trkpt lat="44.1509810554742" lon="10.025929852733846"><ele>530.6666666666667</ele><time>2026-04-08T16:36:24Z</time></trkpt><trkpt lat="44.15102790992447" lon="10.025848762152654"><ele>532.0</ele><time>2026-04-08T16:36:26Z</time></trkpt><trkpt lat="44.151103266799325" lon="10.025832624542831"><ele>532.0</ele><time>2026-04-08T16:36:31Z</time></trkpt><trkpt lat="44.151173308073986" lon="10.025846849694668"><ele>532.0</ele><time>2026-04-08T16:36:39Z</time></trkpt><trkpt lat="44.15111052079029" lon="10.025868408791112"><ele>532.0</ele><time>2026-04-08T16:36:51Z</time></trkpt><trkpt lat="44.15105497087231" lon="10.025971341177764"><ele>532.0</ele><time>2026-04-08T16:36:55Z</time></trkpt><trkpt lat="44.15103734389717" lon="10.026065797953308"><ele>532.0</ele><time>2026-04-08T16:36:57Z</time></trkpt><trkpt lat="44.15103841773491" lon="10.02615591809443"><ele>532.0</ele><time>2026-04-08T16:37:12.999Z</time></trkpt><trkpt lat="44.151077570112356" lon="10.026243377504965"><ele>532.0</ele><time>2026-04-08T16:37:16.999Z</time></trkpt><trkpt lat="44.15110353209888" lon="10.026349171382837"><ele>532.0</ele><time>2026-04-08T16:37:20.999Z</time></trkpt><trkpt lat="44.15113632774233" lon="10.026446346839577"><ele>532.0</ele><time>2026-04-08T16:37:26.999Z</time></trkpt><trkpt lat="44.15117565754287" lon="10.026533569140446"><ele>532.0</ele><time>2026-04-08T16:37:31.999Z</time></trkpt><trkpt lat="44.151193213680614" lon="10.026637655962343"><ele>532.0</ele><time>2026-04-08T16:37:36.999Z</time></trkpt><trkpt lat="44.151215371124586" lon="10.026756772162699"><ele>532.0</ele><time>2026-04-08T16:37:40.999Z</time></trkpt><trkpt lat="44.15124879147798" lon="10.026856951823781"><ele>532.0</ele><time>2026-04-08T16:37:44.999Z</time></trkpt><trkpt lat="44.15127992776552" lon="10.026951437276752"><ele>530.8571428571429</ele><time>2026-04-08T16:37:49.999Z</time></trkpt><trkpt lat="44.15130083368485" lon="10.027036914095934"><ele>529.7142857142858</ele><time>2026-04-08T16:38:08Z</time></trkpt><trkpt lat="44.15132450774114" lon="10.027122433854545"><ele>528.5714285714286</ele><time>2026-04-08T16:38:47Z</time></trkpt><trkpt lat="44.15136938253887" lon="10.027195908788938"><ele>527.4285714285714</ele><time>2026-04-08T16:38:56Z</time></trkpt><trkpt lat="44.151444669901075" lon="10.02717772770627"><ele>526.2857142857143</ele><time>2026-04-08T16:39:35.999Z</time></trkpt><trkpt lat="44.15143217034558" lon="10.027077226884083"><ele>525.1428571428571</ele><time>2026-04-08T16:39:57.999Z</time></trkpt><trkpt lat="44.15142508412687" lon="10.026960023367804"><ele>524.0</ele><time>2026-04-08T16:40:01.999Z</time></trkpt><trkpt lat="44.151440598542806" lon="10.026856726036744"><ele>524.0</ele><time>2026-04-08T16:40:12Z</time></trkpt><trkpt lat="44.15144963780758" lon="10.026758548576773"><ele>524.0</ele><time>2026-04-08T16:40:20Z</time></trkpt><trkpt lat="44.15146323000826" lon="10.026662265799068"><ele>524.0</ele><time>2026-04-08T16:40:23Z</time></trkpt><trkpt lat="44.15147513762347" lon="10.026564835852838"><ele>524.0</ele><time>2026-04-08T16:40:25Z</time></trkpt><trkpt lat="44.15148782457218" lon="10.026467858862018"><ele>524.0</ele><time>2026-04-08T16:40:30Z</time></trkpt><trkpt lat="44.151503212571406" lon="10.02636476598844"><ele>524.0</ele><time>2026-04-08T16:40:34Z</time></trkpt><trkpt lat="44.15154031958004" lon="10.026276800247144"><ele>524.0</ele><time>2026-04-08T16:40:36Z</time></trkpt><trkpt lat="44.15160247013927" lon="10.026230141372"><ele>529.7142857142858</ele><time>2026-04-08T16:40:38Z</time></trkpt><trkpt lat="44.15167116649792" lon="10.026178368871138"><ele>535.4285714285714</ele><time>2026-04-08T16:40:40Z</time></trkpt><trkpt lat="44.15173005755045" lon="10.026130847323047"><ele>541.1428571428571</ele><time>2026-04-08T16:40:42Z</time></trkpt><trkpt lat="44.15179750046697" lon="10.026146448546466"><ele>546.8571428571429</ele><time>2026-04-08T16:40:45Z</time></trkpt><trkpt lat="44.15184003816452" lon="10.026225066721956"><ele>552.5714285714286</ele><time>2026-04-08T16:40:50Z</time></trkpt><trkpt lat="44.15191725104543" lon="10.026235913049513"><ele>558.2857142857143</ele><time>2026-04-08T16:40:54Z</time></trkpt><trkpt lat="44.151989160105956" lon="10.02620692149899"><ele>564.0</ele><time>2026-04-08T16:40:57Z</time></trkpt><trkpt lat="44.152064096306106" lon="10.026225818027685"><ele>564.0</ele><time>2026-04-08T16:41:00Z</time></trkpt><trkpt lat="44.152125628729486" lon="10.02625209255839"><ele>564.0</ele><time>2026-04-08T16:41:02Z</time></trkpt><trkpt lat="44.15219416821243" lon="10.026204042934193"><ele>564.0</ele><time>2026-04-08T16:41:10.999Z</time></trkpt><trkpt lat="44.152251695833364" lon="10.026160392871459"><ele>564.0</ele><time>2026-04-08T16:41:12.999Z</time></trkpt><trkpt lat="44.15234031730426" lon="10.026071217882077"><ele>564.0</ele><time>2026-04-08T16:41:15.999Z</time></trkpt><trkpt lat="44.152398108698115" lon="10.025967047913298"><ele>564.0</ele><time>2026-04-08T16:41:17.999Z</time></trkpt><trkpt lat="44.152457569571965" lon="10.025903245534852"><ele>570.1666666666666</ele><time>2026-04-08T16:41:19.999Z</time></trkpt><trkpt lat="44.15253335076082" lon="10.025798118333128"><ele>576.3333333333334</ele><time>2026-04-08T16:41:22.999Z</time></trkpt><trkpt lat="44.152558458755585" lon="10.025666806624995"><ele>582.5</ele><time>2026-04-08T16:41:24.999Z</time></trkpt><trkpt lat="44.15259118809565" lon="10.025557769522742"><ele>588.6666666666667</ele><time>2026-04-08T16:41:27.999Z</time></trkpt><trkpt lat="44.1526195610789" lon="10.025473323888004"><ele>594.8333333333334</ele><time>2026-04-08T16:41:34.999Z</time></trkpt><trkpt lat="44.15263181351312" lon="10.025350759723757"><ele>601.0</ele><time>2026-04-08T16:41:46.999Z</time></trkpt><trkpt lat="44.1526428342451" lon="10.025252532892962"><ele>601.0</ele><time>2026-04-08T16:41:48.999Z</time></trkpt><trkpt lat="44.15265127617937" lon="10.02515059448477"><ele>601.0</ele><time>2026-04-08T16:41:50.999Z</time></trkpt><trkpt lat="44.15266783599737" lon="10.025028919564893"><ele>601.0</ele><time>2026-04-08T16:41:52.999Z</time></trkpt><trkpt lat="44.15267900691359" lon="10.024886722132608"><ele>601.0</ele><time>2026-04-08T16:41:54.999Z</time></trkpt><trkpt lat="44.152639790653666" lon="10.024718526682324"><ele>601.0</ele><time>2026-04-08T16:41:56.999Z</time></trkpt><trkpt lat="44.1526155017383" lon="10.024633483900322"><ele>601.3333333333334</ele><time>2026-04-08T16:41:57.999Z</time></trkpt><trkpt lat="44.15258834276777" lon="10.024510234803193"><ele>601.6666666666667</ele><time>2026-04-08T16:41:59.999Z</time></trkpt><trkpt lat="44.15258759572565" lon="10.024398155429024"><ele>602.0</ele><time>2026-04-08T16:42:01.999Z</time></trkpt><trkpt lat="44.15257083479867" lon="10.024220399542191"><ele>602.3333333333334</ele><time>2026-04-08T16:42:03.999Z</time></trkpt><trkpt lat="44.15255360864348" lon="10.024120228529679"><ele>602.6666666666666</ele><time>2026-04-08T16:42:04.999Z</time></trkpt><trkpt lat="44.15253698292158" lon="10.024021486469216"><ele>603.0</ele><time>2026-04-08T16:42:06.999Z</time></trkpt><trkpt lat="44.15255692727477" lon="10.023912433176836"><ele>603.0</ele><time>2026-04-08T16:42:09Z</time></trkpt><trkpt lat="44.152604735793645" lon="10.023785206314844"><ele>603.0</ele><time>2026-04-08T16:42:11Z</time></trkpt><trkpt lat="44.152604823086484" lon="10.02369260002861"><ele>603.0</ele><time>2026-04-08T16:42:13Z</time></trkpt><trkpt lat="44.15267188117199" lon="10.02362854694305"><ele>603.0</ele><time>2026-04-08T16:42:16Z</time></trkpt><trkpt lat="44.15274909818666" lon="10.02357416235312"><ele>603.0</ele><time>2026-04-08T16:42:18Z</time></trkpt><trkpt lat="44.15279571559023" lon="10.023494413685853"><ele>603.0</ele><time>2026-04-08T16:42:19Z</time></trkpt><trkpt lat="44.15284513995228" lon="10.02342375196926"><ele>603.0</ele><time>2026-04-08T16:42:20Z</time></trkpt><trkpt lat="44.15295854030671" lon="10.023359685673503"><ele>603.0</ele><time>2026-04-08T16:42:22Z</time></trkpt><trkpt lat="44.15303355133703" lon="10.023279617886104"><ele>603.0</ele><time>2026-04-08T16:42:25Z</time></trkpt><trkpt lat="44.15310180660593" lon="10.0231976669706"><ele>603.0</ele><time>2026-04-08T16:42:27Z</time></trkpt><trkpt lat="44.15317012481336" lon="10.023103909449341"><ele>603.0</ele><time>2026-04-08T16:42:29Z</time></trkpt><trkpt lat="44.15324300628719" lon="10.022992559862738"><ele>603.3333333333334</ele><time>2026-04-08T16:42:31Z</time></trkpt><trkpt lat="44.15329363257586" lon="10.02293347222875"><ele>603.6666666666666</ele><time>2026-04-08T16:42:32Z</time></trkpt><trkpt lat="44.15334628293726" lon="10.022861393073198"><ele>604.0</ele><time>2026-04-08T16:42:33Z</time></trkpt><trkpt lat="44.15339623345514" lon="10.022801960148376"><ele>604.3333333333333</ele><time>2026-04-08T16:42:34Z</time></trkpt><trkpt lat="44.15342097470404" lon="10.022678713291306"><ele>604.6666666666666</ele><time>2026-04-08T16:42:35Z</time></trkpt><trkpt lat="44.15347207477321" lon="10.022546703871352"><ele>605.0</ele><time>2026-04-08T16:42:37Z</time></trkpt><trkpt lat="44.153491231659615" lon="10.022445344067657"><ele>603.8333333333333</ele><time>2026-04-08T16:42:39Z</time></trkpt><trkpt lat="44.153516149272676" lon="10.022313577484073"><ele>602.6666666666666</ele><time>2026-04-08T16:42:41Z</time></trkpt><trkpt lat="44.153542431428875" lon="10.022188756299746"><ele>601.5</ele><time>2026-04-08T16:42:43Z</time></trkpt><trkpt lat="44.15357336959874" lon="10.022064527546494"><ele>600.3333333333334</ele><time>2026-04-08T16:42:45Z</time></trkpt><trkpt lat="44.15359430013409" lon="10.021974497605273"><ele>599.1666666666667</ele><time>2026-04-08T16:42:47Z</time></trkpt><trkpt lat="44.15362030584141" lon="10.02185462695196"><ele>598.0</ele><time>2026-04-08T16:42:50Z</time></trkpt><trkpt lat="44.15365144797285" lon="10.021759669026991"><ele>598.0</ele><time>2026-04-08T16:42:52Z</time></trkpt><trkpt lat="44.15371453617265" lon="10.021706672540256"><ele>598.0</ele><time>2026-04-08T16:42:55Z</time></trkpt><trkpt lat="44.153781804130894" lon="10.021650398855297"><ele>598.0</ele><time>2026-04-08T16:42:57Z</time></trkpt><trkpt lat="44.153836237719" lon="10.021581245965875"><ele>598.0</ele><time>2026-04-08T16:42:59Z</time></trkpt><trkpt lat="44.15384585463568" lon="10.021491836737201"><ele>598.0</ele><time>2026-04-08T16:43:02Z</time></trkpt><trkpt lat="44.1538151242761" lon="10.021385405902368"><ele>598.0</ele><time>2026-04-08T16:43:05Z</time></trkpt><trkpt lat="44.15379504841053" lon="10.021300285874021"><ele>598.0</ele><time>2026-04-08T16:43:09Z</time></trkpt><trkpt lat="44.15377052736502" lon="10.021214671498846"><ele>599.5</ele><time>2026-04-08T16:43:12Z</time></trkpt><trkpt lat="44.153788877818144" lon="10.021112988689106"><ele>601.0</ele><time>2026-04-08T16:43:14.999Z</time></trkpt><trkpt lat="44.15384781782298" lon="10.021068203254668"><ele>602.5</ele><time>2026-04-08T16:43:17.999Z</time></trkpt><trkpt lat="44.153912250503225" lon="10.020997573107342"><ele>604.0</ele><time>2026-04-08T16:43:20.999Z</time></trkpt><trkpt lat="44.153933539439414" lon="10.020893970942625"><ele>605.5</ele><time>2026-04-08T16:43:21.999Z</time></trkpt><trkpt lat="44.15398357175662" lon="10.020774830205426"><ele>607.0</ele><time>2026-04-08T16:43:23.999Z</time></trkpt><trkpt lat="44.1539803176964" lon="10.020633643937956"><ele>607.8333333333334</ele><time>2026-04-08T16:43:25.999Z</time></trkpt><trkpt lat="44.15399976911699" lon="10.020526073478244"><ele>608.6666666666667</ele><time>2026-04-08T16:43:30.999Z</time></trkpt><trkpt lat="44.15406291193301" lon="10.020483950569597"><ele>609.5</ele><time>2026-04-08T16:43:31.999Z</time></trkpt><trkpt lat="44.1541436816624" lon="10.02043950647288"><ele>610.3333333333334</ele><time>2026-04-08T16:43:32.999Z</time></trkpt><trkpt lat="44.15422194602597" lon="10.020477999218866"><ele>611.1666666666666</ele><time>2026-04-08T16:43:34.999Z</time></trkpt><trkpt lat="44.1542913581524" lon="10.020486258036277"><ele>612.0</ele><time>2026-04-08T16:43:37.999Z</time></trkpt><trkpt lat="44.15435663540754" lon="10.02047421278135"><ele>614.2</ele><time>2026-04-08T16:43:38.999Z</time></trkpt><trkpt lat="44.15444256690213" lon="10.020487088557847"><ele>616.4000000000001</ele><time>2026-04-08T16:43:40.999Z</time></trkpt><trkpt lat="44.154483152506614" lon="10.020408988973806"><ele>618.5999999999999</ele><time>2026-04-08T16:43:43.999Z</time></trkpt><trkpt lat="44.154470738217846" lon="10.020297873090822"><ele>620.8</ele><time>2026-04-08T16:43:45.999Z</time></trkpt><trkpt lat="44.15447898280359" lon="10.020117720420735"><ele>623.0</ele><time>2026-04-08T16:43:47.999Z</time></trkpt><trkpt lat="44.154486216698174" lon="10.019996084241578"><ele>622.0</ele><time>2026-04-08T16:43:48.999Z</time></trkpt><trkpt lat="44.15450416952183" lon="10.019908477481549"><ele>621.0</ele><time>2026-04-08T16:43:49.999Z</time></trkpt><trkpt lat="44.154560929077675" lon="10.01980844112527"><ele>620.0</ele><time>2026-04-08T16:43:51.999Z</time></trkpt><trkpt lat="44.154611407723365" lon="10.019713999304336"><ele>619.0</ele><time>2026-04-08T16:43:54.999Z</time></trkpt><trkpt lat="44.15463577422972" lon="10.019611010531653"><ele>618.0</ele><time>2026-04-08T16:43:58.999Z</time></trkpt><trkpt lat="44.15464044737349" lon="10.019495631289091"><ele>617.0</ele><time>2026-04-08T16:44:01.999Z</time></trkpt><trkpt lat="44.15466577279694" lon="10.019401447444855"><ele>617.0</ele><time>2026-04-08T16:44:04.999Z</time></trkpt><trkpt lat="44.154724517162066" lon="10.019324715580352"><ele>617.0</ele><time>2026-04-08T16:44:07.999Z</time></trkpt><trkpt lat="44.154774249066726" lon="10.019251646538502"><ele>617.0</ele><time>2026-04-08T16:44:09.999Z</time></trkpt><trkpt lat="44.15482553663942" lon="10.019160797333294"><ele>617.0</ele><time>2026-04-08T16:44:11.999Z</time></trkpt><trkpt lat="44.154841879095066" lon="10.019034789626009"><ele>617.0</ele><time>2026-04-08T16:44:14Z</time></trkpt><trkpt lat="44.15489208397127" lon="10.018930315772925"><ele>617.0</ele><time>2026-04-08T16:44:16Z</time></trkpt><trkpt lat="44.154946866055575" lon="10.018846571494455"><ele>613.6666666666666</ele><time>2026-04-08T16:44:18Z</time></trkpt><trkpt lat="44.15500558023443" lon="10.018804785090266"><ele>610.3333333333333</ele><time>2026-04-08T16:44:20Z</time></trkpt><trkpt lat="44.15507658356344" lon="10.018777118303296"><ele>607.0</ele><time>2026-04-08T16:44:23Z</time></trkpt><trkpt lat="44.155161692464524" lon="10.018755386881123"><ele>603.6666666666666</ele><time>2026-04-08T16:44:25Z</time></trkpt><trkpt lat="44.155219813031344" lon="10.018690248968893"><ele>600.3333333333334</ele><time>2026-04-08T16:44:28Z</time></trkpt><trkpt lat="44.15528899224428" lon="10.018621213075976"><ele>597.0</ele><time>2026-04-08T16:44:31Z</time></trkpt><trkpt lat="44.15537205805373" lon="10.018576360876876"><ele>597.0</ele><time>2026-04-08T16:44:35Z</time></trkpt><trkpt lat="44.15546781626277" lon="10.018645168324127"><ele>597.0</ele><time>2026-04-08T16:45:00Z</time></trkpt><trkpt lat="44.15551838442394" lon="10.01857534141257"><ele>597.0</ele><time>2026-04-08T16:45:10Z</time></trkpt><trkpt lat="44.15559632637513" lon="10.01855602324298"><ele>597.0</ele><time>2026-04-08T16:45:28.999Z</time></trkpt><trkpt lat="44.15565531807868" lon="10.018588890261771"><ele>597.0</ele><time>2026-04-08T16:45:30.999Z</time></trkpt><trkpt lat="44.15576206093265" lon="10.01855673550845"><ele>597.0</ele><time>2026-04-08T16:45:32.999Z</time></trkpt><trkpt lat="44.155865966908074" lon="10.018533605430946"><ele>592.5</ele><time>2026-04-08T16:45:34.999Z</time></trkpt><trkpt lat="44.15597844898333" lon="10.018569171398395"><ele>588.0</ele><time>2026-04-08T16:45:36.999Z</time></trkpt><trkpt lat="44.15606810624693" lon="10.018600888638597"><ele>583.5</ele><time>2026-04-08T16:45:38.999Z</time></trkpt><trkpt lat="44.15615745261475" lon="10.018616628808308"><ele>579.0</ele><time>2026-04-08T16:45:40.999Z</time></trkpt><trkpt lat="44.15621368595108" lon="10.01868465094907"><ele>574.5</ele><time>2026-04-08T16:45:43.999Z</time></trkpt><trkpt lat="44.156237918266314" lon="10.018773339042786"><ele>570.0</ele><time>2026-04-08T16:45:46.999Z</time></trkpt><trkpt lat="44.15628405280678" lon="10.018877784853993"><ele>570.0</ele><time>2026-04-08T16:45:48.999Z</time></trkpt><trkpt lat="44.15631943621456" lon="10.01896146680136"><ele>570.0</ele><time>2026-04-08T16:45:50.999Z</time></trkpt><trkpt lat="44.156362136543926" lon="10.019036217919481"><ele>570.0</ele><time>2026-04-08T16:45:52.999Z</time></trkpt><trkpt lat="44.15639997882267" lon="10.019120702930955"><ele>570.0</ele><time>2026-04-08T16:45:54.999Z</time></trkpt><trkpt lat="44.15643722925974" lon="10.019192929626437"><ele>570.0</ele><time>2026-04-08T16:45:56.999Z</time></trkpt><trkpt lat="44.15646029899083" lon="10.019295266776288"><ele>570.0</ele><time>2026-04-08T16:45:58.999Z</time></trkpt><trkpt lat="44.156483260451985" lon="10.0194048376595"><ele>570.0</ele><time>2026-04-08T16:46:00.999Z</time></trkpt><trkpt lat="44.156498656890435" lon="10.019536838435146"><ele>569.6666666666666</ele><time>2026-04-08T16:46:02.999Z</time></trkpt><trkpt lat="44.15650246227294" lon="10.01966593189945"><ele>569.3333333333334</ele><time>2026-04-08T16:46:04.999Z</time></trkpt><trkpt lat="44.15651301920648" lon="10.019790558696313"><ele>569.0</ele><time>2026-04-08T16:46:06.999Z</time></trkpt><trkpt lat="44.15651508243831" lon="10.019921828040461"><ele>568.6666666666667</ele><time>2026-04-08T16:46:08.999Z</time></trkpt><trkpt lat="44.15652576403943" lon="10.020048641480788"><ele>568.3333333333334</ele><time>2026-04-08T16:46:10.999Z</time></trkpt><trkpt lat="44.15652414260764" lon="10.02015483139435"><ele>568.0</ele><time>2026-04-08T16:46:12.999Z</time></trkpt><trkpt lat="44.156506995226465" lon="10.020257524583204"><ele>567.6666666666667</ele><time>2026-04-08T16:46:17.999Z</time></trkpt><trkpt lat="44.15652046344119" lon="10.02038546445309"><ele>567.3333333333334</ele><time>2026-04-08T16:46:31Z</time></trkpt><trkpt lat="44.15648087382816" lon="10.02047429548405"><ele>567.0</ele><time>2026-04-08T16:46:34Z</time></trkpt><trkpt lat="44.15642442447559" lon="10.020539752750366"><ele>566.6666666666666</ele><time>2026-04-08T16:46:37Z</time></trkpt><trkpt lat="44.156348368425526" lon="10.020598203912995"><ele>566.3333333333333</ele><time>2026-04-08T16:46:40Z</time></trkpt><trkpt lat="44.15626805245972" lon="10.020586897037086"><ele>566.0</ele><time>2026-04-08T16:46:42Z</time></trkpt><trkpt lat="44.15619801146083" lon="10.020614793655636"><ele>566.0</ele><time>2026-04-08T16:46:46Z</time></trkpt><trkpt lat="44.15621020275408" lon="10.020705650773335"><ele>566.0</ele><time>2026-04-08T16:46:58Z</time></trkpt><trkpt lat="44.156242793173405" lon="10.020788797687898"><ele>566.0</ele><time>2026-04-08T16:47:02Z</time></trkpt><trkpt lat="44.156267864053554" lon="10.020871682444294"><ele>566.0</ele><time>2026-04-08T16:47:05Z</time></trkpt><trkpt lat="44.15630724087253" lon="10.020952658465546"><ele>566.0</ele><time>2026-04-08T16:47:08Z</time></trkpt><trkpt lat="44.15638063967129" lon="10.020998943446799"><ele>566.0</ele><time>2026-04-08T16:47:11Z</time></trkpt><trkpt lat="44.15645038119532" lon="10.021031058652865"><ele>566.0</ele><time>2026-04-08T16:47:13Z</time></trkpt><trkpt lat="44.15654705808942" lon="10.02108628219891"><ele>561.0</ele><time>2026-04-08T16:47:15Z</time></trkpt><trkpt lat="44.15663051687537" lon="10.021190719106526"><ele>556.0</ele><time>2026-04-08T16:47:17Z</time></trkpt><trkpt lat="44.15670899808627" lon="10.02130773414186"><ele>551.0</ele><time>2026-04-08T16:47:19Z</time></trkpt><trkpt lat="44.156799154342096" lon="10.021395496833"><ele>546.0</ele><time>2026-04-08T16:47:21Z</time></trkpt><trkpt lat="44.15688092330619" lon="10.02146801664579"><ele>541.0</ele><time>2026-04-08T16:47:22.999Z</time></trkpt><trkpt lat="44.15694421432326" lon="10.021554419712093"><ele>541.0</ele><time>2026-04-08T16:47:24.999Z</time></trkpt><trkpt lat="44.156985784034184" lon="10.021639787272532"><ele>541.0</ele><time>2026-04-08T16:47:26.999Z</time></trkpt><trkpt lat="44.15701757179672" lon="10.02174045401429"><ele>541.0</ele><time>2026-04-08T16:47:28.999Z</time></trkpt><trkpt lat="44.15704728110635" lon="10.021837130595358"><ele>541.0</ele><time>2026-04-08T16:47:30.999Z</time></trkpt><trkpt lat="44.15707115638614" lon="10.021943605480457"><ele>541.0</ele><time>2026-04-08T16:47:32.999Z</time></trkpt><trkpt lat="44.15710780646263" lon="10.022092959767498"><ele>541.0</ele><time>2026-04-08T16:47:34.999Z</time></trkpt><trkpt lat="44.15714242182902" lon="10.02219721828725"><ele>541.4</ele><time>2026-04-08T16:47:36.999Z</time></trkpt><trkpt lat="44.15716937971802" lon="10.022319018645474"><ele>541.8</ele><time>2026-04-08T16:47:38.999Z</time></trkpt><trkpt lat="44.1572783900971" lon="10.022404156932874"><ele>542.1999999999999</ele><time>2026-04-08T16:47:40.999Z</time></trkpt><trkpt lat="44.1573731412344" lon="10.022484643346976"><ele>542.6</ele><time>2026-04-08T16:47:42.999Z</time></trkpt><trkpt lat="44.15741758099359" lon="10.022601577594576"><ele>543.0</ele><time>2026-04-08T16:47:44.999Z</time></trkpt><trkpt lat="44.157463433215746" lon="10.022698652198535"><ele>540.0</ele><time>2026-04-08T16:47:46.999Z</time></trkpt><trkpt lat="44.15750344126359" lon="10.022783604985241"><ele>537.0</ele><time>2026-04-08T16:47:48.999Z</time></trkpt><trkpt lat="44.157541469609214" lon="10.022870951081595"><ele>534.0</ele><time>2026-04-08T16:47:51.999Z</time></trkpt><trkpt lat="44.15760172580117" lon="10.022972868801762"><ele>531.0</ele><time>2026-04-08T16:47:53.999Z</time></trkpt><trkpt lat="44.15763218062988" lon="10.023074509842015"><ele>528.0</ele><time>2026-04-08T16:47:55.999Z</time></trkpt><trkpt lat="44.15766310497596" lon="10.023166512184028"><ele>525.0</ele><time>2026-04-08T16:47:57.999Z</time></trkpt><trkpt lat="44.15769603922463" lon="10.023246255021428"><ele>527.1666666666666</ele><time>2026-04-08T16:47:59.999Z</time></trkpt><trkpt lat="44.15772594405386" lon="10.023346637253477"><ele>529.3333333333334</ele><time>2026-04-08T16:48:01.999Z</time></trkpt><trkpt lat="44.15774678889652" lon="10.023452370669888"><ele>531.5</ele><time>2026-04-08T16:48:04.999Z</time></trkpt><trkpt lat="44.15777816369494" lon="10.023540389399248"><ele>533.6666666666667</ele><time>2026-04-08T16:48:07.999Z</time></trkpt><trkpt lat="44.15782470855548" lon="10.023634904424854"><ele>535.8333333333334</ele><time>2026-04-08T16:48:10.999Z</time></trkpt><trkpt lat="44.15787255682477" lon="10.02373747629344"><ele>538.0</ele><time>2026-04-08T16:48:13.999Z</time></trkpt><trkpt lat="44.15790959313838" lon="10.023831130200504"><ele>538.0</ele><time>2026-04-08T16:48:16.999Z</time></trkpt><trkpt lat="44.15795392530677" lon="10.023948831702555"><ele>538.0</ele><time>2026-04-08T16:48:19.999Z</time></trkpt><trkpt lat="44.15796541865176" lon="10.02405078766124"><ele>538.0</ele><time>2026-04-08T16:48:23.999Z</time></trkpt><trkpt lat="44.15800075508751" lon="10.02414384738734"><ele>538.0</ele><time>2026-04-08T16:48:26Z</time></trkpt><trkpt lat="44.158043484340986" lon="10.024263258654203"><ele>538.0</ele><time>2026-04-08T16:48:29Z</time></trkpt><trkpt lat="44.15806930038647" lon="10.024352285708584"><ele>538.0</ele><time>2026-04-08T16:48:31Z</time></trkpt><trkpt lat="44.158098165592115" lon="10.024430478733587"><ele>538.6666666666667</ele><time>2026-04-08T16:48:33Z</time></trkpt><trkpt lat="44.15811087733732" lon="10.02454680204924"><ele>539.3333333333334</ele><time>2026-04-08T16:48:35Z</time></trkpt><trkpt lat="44.15814335629719" lon="10.024667624796114"><ele>540.0</ele><time>2026-04-08T16:48:37Z</time></trkpt><trkpt lat="44.15817603864711" lon="10.024802492163172"><ele>540.6666666666666</ele><time>2026-04-08T16:48:39Z</time></trkpt><trkpt lat="44.15819141206339" lon="10.024890300235537"><ele>541.3333333333333</ele><time>2026-04-08T16:48:41Z</time></trkpt><trkpt lat="44.15817699811889" lon="10.025002430794146"><ele>542.0</ele><time>2026-04-08T16:48:44Z</time></trkpt><trkpt lat="44.15816024570519" lon="10.025118794629408"><ele>542.0</ele><time>2026-04-08T16:48:46Z</time></trkpt><trkpt lat="44.158134418172395" lon="10.025258185801595"><ele>542.0</ele><time>2026-04-08T16:48:48Z</time></trkpt><trkpt lat="44.15809773040588" lon="10.025385697556775"><ele>542.0</ele><time>2026-04-08T16:48:50Z</time></trkpt><trkpt lat="44.15806568363969" lon="10.025493725157363"><ele>542.0</ele><time>2026-04-08T16:48:52Z</time></trkpt><trkpt lat="44.15803673198495" lon="10.025614825839526"><ele>542.0</ele><time>2026-04-08T16:48:54Z</time></trkpt><trkpt lat="44.15801481338152" lon="10.025871139032672"><ele>540.0</ele><time>2026-04-08T16:48:55Z</time></trkpt><trkpt lat="44.15800096746378" lon="10.025974110780078"><ele>538.0</ele><time>2026-04-08T16:48:56Z</time></trkpt><trkpt lat="44.157960835986394" lon="10.026137307981696"><ele>536.0</ele><time>2026-04-08T16:48:58Z</time></trkpt><trkpt lat="44.15792275237121" lon="10.026211059732063"><ele>534.0</ele><time>2026-04-08T16:48:59Z</time></trkpt><trkpt lat="44.157854322797974" lon="10.026315996555246"><ele>532.0</ele><time>2026-04-08T16:49:01Z</time></trkpt><trkpt lat="44.157827509185395" lon="10.026422510648858"><ele>530.0</ele><time>2026-04-08T16:49:03Z</time></trkpt><trkpt lat="44.157857354529376" lon="10.026532333066774"><ele>530.0</ele><time>2026-04-08T16:49:06Z</time></trkpt><trkpt lat="44.15785975348923" lon="10.026630554906887"><ele>530.0</ele><time>2026-04-08T16:49:08Z</time></trkpt><trkpt lat="44.15787472469296" lon="10.026768972415425"><ele>530.0</ele><time>2026-04-08T16:49:10Z</time></trkpt><trkpt lat="44.157912552104264" lon="10.026880942602274"><ele>530.0</ele><time>2026-04-08T16:49:12Z</time></trkpt><trkpt lat="44.15798819560687" lon="10.026820975924547"><ele>530.0</ele><time>2026-04-08T16:49:17Z</time></trkpt><trkpt lat="44.15805310517471" lon="10.026897670142642"><ele>530.0</ele><time>2026-04-08T16:49:27.999Z</time></trkpt><trkpt lat="44.15812272908696" lon="10.0269566927127"><ele>528.1666666666666</ele><time>2026-04-08T16:49:29.999Z</time></trkpt><trkpt lat="44.1581712075939" lon="10.027035857041293"><ele>526.3333333333333</ele><time>2026-04-08T16:49:31.999Z</time></trkpt><trkpt lat="44.158206563867324" lon="10.027140711448562"><ele>524.5</ele><time>2026-04-08T16:49:33.999Z</time></trkpt><trkpt lat="44.15826156092829" lon="10.02726560498634"><ele>522.6666666666666</ele><time>2026-04-08T16:49:35.999Z</time></trkpt><trkpt lat="44.15829499038612" lon="10.027354183812637"><ele>520.8333333333334</ele><time>2026-04-08T16:49:37.999Z</time></trkpt><trkpt lat="44.158325279033704" lon="10.027442243952411"><ele>519.0</ele><time>2026-04-08T16:49:39.999Z</time></trkpt><trkpt lat="44.15839320009711" lon="10.027537325523452"><ele>513.5</ele><time>2026-04-08T16:49:43.999Z</time></trkpt><trkpt lat="44.158453117101644" lon="10.027581651501528"><ele>508.0</ele><time>2026-04-08T16:49:45.999Z</time></trkpt><trkpt lat="44.158476543685055" lon="10.027703472819548"><ele>502.5</ele><time>2026-04-08T16:49:48.999Z</time></trkpt><trkpt lat="44.158482889232744" lon="10.027815215736085"><ele>497.0</ele><time>2026-04-08T16:49:49.999Z</time></trkpt><trkpt lat="44.15849880609857" lon="10.027906682309316"><ele>491.5</ele><time>2026-04-08T16:49:51.999Z</time></trkpt><trkpt lat="44.15851861225989" lon="10.027993125656351"><ele>486.0</ele><time>2026-04-08T16:49:53.999Z</time></trkpt><trkpt lat="44.15856345081575" lon="10.028092678677558"><ele>486.0</ele><time>2026-04-08T16:49:56.999Z</time></trkpt><trkpt lat="44.158588821140526" lon="10.028175587357834"><ele>486.0</ele><time>2026-04-08T16:49:58.999Z</time></trkpt><trkpt lat="44.15863872351142" lon="10.028276918154708"><ele>486.0</ele><time>2026-04-08T16:50:00.999Z</time></trkpt><trkpt lat="44.158674659686966" lon="10.028366040415273"><ele>486.0</ele><time>2026-04-08T16:50:02.999Z</time></trkpt><trkpt lat="44.15868618809087" lon="10.02845648400506"><ele>486.0</ele><time>2026-04-08T16:50:04.999Z</time></trkpt><trkpt lat="44.15870234769794" lon="10.028559531975272"><ele>486.0</ele><time>2026-04-08T16:50:06.999Z</time></trkpt><trkpt lat="44.15872814196435" lon="10.028686741939516"><ele>485.6</ele><time>2026-04-08T16:50:09.999Z</time></trkpt><trkpt lat="44.15877249335783" lon="10.028803960279946"><ele>485.20000000000005</ele><time>2026-04-08T16:50:12.999Z</time></trkpt><trkpt lat="44.15885210796137" lon="10.028899321171858"><ele>484.79999999999995</ele><time>2026-04-08T16:50:14.999Z</time></trkpt><trkpt lat="44.15889234114133" lon="10.029003714302934"><ele>484.4</ele><time>2026-04-08T16:50:16.999Z</time></trkpt><trkpt lat="44.158966879043156" lon="10.029079760305446"><ele>484.0</ele><time>2026-04-08T16:50:20.999Z</time></trkpt><trkpt lat="44.159028088321634" lon="10.029193993785336"><ele>484.0</ele><time>2026-04-08T16:50:22.999Z</time></trkpt><trkpt lat="44.15907915411309" lon="10.029313220813801"><ele>483.99999999999994</ele><time>2026-04-08T16:50:24.999Z</time></trkpt><trkpt lat="44.15910760536648" lon="10.029400015831078"><ele>484.0</ele><time>2026-04-08T16:50:26.999Z</time></trkpt><trkpt lat="44.15913106684318" lon="10.029486141765304"><ele>484.0</ele><time>2026-04-08T16:50:32Z</time></trkpt><trkpt lat="44.15908663778728" lon="10.029550227361458"><ele>483.99999999999994</ele><time>2026-04-08T16:50:53Z</time></trkpt><trkpt lat="44.15902019178757" lon="10.029529802976981"><ele>484.0</ele><time>2026-04-08T16:50:54Z</time></trkpt><trkpt lat="44.1590006616704" lon="10.029434137672823"><ele>484.0</ele><time>2026-04-08T16:50:59Z</time></trkpt><trkpt lat="44.15906202027389" lon="10.0294762452601"><ele>480.83333333333337</ele><time>2026-04-08T16:51:19Z</time></trkpt><trkpt lat="44.15909679622137" lon="10.02955930006211"><ele>477.6666666666667</ele><time>2026-04-08T16:51:26Z</time></trkpt><trkpt lat="44.15917426371872" lon="10.02958330480849"><ele>474.5</ele><time>2026-04-08T16:51:30.999Z</time></trkpt><trkpt lat="44.15923506251245" lon="10.029654472924884"><ele>471.33333333333337</ele><time>2026-04-08T16:51:33.999Z</time></trkpt><trkpt lat="44.15928442195633" lon="10.029745493073404"><ele>468.1666666666667</ele><time>2026-04-08T16:51:36.999Z</time></trkpt><trkpt lat="44.15933677385689" lon="10.02988106343308"><ele>465.0</ele><time>2026-04-08T16:51:38.999Z</time></trkpt><trkpt lat="44.15935830097805" lon="10.029970206744048"><ele>465.6666666666667</ele><time>2026-04-08T16:51:39.999Z</time></trkpt><trkpt lat="44.159399385599066" lon="10.03009808757714"><ele>466.33333333333337</ele><time>2026-04-08T16:51:41.999Z</time></trkpt><trkpt lat="44.15939529491423" lon="10.030206196394346"><ele>467.0</ele><time>2026-04-08T16:51:43.999Z</time></trkpt><trkpt lat="44.159381357177736" lon="10.030312318817451"><ele>467.6666666666667</ele><time>2026-04-08T16:51:46.999Z</time></trkpt><trkpt lat="44.15937363451212" lon="10.030409762896634"><ele>468.33333333333337</ele><time>2026-04-08T16:51:48.999Z</time></trkpt><trkpt lat="44.15937923737678" lon="10.030514847244369"><ele>469.0</ele><time>2026-04-08T16:51:50.999Z</time></trkpt><trkpt lat="44.159421929478135" lon="10.030594275177592"><ele>469.00000000000006</ele><time>2026-04-08T16:51:54.999Z</time></trkpt><trkpt lat="44.159493372334744" lon="10.030674220325631"><ele>469.0</ele><time>2026-04-08T16:51:57.999Z</time></trkpt><trkpt lat="44.15955936042433" lon="10.030733165060372"><ele>469.0</ele><time>2026-04-08T16:51:59.999Z</time></trkpt><trkpt lat="44.15961255473587" lon="10.030820280048086"><ele>469.0</ele><time>2026-04-08T16:52:03.999Z</time></trkpt><trkpt lat="44.15965379680358" lon="10.03090976269765"><ele>469.00000000000006</ele><time>2026-04-08T16:52:06.999Z</time></trkpt><trkpt lat="44.159695170905856" lon="10.030989367383688"><ele>469.0</ele><time>2026-04-08T16:52:08.999Z</time></trkpt><trkpt lat="44.159722249344775" lon="10.031069867625904"><ele>469.00000000000006</ele><time>2026-04-08T16:52:11.999Z</time></trkpt><trkpt lat="44.15975881561675" lon="10.031178515596109"><ele>469.0</ele><time>2026-04-08T16:52:14.999Z</time></trkpt><trkpt lat="44.15979561313808" lon="10.03126625450196"><ele>469.0</ele><time>2026-04-08T16:52:21.999Z</time></trkpt><trkpt lat="44.15979661138913" lon="10.031401703480658"><ele>469.0</ele><time>2026-04-08T16:52:24.999Z</time></trkpt><trkpt lat="44.15977312709522" lon="10.031517709631363"><ele>469.00000000000006</ele><time>2026-04-08T16:52:26.999Z</time></trkpt><trkpt lat="44.159754385124444" lon="10.03160516523883"><ele>469.0</ele><time>2026-04-08T16:52:27.999Z</time></trkpt><trkpt lat="44.1597235961307" lon="10.031694420586755"><ele>467.4</ele><time>2026-04-08T16:52:29.999Z</time></trkpt><trkpt lat="44.159684164185244" lon="10.031810615534384"><ele>465.79999999999995</ele><time>2026-04-08T16:52:31.999Z</time></trkpt><trkpt lat="44.15965890849718" lon="10.031901240268729"><ele>464.20000000000005</ele><time>2026-04-08T16:52:33.999Z</time></trkpt><trkpt lat="44.15964018520722" lon="10.032021283678413"><ele>462.6</ele><time>2026-04-08T16:52:39Z</time></trkpt><trkpt lat="44.15964353375041" lon="10.032124343730178"><ele>461.0</ele><time>2026-04-08T16:52:41Z</time></trkpt><trkpt lat="44.15959996739511" lon="10.032397390195428"><ele>457.8</ele><time>2026-04-08T16:52:42Z</time></trkpt><trkpt lat="44.15959037154635" lon="10.0325596521894"><ele>454.6</ele><time>2026-04-08T16:52:44Z</time></trkpt><trkpt lat="44.15954424324289" lon="10.032725471963836"><ele>451.4</ele><time>2026-04-08T16:52:46Z</time></trkpt><trkpt lat="44.15951612123382" lon="10.032820802041714"><ele>448.2</ele><time>2026-04-08T16:52:47Z</time></trkpt><trkpt lat="44.159515023886826" lon="10.03291902464231"><ele>445.0</ele><time>2026-04-08T16:52:48Z</time></trkpt><trkpt lat="44.15952599380038" lon="10.033031771483062"><ele>445.0</ele><time>2026-04-08T16:52:49Z</time></trkpt><trkpt lat="44.15953446721142" lon="10.033142488424552"><ele>445.0</ele><time>2026-04-08T16:52:50Z</time></trkpt><trkpt lat="44.1595422414371" lon="10.033234793837371"><ele>445.0</ele><time>2026-04-08T16:52:51Z</time></trkpt><trkpt lat="44.159489699817954" lon="10.033306668734822"><ele>445.0</ele><time>2026-04-08T16:52:55Z</time></trkpt><trkpt lat="44.15942439249676" lon="10.033300131638423"><ele>445.0</ele><time>2026-04-08T16:52:59Z</time></trkpt><trkpt lat="44.159453037742686" lon="10.03338349993228"><ele>445.0</ele><time>2026-04-08T16:54:02.999Z</time></trkpt><trkpt lat="44.15951435566792" lon="10.033428984641203"><ele>445.0</ele><time>2026-04-08T16:54:08.999Z</time></trkpt><trkpt lat="44.15958530444903" lon="10.033434241289834"><ele>445.00000000000006</ele><time>2026-04-08T16:54:11.999Z</time></trkpt><trkpt lat="44.15964259623375" lon="10.033387151617353"><ele>445.0</ele><time>2026-04-08T16:55:09Z</time></trkpt><trkpt lat="44.159691341287974" lon="10.033329959924702"><ele>445.0</ele><time>2026-04-08T16:55:11Z</time></trkpt><trkpt lat="44.15970646140488" lon="10.033244231634098"><ele>445.0</ele><time>2026-04-08T16:55:13Z</time></trkpt><trkpt lat="44.159683736101535" lon="10.033099621389354"><ele>445.00000000000006</ele><time>2026-04-08T16:55:15Z</time></trkpt><trkpt lat="44.15966760724168" lon="10.032990158176984"><ele>445.0</ele><time>2026-04-08T16:55:17Z</time></trkpt><trkpt lat="44.15969989652147" lon="10.032889470065305"><ele>445.00000000000006</ele><time>2026-04-08T16:55:19Z</time></trkpt><trkpt lat="44.159793879639324" lon="10.032878086340098"><ele>445.0</ele><time>2026-04-08T16:55:25Z</time></trkpt><trkpt lat="44.1598657775765" lon="10.032893993364244"><ele>445.0</ele><time>2026-04-08T16:55:26Z</time></trkpt><trkpt lat="44.159948916881426" lon="10.032872384042685"><ele>445.0</ele><time>2026-04-08T16:55:28Z</time></trkpt><trkpt lat="44.16002742072131" lon="10.032863775907657"><ele>445.00000000000006</ele><time>2026-04-08T16:55:29Z</time></trkpt><trkpt lat="44.1601263846323" lon="10.032863461420853"><ele>445.0</ele><time>2026-04-08T16:55:30Z</time></trkpt><trkpt lat="44.160224436813124" lon="10.032768118018202"><ele>442.6</ele><time>2026-04-08T16:55:32Z</time></trkpt><trkpt lat="44.16027767962649" lon="10.032627169571601"><ele>440.2</ele><time>2026-04-08T16:55:34Z</time></trkpt><trkpt lat="44.16029336689885" lon="10.032531275697435"><ele>437.79999999999995</ele><time>2026-04-08T16:55:35Z</time></trkpt><trkpt lat="44.16033363050712" lon="10.032436109795228"><ele>435.4</ele><time>2026-04-08T16:55:36Z</time></trkpt><trkpt lat="44.16041687929836" lon="10.032487660571627"><ele>433.0</ele><time>2026-04-08T16:55:38Z</time></trkpt><trkpt lat="44.16057649761213" lon="10.032450985608346"><ele>433.0</ele><time>2026-04-08T16:55:40Z</time></trkpt><trkpt lat="44.16067375497406" lon="10.032468739447982"><ele>432.99999999999994</ele><time>2026-04-08T16:55:41.999Z</time></trkpt><trkpt lat="44.16072947520756" lon="10.032427388620048"><ele>432.99999999999994</ele><time>2026-04-08T16:55:42.999Z</time></trkpt><trkpt lat="44.16084684808659" lon="10.032195143812022"><ele>433.0</ele><time>2026-04-08T16:55:44.999Z</time></trkpt><trkpt lat="44.16082251337631" lon="10.032094759477422"><ele>433.0</ele><time>2026-04-08T16:55:46.999Z</time></trkpt><trkpt lat="44.16072188008924" lon="10.031983318894136"><ele>433.0</ele><time>2026-04-08T16:55:48.999Z</time></trkpt><trkpt lat="44.16068355114977" lon="10.031904744863624"><ele>432.99999999999994</ele><time>2026-04-08T16:55:49.999Z</time></trkpt><trkpt lat="44.160664298734474" lon="10.031811266223363"><ele>432.99999999999994</ele><time>2026-04-08T16:55:50.999Z</time></trkpt><trkpt lat="44.16066822985457" lon="10.031641548785752"><ele>433.0</ele><time>2026-04-08T16:55:52.999Z</time></trkpt><trkpt lat="44.16068006075646" lon="10.031481091047217"><ele>433.0</ele><time>2026-04-08T16:55:54.999Z</time></trkpt><trkpt lat="44.16069695174953" lon="10.03134475239849"><ele>432.0</ele><time>2026-04-08T16:55:56.999Z</time></trkpt><trkpt lat="44.160685589660964" lon="10.031252883731266"><ele>430.99999999999994</ele><time>2026-04-08T16:55:58.999Z</time></trkpt><trkpt lat="44.16064595047269" lon="10.031177324411937"><ele>429.99999999999994</ele><time>2026-04-08T16:56:00.999Z</time></trkpt><trkpt lat="44.160561095844685" lon="10.031078628974337"><ele>429.0</ele><time>2026-04-08T16:56:02.999Z</time></trkpt><trkpt lat="44.160490757665485" lon="10.030996577106539"><ele>428.0</ele><time>2026-04-08T16:56:03.999Z</time></trkpt><trkpt lat="44.160379805260135" lon="10.030921939406534"><ele>428.00000000000006</ele><time>2026-04-08T16:56:05.999Z</time></trkpt><trkpt lat="44.16031582039747" lon="10.030870022552453"><ele>428.0</ele><time>2026-04-08T16:56:06.999Z</time></trkpt><trkpt lat="44.16026389674863" lon="10.030807805120494"><ele>428.0</ele><time>2026-04-08T16:56:07.999Z</time></trkpt><trkpt lat="44.16022420442016" lon="10.030735626774204"><ele>428.0</ele><time>2026-04-08T16:56:08.999Z</time></trkpt><trkpt lat="44.16018588685728" lon="10.030644788771962"><ele>428.0</ele><time>2026-04-08T16:56:10.999Z</time></trkpt><trkpt lat="44.16016551088459" lon="10.03055005899426"><ele>428.00000000000006</ele><time>2026-04-08T16:56:12.999Z</time></trkpt><trkpt lat="44.16022746720447" lon="10.030471144166912"><ele>428.0</ele><time>2026-04-08T16:56:15.999Z</time></trkpt><trkpt lat="44.16028143187628" lon="10.030402707422693"><ele>428.8333333333333</ele><time>2026-04-08T16:56:16.999Z</time></trkpt><trkpt lat="44.16033862815424" lon="10.030327166093455"><ele>429.66666666666663</ele><time>2026-04-08T16:56:18.999Z</time></trkpt><trkpt lat="44.1602715405043" lon="10.030207044322054"><ele>430.5</ele><time>2026-04-08T16:56:20.999Z</time></trkpt><trkpt lat="44.16022270133797" lon="10.030101939324696"><ele>431.33333333333337</ele><time>2026-04-08T16:56:22.999Z</time></trkpt><trkpt lat="44.16020253419699" lon="10.030009638827574"><ele>432.1666666666667</ele><time>2026-04-08T16:56:24.999Z</time></trkpt><trkpt lat="44.16024057956853" lon="10.029894295231706"><ele>433.0</ele><time>2026-04-08T16:56:27.999Z</time></trkpt><trkpt lat="44.16029404645344" lon="10.029833424802865"><ele>434.33333333333337</ele><time>2026-04-08T16:56:29.999Z</time></trkpt><trkpt lat="44.16033262873492" lon="10.029755671414735"><ele>435.6666666666667</ele><time>2026-04-08T16:56:38.999Z</time></trkpt><trkpt lat="44.160387177862454" lon="10.029660874467496"><ele>437.0</ele><time>2026-04-08T16:56:41.999Z</time></trkpt><trkpt lat="44.16043831554499" lon="10.029566024309595"><ele>438.33333333333337</ele><time>2026-04-08T16:56:44.999Z</time></trkpt><trkpt lat="44.160451222358944" lon="10.029447641441926"><ele>439.6666666666667</ele><time>2026-04-08T16:56:48.999Z</time></trkpt><trkpt lat="44.16048782607011" lon="10.029328109266642"><ele>441.0</ele><time>2026-04-08T16:56:51Z</time></trkpt><trkpt lat="44.16046912879243" lon="10.029228732701126"><ele>441.0</ele><time>2026-04-08T16:56:54Z</time></trkpt><trkpt lat="44.16042941108785" lon="10.029157641494722"><ele>441.0</ele><time>2026-04-08T16:56:58Z</time></trkpt><trkpt lat="44.160420817045505" lon="10.029059230584657"><ele>441.0</ele><time>2026-04-08T16:57:12Z</time></trkpt><trkpt lat="44.16045676348418" lon="10.028974671348625"><ele>441.0</ele><time>2026-04-08T16:57:16Z</time></trkpt><trkpt lat="44.160532021698465" lon="10.0289130962557"><ele>441.0</ele><time>2026-04-08T16:57:19Z</time></trkpt><trkpt lat="44.16056337823062" lon="10.028809424632854"><ele>441.0</ele><time>2026-04-08T16:57:24Z</time></trkpt><trkpt lat="44.160611857879466" lon="10.028666534972146"><ele>434.25</ele><time>2026-04-08T16:57:27Z</time></trkpt><trkpt lat="44.16071530329057" lon="10.028514453210834"><ele>427.5</ele><time>2026-04-08T16:57:29Z</time></trkpt><trkpt lat="44.16077291230385" lon="10.028430106531285"><ele>420.75</ele><time>2026-04-08T16:57:30Z</time></trkpt><trkpt lat="44.16082576576895" lon="10.028279036135897"><ele>414.0</ele><time>2026-04-08T16:57:32Z</time></trkpt><trkpt lat="44.160865704782346" lon="10.028158473312724"><ele>414.0</ele><time>2026-04-08T16:57:33Z</time></trkpt><trkpt lat="44.16093179603127" lon="10.028066892248043"><ele>414.0</ele><time>2026-04-08T16:57:34Z</time></trkpt><trkpt lat="44.16099161251428" lon="10.027981551273204"><ele>414.0</ele><time>2026-04-08T16:57:35Z</time></trkpt><trkpt lat="44.16102830733654" lon="10.027878327179437"><ele>414.0</ele><time>2026-04-08T16:57:36Z</time></trkpt><trkpt lat="44.161047459367374" lon="10.027791755403578"><ele>414.0</ele><time>2026-04-08T16:57:37Z</time></trkpt><trkpt lat="44.160999974052835" lon="10.027730478345633"><ele>414.0</ele><time>2026-04-08T16:57:39Z</time></trkpt><trkpt lat="44.160874080649364" lon="10.027668211360094"><ele>414.0</ele><time>2026-04-08T16:57:41Z</time></trkpt><trkpt lat="44.160767513663906" lon="10.02757209603209"><ele>414.0</ele><time>2026-04-08T16:57:43Z</time></trkpt><trkpt lat="44.16071046016955" lon="10.027515991808228"><ele>414.0</ele><time>2026-04-08T16:57:45Z</time></trkpt><trkpt lat="44.160642442226724" lon="10.027432992186837"><ele>414.0</ele><time>2026-04-08T16:57:47Z</time></trkpt><trkpt lat="44.16068278227208" lon="10.027354312025537"><ele>414.0</ele><time>2026-04-08T16:57:51.999Z</time></trkpt><trkpt lat="44.16077743033577" lon="10.027371106452025"><ele>415.1666666666667</ele><time>2026-04-08T16:57:53.999Z</time></trkpt><trkpt lat="44.160845327243855" lon="10.027359680791893"><ele>416.33333333333337</ele><time>2026-04-08T16:57:54.999Z</time></trkpt><trkpt lat="44.16094481779238" lon="10.027358317578232"><ele>417.5</ele><time>2026-04-08T16:57:56.999Z</time></trkpt><trkpt lat="44.16097554821986" lon="10.027246977184896"><ele>418.6666666666667</ele><time>2026-04-08T16:57:59.999Z</time></trkpt><trkpt lat="44.160948132803625" lon="10.027149148336484"><ele>419.83333333333337</ele><time>2026-04-08T16:58:01.999Z</time></trkpt><trkpt lat="44.16085244995993" lon="10.027067336793413"><ele>421.0</ele><time>2026-04-08T16:58:03.999Z</time></trkpt><trkpt lat="44.160787698500144" lon="10.027016838518742"><ele>421.00000000000006</ele><time>2026-04-08T16:58:04.999Z</time></trkpt><trkpt lat="44.160714577040224" lon="10.02697071272678"><ele>421.0</ele><time>2026-04-08T16:58:05.999Z</time></trkpt><trkpt lat="44.16065507080728" lon="10.026927419463142"><ele>421.0</ele><time>2026-04-08T16:58:06.999Z</time></trkpt><trkpt lat="44.16060736986156" lon="10.026860880626112"><ele>421.0</ele><time>2026-04-08T16:58:08.999Z</time></trkpt><trkpt lat="44.16055077399229" lon="10.02679430091937"><ele>421.0</ele><time>2026-04-08T16:58:10.999Z</time></trkpt><trkpt lat="44.16062282156936" lon="10.026749246173557"><ele>421.00000000000006</ele><time>2026-04-08T16:58:13.999Z</time></trkpt><trkpt lat="44.16069792605066" lon="10.02677786760486"><ele>421.0</ele><time>2026-04-08T16:58:15.999Z</time></trkpt><trkpt lat="44.16081529538296" lon="10.026750345438879"><ele>421.00000000000006</ele><time>2026-04-08T16:58:18.999Z</time></trkpt><trkpt lat="44.1608870374318" lon="10.026738147029382"><ele>421.0</ele><time>2026-04-08T16:58:19.999Z</time></trkpt><trkpt lat="44.160928503556164" lon="10.026642875027903"><ele>421.0</ele><time>2026-04-08T16:58:22.999Z</time></trkpt><trkpt lat="44.16094492303031" lon="10.026540493805546"><ele>421.0</ele><time>2026-04-08T16:58:24.999Z</time></trkpt><trkpt lat="44.16099120650341" lon="10.0264676848493"><ele>421.00000000000006</ele><time>2026-04-08T16:58:31.999Z</time></trkpt><trkpt lat="44.161048496909586" lon="10.026397611862965"><ele>421.0</ele><time>2026-04-08T16:58:33.999Z</time></trkpt><trkpt lat="44.16113006297787" lon="10.026369728017789"><ele>423.1666666666667</ele><time>2026-04-08T16:58:35.999Z</time></trkpt><trkpt lat="44.16123104312856" lon="10.026321220782751"><ele>425.33333333333337</ele><time>2026-04-08T16:58:38.999Z</time></trkpt><trkpt lat="44.16127079393994" lon="10.026249862010637"><ele>427.5</ele><time>2026-04-08T16:58:40.999Z</time></trkpt><trkpt lat="44.161297263683615" lon="10.026088350882798"><ele>429.66666666666663</ele><time>2026-04-08T16:58:43.999Z</time></trkpt><trkpt lat="44.16131386999333" lon="10.025991055580933"><ele>431.8333333333333</ele><time>2026-04-08T16:58:45.999Z</time></trkpt><trkpt lat="44.16136368034426" lon="10.025912133687257"><ele>434.0</ele><time>2026-04-08T17:12:53.999Z</time></trkpt><trkpt lat="44.16143543872158" lon="10.025855374741349"><ele>435.16666666666663</ele><time>2026-04-08T17:13:21.999Z</time></trkpt><trkpt lat="44.1614298501482" lon="10.025745846378294"><ele>436.3333333333333</ele><time>2026-04-08T17:13:51Z</time></trkpt><trkpt lat="44.16151611239245" lon="10.025797588844219"><ele>437.5</ele><time>2026-04-08T17:14:14Z</time></trkpt><trkpt lat="44.161591623218946" lon="10.025812627305084"><ele>438.66666666666663</ele><time>2026-04-08T17:14:19Z</time></trkpt><trkpt lat="44.161662803996535" lon="10.025815408621936"><ele>439.8333333333333</ele><time>2026-04-08T17:14:24Z</time></trkpt><trkpt lat="44.16172209948427" lon="10.025780060148087"><ele>441.0</ele><time>2026-04-08T17:14:28Z</time></trkpt><trkpt lat="44.161764223018345" lon="10.02570570711576"><ele>437.4</ele><time>2026-04-08T17:14:32Z</time></trkpt><trkpt lat="44.16180998709706" lon="10.025570580431518"><ele>433.8</ele><time>2026-04-08T17:14:34.999Z</time></trkpt><trkpt lat="44.16184041607997" lon="10.025478602744785"><ele>430.2</ele><time>2026-04-08T17:14:36.999Z</time></trkpt><trkpt lat="44.161842623544615" lon="10.025342114046111"><ele>426.59999999999997</ele><time>2026-04-08T17:14:38.999Z</time></trkpt><trkpt lat="44.16188283265552" lon="10.02520127928728"><ele>423.0</ele><time>2026-04-08T17:14:40.999Z</time></trkpt><trkpt lat="44.16192278776881" lon="10.025086601232712"><ele>423.0</ele><time>2026-04-08T17:14:42.999Z</time></trkpt><trkpt lat="44.161954726141026" lon="10.025004052001844"><ele>423.0</ele><time>2026-04-08T17:14:46.999Z</time></trkpt><trkpt lat="44.16195531041254" lon="10.024905496286204"><ele>423.0</ele><time>2026-04-08T17:14:49.999Z</time></trkpt><trkpt lat="44.16195709772562" lon="10.024817109482393"><ele>423.0</ele><time>2026-04-08T17:14:51.999Z</time></trkpt><trkpt lat="44.16197358470388" lon="10.024722577510772"><ele>423.0</ele><time>2026-04-08T17:14:54.999Z</time></trkpt><trkpt lat="44.161997812901426" lon="10.02461639078096"><ele>423.0</ele><time>2026-04-08T17:14:56.999Z</time></trkpt><trkpt lat="44.16205851184094" lon="10.0245582369837"><ele>423.0</ele><time>2026-04-08T17:14:58.999Z</time></trkpt><trkpt lat="44.16212613404543" lon="10.02453918609093"><ele>424.4285714285714</ele><time>2026-04-08T17:15:00.999Z</time></trkpt><trkpt lat="44.1621828140528" lon="10.024463441841354"><ele>425.8571428571429</ele><time>2026-04-08T17:15:04.999Z</time></trkpt><trkpt lat="44.16220593711808" lon="10.024364782681234"><ele>427.2857142857143</ele><time>2026-04-08T17:15:08.999Z</time></trkpt><trkpt lat="44.162176948653105" lon="10.024262216176016"><ele>428.71428571428567</ele><time>2026-04-08T17:15:14.999Z</time></trkpt><trkpt lat="44.16211067046269" lon="10.024217865014792"><ele>430.1428571428571</ele><time>2026-04-08T17:15:17.999Z</time></trkpt><trkpt lat="44.16204904840503" lon="10.024187233944215"><ele>431.57142857142856</ele><time>2026-04-08T17:15:19.999Z</time></trkpt><trkpt lat="44.16198182472745" lon="10.024152199694507"><ele>433.0</ele><time>2026-04-08T17:15:24.999Z</time></trkpt><trkpt lat="44.16189163542621" lon="10.024190402803631"><ele>432.99999999999994</ele><time>2026-04-08T17:15:27.999Z</time></trkpt><trkpt lat="44.161834181588475" lon="10.024246730311681"><ele>433.0</ele><time>2026-04-08T17:15:29.999Z</time></trkpt><trkpt lat="44.161768246055985" lon="10.024295853814126"><ele>433.0</ele><time>2026-04-08T17:15:31.999Z</time></trkpt><trkpt lat="44.16171964783829" lon="10.024351961596722"><ele>433.0</ele><time>2026-04-08T17:15:36.999Z</time></trkpt><trkpt lat="44.16168269228762" lon="10.024453485377546"><ele>433.0</ele><time>2026-04-08T17:15:38.999Z</time></trkpt><trkpt lat="44.16160972402773" lon="10.024479303674804"><ele>432.99999999999994</ele><time>2026-04-08T17:15:40.999Z</time></trkpt><trkpt lat="44.161538690945854" lon="10.024483100883907"><ele>433.0</ele><time>2026-04-08T17:15:45Z</time></trkpt><trkpt lat="44.1614833534399" lon="10.0244360522842"><ele>434.6666666666667</ele><time>2026-04-08T17:15:48Z</time></trkpt><trkpt lat="44.16141578000227" lon="10.024391348325965"><ele>436.33333333333337</ele><time>2026-04-08T17:15:51Z</time></trkpt><trkpt lat="44.16132997258755" lon="10.024360947196874"><ele>438.0</ele><time>2026-04-08T17:15:54Z</time></trkpt><trkpt lat="44.16126366915103" lon="10.024387037194165"><ele>439.66666666666663</ele><time>2026-04-08T17:16:04Z</time></trkpt><trkpt lat="44.16121400021649" lon="10.024467322087789"><ele>441.3333333333333</ele><time>2026-04-08T17:16:15Z</time></trkpt><trkpt lat="44.16116742148233" lon="10.024542886996855"><ele>443.0</ele><time>2026-04-08T17:16:27Z</time></trkpt><trkpt lat="44.16109151645117" lon="10.024504547959147"><ele>443.0</ele><time>2026-04-08T17:16:29Z</time></trkpt><trkpt lat="44.16098604612661" lon="10.024518615321494"><ele>442.99999999999994</ele><time>2026-04-08T17:16:32Z</time></trkpt><trkpt lat="44.16086714081444" lon="10.024544387436192"><ele>442.99999999999994</ele><time>2026-04-08T17:16:33.999Z</time></trkpt><trkpt lat="44.16077591692186" lon="10.024530196484546"><ele>443.0</ele><time>2026-04-08T17:16:35.999Z</time></trkpt><trkpt lat="44.16070587765668" lon="10.024536268869877"><ele>443.0</ele><time>2026-04-08T17:16:37.999Z</time></trkpt><trkpt lat="44.16059507955483" lon="10.024570876194423"><ele>446.2</ele><time>2026-04-08T17:16:39.999Z</time></trkpt><trkpt lat="44.16050728467133" lon="10.024594381145686"><ele>449.4</ele><time>2026-04-08T17:16:41.999Z</time></trkpt><trkpt lat="44.16042120767767" lon="10.024703891871907"><ele>452.59999999999997</ele><time>2026-04-08T17:16:43.999Z</time></trkpt><trkpt lat="44.1603100141692" lon="10.024753553170122"><ele>455.79999999999995</ele><time>2026-04-08T17:16:45.999Z</time></trkpt><trkpt lat="44.16024123439305" lon="10.024861938003538"><ele>459.0</ele><time>2026-04-08T17:16:47.999Z</time></trkpt><trkpt lat="44.160153005786924" lon="10.024958272751277"><ele>459.5</ele><time>2026-04-08T17:16:49.999Z</time></trkpt><trkpt lat="44.160126035818294" lon="10.025107919187825"><ele>460.0</ele><time>2026-04-08T17:16:51.999Z</time></trkpt><trkpt lat="44.160146659155906" lon="10.025216296989887"><ele>460.5</ele><time>2026-04-08T17:16:52.999Z</time></trkpt><trkpt lat="44.16016940677491" lon="10.025315580123126"><ele>461.0</ele><time>2026-04-08T17:16:53.999Z</time></trkpt><trkpt lat="44.16015931566307" lon="10.025413532600977"><ele>461.5</ele><time>2026-04-08T17:16:55.999Z</time></trkpt><trkpt lat="44.160133775629944" lon="10.02553712483389"><ele>462.0</ele><time>2026-04-08T17:17:16.999Z</time></trkpt><trkpt lat="44.1601222095183" lon="10.025639845915945"><ele>462.0</ele><time>2026-04-08T17:17:19.999Z</time></trkpt><trkpt lat="44.160078307760145" lon="10.0257382977277"><ele>462.0</ele><time>2026-04-08T17:17:22.999Z</time></trkpt><trkpt lat="44.16003379437727" lon="10.025828102484967"><ele>462.0</ele><time>2026-04-08T17:17:25.999Z</time></trkpt><trkpt lat="44.159962890065806" lon="10.025879481238167"><ele>462.0</ele><time>2026-04-08T17:17:27.999Z</time></trkpt><trkpt lat="44.159876806621156" lon="10.02593407920093"><ele>462.0</ele><time>2026-04-08T17:17:29.999Z</time></trkpt><trkpt lat="44.15978451307914" lon="10.025924019249498"><ele>462.0</ele><time>2026-04-08T17:17:31.999Z</time></trkpt><trkpt lat="44.1597240269549" lon="10.02588597955569"><ele>464.8</ele><time>2026-04-08T17:17:33.999Z</time></trkpt><trkpt lat="44.159642584299924" lon="10.025865915531273"><ele>467.6</ele><time>2026-04-08T17:17:34.999Z</time></trkpt><trkpt lat="44.15957914024259" lon="10.025878728910635"><ele>470.40000000000003</ele><time>2026-04-08T17:17:35.999Z</time></trkpt><trkpt lat="44.15947664368379" lon="10.026001943779496"><ele>473.20000000000005</ele><time>2026-04-08T17:17:37.999Z</time></trkpt><trkpt lat="44.15941083806668" lon="10.026075014189708"><ele>476.0</ele><time>2026-04-08T17:17:38.999Z</time></trkpt><trkpt lat="44.15927462641161" lon="10.026153814930387"><ele>475.99999999999994</ele><time>2026-04-08T17:17:40.999Z</time></trkpt><trkpt lat="44.15923112893699" lon="10.026222120443276"><ele>476.0</ele><time>2026-04-08T17:17:41.999Z</time></trkpt><trkpt lat="44.15916747770369" lon="10.026314070810628"><ele>476.0</ele><time>2026-04-08T17:17:43.999Z</time></trkpt><trkpt lat="44.159088204226954" lon="10.026302485324734"><ele>476.0</ele><time>2026-04-08T17:17:45.999Z</time></trkpt><trkpt lat="44.15899380751105" lon="10.026388444123514"><ele>475.99999999999994</ele><time>2026-04-08T17:17:47.999Z</time></trkpt><trkpt lat="44.15892007770946" lon="10.026460705132326"><ele>476.0</ele><time>2026-04-08T17:17:48.999Z</time></trkpt><trkpt lat="44.15888441452183" lon="10.026540011823178"><ele>478.8</ele><time>2026-04-08T17:17:50Z</time></trkpt><trkpt lat="44.15887745439865" lon="10.02664498820237"><ele>481.6</ele><time>2026-04-08T17:17:51Z</time></trkpt><trkpt lat="44.15888753426498" lon="10.026753617393936"><ele>484.4</ele><time>2026-04-08T17:17:52Z</time></trkpt><trkpt lat="44.15894810614262" lon="10.026871034088803"><ele>487.2</ele><time>2026-04-08T17:17:54Z</time></trkpt><trkpt lat="44.1590330748692" lon="10.026955250714666"><ele>490.0</ele><time>2026-04-08T17:17:55Z</time></trkpt><trkpt lat="44.15912496720943" lon="10.027057364011577"><ele>485.4</ele><time>2026-04-08T17:17:56Z</time></trkpt><trkpt lat="44.15917946714252" lon="10.027175630422475"><ele>480.8</ele><time>2026-04-08T17:17:57Z</time></trkpt><trkpt lat="44.1592103316835" lon="10.027255717825929"><ele>476.20000000000005</ele><time>2026-04-08T17:17:58Z</time></trkpt><trkpt lat="44.15926613768039" lon="10.027418838964952"><ele>471.6</ele><time>2026-04-08T17:18:00Z</time></trkpt><trkpt lat="44.15929349776849" lon="10.02750714269551"><ele>467.0</ele><time>2026-04-08T17:18:01Z</time></trkpt><trkpt lat="44.159291604117946" lon="10.027695974928566"><ele>467.0</ele><time>2026-04-08T17:18:03Z</time></trkpt><trkpt lat="44.15929576821573" lon="10.027857560333567"><ele>467.00000000000006</ele><time>2026-04-08T17:18:04Z</time></trkpt><trkpt lat="44.159305909347864" lon="10.028022476172909"><ele>467.00000000000006</ele><time>2026-04-08T17:18:05Z</time></trkpt><trkpt lat="44.1592903939135" lon="10.028155640625378"><ele>467.0</ele><time>2026-04-08T17:18:06Z</time></trkpt><trkpt lat="44.15925172458412" lon="10.028260982144971"><ele>467.0</ele><time>2026-04-08T17:18:07Z</time></trkpt><trkpt lat="44.15919810822853" lon="10.028380096323552"><ele>467.40000000000003</ele><time>2026-04-08T17:18:08Z</time></trkpt><trkpt lat="44.1591561123172" lon="10.028489875679343"><ele>467.80000000000007</ele><time>2026-04-08T17:18:09Z</time></trkpt><trkpt lat="44.15911936570643" lon="10.028564802837995"><ele>468.2</ele><time>2026-04-08T17:18:10Z</time></trkpt><trkpt lat="44.159023712405904" lon="10.028687747815994"><ele>468.6</ele><time>2026-04-08T17:18:12Z</time></trkpt><trkpt lat="44.158942297476656" lon="10.028823247612124"><ele>469.0</ele><time>2026-04-08T17:18:14Z</time></trkpt><trkpt lat="44.15887587584846" lon="10.028931564558361"><ele>468.2</ele><time>2026-04-08T17:18:15Z</time></trkpt><trkpt lat="44.15888184791212" lon="10.029065792322697"><ele>467.4</ele><time>2026-04-08T17:18:17Z</time></trkpt><trkpt lat="44.15895330525967" lon="10.029173671232767"><ele>466.6</ele><time>2026-04-08T17:18:18Z</time></trkpt><trkpt lat="44.15901552645827" lon="10.029278888002874"><ele>465.8</ele><time>2026-04-08T17:18:19Z</time></trkpt><trkpt lat="44.1590484685723" lon="10.029383420646324"><ele>465.0</ele><time>2026-04-08T17:18:20Z</time></trkpt><trkpt lat="44.1590706132116" lon="10.029483796063353"><ele>465.0</ele><time>2026-04-08T17:18:21Z</time></trkpt><trkpt lat="44.15914684224408" lon="10.029582781824946"><ele>465.0</ele><time>2026-04-08T17:18:23Z</time></trkpt><trkpt lat="44.15920429268609" lon="10.029648029176808"><ele>465.0</ele><time>2026-04-08T17:18:24Z</time></trkpt><trkpt lat="44.1592586712266" lon="10.029719700521417"><ele>465.0</ele><time>2026-04-08T17:18:25Z</time></trkpt><trkpt lat="44.15931348638085" lon="10.029797139350073"><ele>465.0</ele><time>2026-04-08T17:18:26Z</time></trkpt><trkpt lat="44.15934647554712" lon="10.029886735340119"><ele>465.0</ele><time>2026-04-08T17:18:27Z</time></trkpt><trkpt lat="44.159375436257534" lon="10.030016180616707"><ele>465.8</ele><time>2026-04-08T17:18:28Z</time></trkpt><trkpt lat="44.159396718247876" lon="10.030137803375975"><ele>466.6</ele><time>2026-04-08T17:18:29Z</time></trkpt><trkpt lat="44.15940011917015" lon="10.030241261910435"><ele>467.4</ele><time>2026-04-08T17:18:30Z</time></trkpt><trkpt lat="44.15939950846415" lon="10.03038168055452"><ele>468.2</ele><time>2026-04-08T17:18:32Z</time></trkpt><trkpt lat="44.15938150102654" lon="10.03052004307956"><ele>469.0</ele><time>2026-04-08T17:18:35Z</time></trkpt><trkpt lat="44.15939998912051" lon="10.030657389799426"><ele>469.00000000000006</ele><time>2026-04-08T17:18:37Z</time></trkpt><trkpt lat="44.159455861367825" lon="10.030704211635568"><ele>469.0</ele><time>2026-04-08T17:18:38Z</time></trkpt><trkpt lat="44.159556568287194" lon="10.030777695839513"><ele>469.0</ele><time>2026-04-08T17:18:40Z</time></trkpt><trkpt lat="44.15962214640571" lon="10.030894085812301"><ele>469.0</ele><time>2026-04-08T17:18:42Z</time></trkpt><trkpt lat="44.15967270784835" lon="10.030981213494009"><ele>469.00000000000006</ele><time>2026-04-08T17:18:43Z</time></trkpt><trkpt lat="44.15970251532812" lon="10.031080836576258"><ele>469.0</ele><time>2026-04-08T17:18:43.999Z</time></trkpt><trkpt lat="44.159757914406455" lon="10.03123449614087"><ele>469.0</ele><time>2026-04-08T17:18:46.999Z</time></trkpt><trkpt lat="44.159776731088165" lon="10.031403161204096"><ele>469.0</ele><time>2026-04-08T17:18:48.999Z</time></trkpt><trkpt lat="44.15973161172053" lon="10.031583141656837"><ele>469.0</ele><time>2026-04-08T17:18:50.999Z</time></trkpt><trkpt lat="44.159710059709795" lon="10.031691383343635"><ele>469.0</ele><time>2026-04-08T17:18:51.999Z</time></trkpt><trkpt lat="44.159646632595624" lon="10.031837159333419"><ele>467.6666666666667</ele><time>2026-04-08T17:18:53.999Z</time></trkpt><trkpt lat="44.15962810156004" lon="10.031923123840205"><ele>466.33333333333337</ele><time>2026-04-08T17:18:54.999Z</time></trkpt><trkpt lat="44.159597925034696" lon="10.03201509350368"><ele>465.0</ele><time>2026-04-08T17:18:56.999Z</time></trkpt><trkpt lat="44.15957770763484" lon="10.032118294805162"><ele>463.66666666666663</ele><time>2026-04-08T17:19:00.999Z</time></trkpt><trkpt lat="44.15957276435511" lon="10.03221178593865"><ele>462.3333333333333</ele><time>2026-04-08T17:19:01.999Z</time></trkpt><trkpt lat="44.15958141043067" lon="10.032362202902"><ele>461.0</ele><time>2026-04-08T17:19:02.999Z</time></trkpt><trkpt lat="44.15956933564348" lon="10.03249431894297"><ele>457.8</ele><time>2026-04-08T17:19:03.999Z</time></trkpt><trkpt lat="44.15952149639931" lon="10.032656160556071"><ele>454.6</ele><time>2026-04-08T17:19:05.999Z</time></trkpt><trkpt lat="44.15949672181972" lon="10.032768347681989"><ele>451.4</ele><time>2026-04-08T17:19:06.999Z</time></trkpt><trkpt lat="44.159488665771036" lon="10.032873431971735"><ele>448.2</ele><time>2026-04-08T17:19:07.999Z</time></trkpt><trkpt lat="44.15951127376143" lon="10.032992087367392"><ele>445.0</ele><time>2026-04-08T17:19:08.999Z</time></trkpt><trkpt lat="44.15952649050628" lon="10.033097096216245"><ele>445.0</ele><time>2026-04-08T17:19:09.999Z</time></trkpt><trkpt lat="44.15955221174055" lon="10.033228341805934"><ele>445.0</ele><time>2026-04-08T17:19:11.999Z</time></trkpt><trkpt lat="44.15949560633866" lon="10.033289858586006"><ele>445.0</ele><time>2026-04-08T17:19:14.999Z</time></trkpt><trkpt lat="44.15943076162468" lon="10.033293599751035"><ele>445.0</ele><time>2026-04-08T17:19:19.999Z</time></trkpt><trkpt lat="44.15932610853394" lon="10.033273551208467"><ele>445.0</ele><time>2026-04-08T17:19:23.999Z</time></trkpt><trkpt lat="44.15921304492285" lon="10.033313544946127"><ele>440.83333333333337</ele><time>2026-04-08T17:19:25.999Z</time></trkpt><trkpt lat="44.15915377555918" lon="10.033354389440875"><ele>436.6666666666667</ele><time>2026-04-08T17:19:26.999Z</time></trkpt><trkpt lat="44.159090738550745" lon="10.033411282361072"><ele>432.5</ele><time>2026-04-08T17:19:27.999Z</time></trkpt><trkpt lat="44.15902147055594" lon="10.03343413843659"><ele>428.33333333333337</ele><time>2026-04-08T17:19:28.999Z</time></trkpt><trkpt lat="44.15891594696602" lon="10.033480887768476"><ele>424.1666666666667</ele><time>2026-04-08T17:19:30.999Z</time></trkpt><trkpt lat="44.15884300803384" lon="10.033484911717164"><ele>420.0</ele><time>2026-04-08T17:19:31.999Z</time></trkpt><trkpt lat="44.15876495666412" lon="10.03348290766209"><ele>420.0</ele><time>2026-04-08T17:19:32.999Z</time></trkpt><trkpt lat="44.15868298192304" lon="10.033496017460074"><ele>420.0</ele><time>2026-04-08T17:19:33.999Z</time></trkpt><trkpt lat="44.158620790540404" lon="10.033512178763358"><ele>420.0</ele><time>2026-04-08T17:19:34.999Z</time></trkpt><trkpt lat="44.15853575348558" lon="10.033487424744548"><ele>420.0</ele><time>2026-04-08T17:19:36.999Z</time></trkpt><trkpt lat="44.15845405337645" lon="10.033435781804606"><ele>420.0</ele><time>2026-04-08T17:19:38.999Z</time></trkpt><trkpt lat="44.15838901991268" lon="10.033381320747733"><ele>420.0</ele><time>2026-04-08T17:19:40.999Z</time></trkpt><trkpt lat="44.158296015295" lon="10.033361445737178"><ele>420.0</ele><time>2026-04-08T17:19:42.999Z</time></trkpt><trkpt lat="44.15822265835565" lon="10.03332761436468"><ele>420.0</ele><time>2026-04-08T17:19:44.999Z</time></trkpt><trkpt lat="44.15815764565235" lon="10.03328041778824"><ele>420.0</ele><time>2026-04-08T17:19:48.999Z</time></trkpt><trkpt lat="44.15809249156388" lon="10.033236178134048"><ele>420.0</ele><time>2026-04-08T17:19:51.999Z</time></trkpt><trkpt lat="44.15802259615425" lon="10.033189839161093"><ele>420.0</ele><time>2026-04-08T17:19:55Z</time></trkpt><trkpt lat="44.15796884960019" lon="10.03313909859327"><ele>420.0</ele><time>2026-04-08T17:19:58Z</time></trkpt><trkpt lat="44.157899399087704" lon="10.033088454521288"><ele>420.0</ele><time>2026-04-08T17:20:00Z</time></trkpt><trkpt lat="44.157825219643705" lon="10.033039896731852"><ele>421.5</ele><time>2026-04-08T17:20:03Z</time></trkpt><trkpt lat="44.15776020667253" lon="10.033006725190038"><ele>423.0</ele><time>2026-04-08T17:20:06Z</time></trkpt><trkpt lat="44.157693757489945" lon="10.032974633338002"><ele>424.5</ele><time>2026-04-08T17:20:08Z</time></trkpt><trkpt lat="44.15762978198019" lon="10.032984295142652"><ele>426.0</ele><time>2026-04-08T17:20:10Z</time></trkpt><trkpt lat="44.157556865247976" lon="10.033024403506891"><ele>427.5</ele><time>2026-04-08T17:20:34Z</time></trkpt><trkpt lat="44.15747496141191" lon="10.032977687398589"><ele>429.0</ele><time>2026-04-08T17:20:37Z</time></trkpt><trkpt lat="44.15737890174563" lon="10.032939893362123"><ele>427.75</ele><time>2026-04-08T17:20:39Z</time></trkpt><trkpt lat="44.157273735398995" lon="10.0328979766118"><ele>426.5</ele><time>2026-04-08T17:20:41Z</time></trkpt><trkpt lat="44.15716418507474" lon="10.032850245430867"><ele>425.25</ele><time>2026-04-08T17:20:43Z</time></trkpt><trkpt lat="44.15703360605546" lon="10.032795596412749"><ele>424.0</ele><time>2026-04-08T17:20:45Z</time></trkpt><trkpt lat="44.156947227254484" lon="10.032755899468972"><ele>424.00000000000006</ele><time>2026-04-08T17:20:46Z</time></trkpt><trkpt lat="44.15685988282014" lon="10.032724396798528"><ele>424.0</ele><time>2026-04-08T17:20:46.999Z</time></trkpt><trkpt lat="44.156780590547086" lon="10.032686348076435"><ele>424.0</ele><time>2026-04-08T17:20:47.999Z</time></trkpt><trkpt lat="44.15671085878456" lon="10.032631860705875"><ele>424.0</ele><time>2026-04-08T17:20:48.999Z</time></trkpt><trkpt lat="44.15665713538657" lon="10.032558575263707"><ele>424.00000000000006</ele><time>2026-04-08T17:20:49.999Z</time></trkpt><trkpt lat="44.1566093477101" lon="10.032480853616958"><ele>424.0</ele><time>2026-04-08T17:20:50.999Z</time></trkpt><trkpt lat="44.15654693442124" lon="10.032406748465768"><ele>428.00000000000006</ele><time>2026-04-08T17:20:51.999Z</time></trkpt><trkpt lat="44.156477289447686" lon="10.032354961191546"><ele>432.0</ele><time>2026-04-08T17:20:52.999Z</time></trkpt><trkpt lat="44.15641565724068" lon="10.032311058005453"><ele>436.0</ele><time>2026-04-08T17:20:53.999Z</time></trkpt><trkpt lat="44.156302665612465" lon="10.03226405690793"><ele>440.0</ele><time>2026-04-08T17:20:55.999Z</time></trkpt><trkpt lat="44.15623171192014" lon="10.032266460670337"><ele>444.00000000000006</ele><time>2026-04-08T17:20:56.999Z</time></trkpt><trkpt lat="44.15616966579965" lon="10.032340217543473"><ele>448.0</ele><time>2026-04-08T17:20:57.999Z</time></trkpt><trkpt lat="44.15613659216578" lon="10.032448309765863"><ele>444.79999999999995</ele><time>2026-04-08T17:20:58.999Z</time></trkpt><trkpt lat="44.156099718836415" lon="10.032523526527276"><ele>441.59999999999997</ele><time>2026-04-08T17:20:59.999Z</time></trkpt><trkpt lat="44.15604131475493" lon="10.032674238994256"><ele>438.40000000000003</ele><time>2026-04-08T17:21:01.999Z</time></trkpt><trkpt lat="44.156026025892665" lon="10.032832976904666"><ele>435.20000000000005</ele><time>2026-04-08T17:21:03.999Z</time></trkpt><trkpt lat="44.15602359749785" lon="10.032993547525255"><ele>432.0</ele><time>2026-04-08T17:21:05.999Z</time></trkpt><trkpt lat="44.15597189767208" lon="10.03314713177376"><ele>432.0</ele><time>2026-04-08T17:21:07.999Z</time></trkpt><trkpt lat="44.1558856342334" lon="10.033269023507616"><ele>432.00000000000006</ele><time>2026-04-08T17:21:09.999Z</time></trkpt><trkpt lat="44.15582362268974" lon="10.03334545421305"><ele>432.00000000000006</ele><time>2026-04-08T17:21:10.999Z</time></trkpt><trkpt lat="44.15574978645344" lon="10.033433292453545"><ele>432.0</ele><time>2026-04-08T17:21:11.999Z</time></trkpt><trkpt lat="44.155675683342245" lon="10.033521405380949"><ele>432.0</ele><time>2026-04-08T17:21:12.999Z</time></trkpt><trkpt lat="44.15559339454617" lon="10.033557002389308"><ele>432.0</ele><time>2026-04-08T17:21:13.999Z</time></trkpt><trkpt lat="44.15551081561622" lon="10.033535981434884"><ele>432.0</ele><time>2026-04-08T17:21:14.999Z</time></trkpt><trkpt lat="44.155444202882826" lon="10.033477101114073"><ele>432.0</ele><time>2026-04-08T17:21:15.999Z</time></trkpt><trkpt lat="44.15540739664439" lon="10.033372141926419"><ele>432.0</ele><time>2026-04-08T17:21:16.999Z</time></trkpt><trkpt lat="44.15538191271365" lon="10.033246079849931"><ele>432.0</ele><time>2026-04-08T17:21:17.999Z</time></trkpt><trkpt lat="44.15535205807513" lon="10.03312678257803"><ele>432.0</ele><time>2026-04-08T17:21:18.999Z</time></trkpt><trkpt lat="44.15533383856189" lon="10.033034710463967"><ele>432.0</ele><time>2026-04-08T17:21:19.999Z</time></trkpt><trkpt lat="44.15534486767181" lon="10.033245868606228"><ele>432.00000000000006</ele><time>2026-04-08T17:21:31.999Z</time></trkpt><trkpt lat="44.1553866611663" lon="10.033390354454303"><ele>432.00000000000006</ele><time>2026-04-08T17:21:32.999Z</time></trkpt><trkpt lat="44.155440282288865" lon="10.033492604177326"><ele>432.0</ele><time>2026-04-08T17:21:33.999Z</time></trkpt><trkpt lat="44.15550878304316" lon="10.033562331584504"><ele>432.0</ele><time>2026-04-08T17:21:34.999Z</time></trkpt><trkpt lat="44.15558726489217" lon="10.033580944685761"><ele>432.0</ele><time>2026-04-08T17:21:35.999Z</time></trkpt><trkpt lat="44.15566328427559" lon="10.03356101735008"><ele>432.0</ele><time>2026-04-08T17:21:36.999Z</time></trkpt><trkpt lat="44.1557360455163" lon="10.033505525994208"><ele>432.0</ele><time>2026-04-08T17:21:37.999Z</time></trkpt><trkpt lat="44.15580382515832" lon="10.033426189352266"><ele>432.0</ele><time>2026-04-08T17:21:38.999Z</time></trkpt><trkpt lat="44.15586708572472" lon="10.033344065142307"><ele>432.0</ele><time>2026-04-08T17:21:39.999Z</time></trkpt><trkpt lat="44.155930880500726" lon="10.03327167767131"><ele>432.0</ele><time>2026-04-08T17:21:40.999Z</time></trkpt><trkpt lat="44.155982270376434" lon="10.033190317723172"><ele>432.0</ele><time>2026-04-08T17:21:41.999Z</time></trkpt><trkpt lat="44.15601690059402" lon="10.033101674713055"><ele>432.0</ele><time>2026-04-08T17:21:42.999Z</time></trkpt><trkpt lat="44.15603618776218" lon="10.033008597999622"><ele>432.0</ele><time>2026-04-08T17:21:43.999Z</time></trkpt><trkpt lat="44.15604668908853" lon="10.03291030113459"><ele>432.0</ele><time>2026-04-08T17:21:44.999Z</time></trkpt><trkpt lat="44.15605739693415" lon="10.032799188041206"><ele>432.0</ele><time>2026-04-08T17:21:45.999Z</time></trkpt><trkpt lat="44.15606816859363" lon="10.03268281189213"><ele>432.0</ele><time>2026-04-08T17:21:46.999Z</time></trkpt><trkpt lat="44.156091957035024" lon="10.032581264579958"><ele>432.0</ele><time>2026-04-08T17:21:47.999Z</time></trkpt><trkpt lat="44.1561241067391" lon="10.03249279489839"><ele>432.0</ele><time>2026-04-08T17:21:48.999Z</time></trkpt><trkpt lat="44.15619008710061" lon="10.03238764401943"><ele>432.0</ele><time>2026-04-08T17:21:50.999Z</time></trkpt><trkpt lat="44.156235771686326" lon="10.03231929243474"><ele>432.0</ele><time>2026-04-08T17:21:53.999Z</time></trkpt><trkpt lat="44.15625667476921" lon="10.032232845289917"><ele>432.0</ele><time>2026-04-08T17:22:02Z</time></trkpt><trkpt lat="44.156230035382976" lon="10.03215103901679"><ele>432.0</ele><time>2026-04-08T17:22:11Z</time></trkpt><trkpt lat="44.156196150820676" lon="10.03206239284742"><ele>432.0</ele><time>2026-04-08T17:22:32Z</time></trkpt><trkpt lat="44.15620961927368" lon="10.032151156279667"><ele>432.0</ele><time>2026-04-08T17:23:16.999Z</time></trkpt><trkpt lat="44.15626369857359" lon="10.032300902174766"><ele>432.00000000000006</ele><time>2026-04-08T17:23:51.999Z</time></trkpt><trkpt lat="44.15619298483428" lon="10.032396048139494"><ele>432.00000000000006</ele><time>2026-04-08T17:23:54.999Z</time></trkpt><trkpt lat="44.15615123164373" lon="10.032489947623821"><ele>432.0</ele><time>2026-04-08T17:23:56.999Z</time></trkpt><trkpt lat="44.15610770871773" lon="10.032580280315086"><ele>432.0</ele><time>2026-04-08T17:23:58.999Z</time></trkpt><trkpt lat="44.15607472130785" lon="10.032695842784092"><ele>432.0</ele><time>2026-04-08T17:24:00.999Z</time></trkpt><trkpt lat="44.15606186941194" lon="10.032788502675745"><ele>432.0</ele><time>2026-04-08T17:24:01.999Z</time></trkpt><trkpt lat="44.15602112943059" lon="10.032891303712264"><ele>432.0</ele><time>2026-04-08T17:24:02.999Z</time></trkpt><trkpt lat="44.156006391245896" lon="10.033015222360687"><ele>432.0</ele><time>2026-04-08T17:24:03.999Z</time></trkpt><trkpt lat="44.15597109299936" lon="10.033121747377502"><ele>432.0</ele><time>2026-04-08T17:24:04.999Z</time></trkpt><trkpt lat="44.155916395233575" lon="10.033231908729082"><ele>432.0</ele><time>2026-04-08T17:24:05.999Z</time></trkpt><trkpt lat="44.15583625326493" lon="10.033329798152067"><ele>430.8</ele><time>2026-04-08T17:24:07Z</time></trkpt><trkpt lat="44.15574644232577" lon="10.033437261240971"><ele>429.6</ele><time>2026-04-08T17:24:08Z</time></trkpt><trkpt lat="44.15565961861714" lon="10.033514037707645"><ele>428.40000000000003</ele><time>2026-04-08T17:24:09Z</time></trkpt><trkpt lat="44.155585195204765" lon="10.033560042449931"><ele>427.20000000000005</ele><time>2026-04-08T17:24:10Z</time></trkpt><trkpt lat="44.155504433920065" lon="10.033526646015025"><ele>426.0</ele><time>2026-04-08T17:24:11Z</time></trkpt><trkpt lat="44.15544692217187" lon="10.03344058262605"><ele>426.0</ele><time>2026-04-08T17:24:12Z</time></trkpt><trkpt lat="44.155408863825784" lon="10.033316343993375"><ele>426.0</ele><time>2026-04-08T17:24:13Z</time></trkpt><trkpt lat="44.155373908758406" lon="10.033181927075528"><ele>426.0</ele><time>2026-04-08T17:24:14Z</time></trkpt><trkpt lat="44.15533086065312" lon="10.033028700395127"><ele>426.0</ele><time>2026-04-08T17:24:15Z</time></trkpt><trkpt lat="44.155291591098376" lon="10.03285867580826"><ele>426.0</ele><time>2026-04-08T17:24:16Z</time></trkpt><trkpt lat="44.15525502026758" lon="10.032683297470262"><ele>427.5</ele><time>2026-04-08T17:24:17Z</time></trkpt><trkpt lat="44.155216809682685" lon="10.032515320750887"><ele>429.0</ele><time>2026-04-08T17:24:18Z</time></trkpt><trkpt lat="44.15516642736354" lon="10.032370414697057"><ele>430.5</ele><time>2026-04-08T17:24:19Z</time></trkpt><trkpt lat="44.155091291350935" lon="10.032245872538589"><ele>432.0</ele><time>2026-04-08T17:24:20Z</time></trkpt><trkpt lat="44.15499414338742" lon="10.032153539558132"><ele>435.75</ele><time>2026-04-08T17:24:21Z</time></trkpt><trkpt lat="44.15487399155368" lon="10.032081624652864"><ele>439.5</ele><time>2026-04-08T17:24:22Z</time></trkpt><trkpt lat="44.154742055383124" lon="10.032026988115694"><ele>443.25</ele><time>2026-04-08T17:24:23Z</time></trkpt><trkpt lat="44.15460391557705" lon="10.031974612210323"><ele>447.0</ele><time>2026-04-08T17:24:24Z</time></trkpt><trkpt lat="44.15446387758616" lon="10.031915360167352"><ele>447.33333333333337</ele><time>2026-04-08T17:24:25Z</time></trkpt><trkpt lat="44.154320472103414" lon="10.03185831073142"><ele>447.6666666666667</ele><time>2026-04-08T17:24:26Z</time></trkpt><trkpt lat="44.15417600013316" lon="10.031796741688526"><ele>448.0</ele><time>2026-04-08T17:24:27Z</time></trkpt><trkpt lat="44.154030233949" lon="10.031731656892905"><ele>448.33333333333337</ele><time>2026-04-08T17:24:28Z</time></trkpt><trkpt lat="44.153879665048635" lon="10.031661621679506"><ele>448.66666666666663</ele><time>2026-04-08T17:24:29Z</time></trkpt><trkpt lat="44.15372195101506" lon="10.031663222230495"><ele>449.0</ele><time>2026-04-08T17:24:30Z</time></trkpt><trkpt lat="44.153573808557695" lon="10.031635938742713"><ele>447.75</ele><time>2026-04-08T17:24:31Z</time></trkpt><trkpt lat="44.15344941865013" lon="10.031595817265382"><ele>446.5</ele><time>2026-04-08T17:24:32Z</time></trkpt><trkpt lat="44.15333969863578" lon="10.031513155436564"><ele>445.25</ele><time>2026-04-08T17:24:33Z</time></trkpt><trkpt lat="44.153239157280765" lon="10.031406917631184"><ele>444.0</ele><time>2026-04-08T17:24:34Z</time></trkpt><trkpt lat="44.153152307268485" lon="10.031298874487037"><ele>444.0</ele><time>2026-04-08T17:24:35Z</time></trkpt><trkpt lat="44.15308969049226" lon="10.031181940245228"><ele>444.0</ele><time>2026-04-08T17:24:36Z</time></trkpt><trkpt lat="44.153038603844564" lon="10.031067502366218"><ele>444.0</ele><time>2026-04-08T17:24:37Z</time></trkpt><trkpt lat="44.152987303783135" lon="10.030944386348397"><ele>444.0</ele><time>2026-04-08T17:24:38Z</time></trkpt><trkpt lat="44.15293042983146" lon="10.03081647451731"><ele>444.0</ele><time>2026-04-08T17:24:39Z</time></trkpt><trkpt lat="44.15287201337127" lon="10.030687184967814"><ele>446.3333333333333</ele><time>2026-04-08T17:24:40Z</time></trkpt><trkpt lat="44.15281809435933" lon="10.030567901650947"><ele>448.66666666666663</ele><time>2026-04-08T17:24:41Z</time></trkpt><trkpt lat="44.152768393955036" lon="10.030463111952765"><ele>451.0</ele><time>2026-04-08T17:24:42Z</time></trkpt><trkpt lat="44.152729198425675" lon="10.030373539923879"><ele>453.3333333333333</ele><time>2026-04-08T17:24:43Z</time></trkpt><trkpt lat="44.15269627835013" lon="10.030297665919662"><ele>455.66666666666663</ele><time>2026-04-08T17:24:44Z</time></trkpt><trkpt lat="44.15263323669642" lon="10.030163992479949"><ele>458.0</ele><time>2026-04-08T17:24:46Z</time></trkpt><trkpt lat="44.15257056323102" lon="10.030033565762253"><ele>464.4</ele><time>2026-04-08T17:24:48Z</time></trkpt><trkpt lat="44.15250607760928" lon="10.029912595685097"><ele>470.79999999999995</ele><time>2026-04-08T17:24:50Z</time></trkpt><trkpt lat="44.15244632647957" lon="10.02980065450153"><ele>477.2</ele><time>2026-04-08T17:24:52Z</time></trkpt><trkpt lat="44.152377133672715" lon="10.029702086032994"><ele>483.6</ele><time>2026-04-08T17:24:54Z</time></trkpt><trkpt lat="44.15227876539764" lon="10.02962332567714"><ele>490.0</ele><time>2026-04-08T17:24:55.999Z</time></trkpt><trkpt lat="44.152215402424424" lon="10.029588028566005"><ele>490.75</ele><time>2026-04-08T17:24:56.999Z</time></trkpt><trkpt lat="44.15209667179467" lon="10.029563440952536"><ele>491.5</ele><time>2026-04-08T17:24:58.999Z</time></trkpt><trkpt lat="44.15198904316623" lon="10.029583178922206"><ele>492.25</ele><time>2026-04-08T17:25:00.999Z</time></trkpt><trkpt lat="44.151883792328114" lon="10.029632965516013"><ele>493.0</ele><time>2026-04-08T17:25:02.999Z</time></trkpt><trkpt lat="44.15177141547121" lon="10.029693543098567"><ele>493.0</ele><time>2026-04-08T17:25:04.999Z</time></trkpt><trkpt lat="44.15170755213886" lon="10.029721108138572"><ele>493.0</ele><time>2026-04-08T17:25:05.999Z</time></trkpt><trkpt lat="44.151641503281226" lon="10.029747400526423"><ele>493.0</ele><time>2026-04-08T17:25:06.999Z</time></trkpt><trkpt lat="44.151571285593995" lon="10.02977173127421"><ele>493.0</ele><time>2026-04-08T17:25:07.999Z</time></trkpt><trkpt lat="44.151494884333374" lon="10.029777995160346"><ele>493.0</ele><time>2026-04-08T17:25:08.999Z</time></trkpt><trkpt lat="44.15141536433546" lon="10.029779714794383"><ele>493.0</ele><time>2026-04-08T17:25:09.999Z</time></trkpt><trkpt lat="44.15133350413173" lon="10.029778814847235"><ele>493.0</ele><time>2026-04-08T17:25:10.999Z</time></trkpt><trkpt lat="44.151253450612465" lon="10.02977354449965"><ele>491.00000000000006</ele><time>2026-04-08T17:25:11.999Z</time></trkpt><trkpt lat="44.151165748614254" lon="10.029768164786613"><ele>489.0</ele><time>2026-04-08T17:25:12.999Z</time></trkpt><trkpt lat="44.151083717741244" lon="10.029763816092476"><ele>487.0</ele><time>2026-04-08T17:25:13.999Z</time></trkpt><trkpt lat="44.15100880531815" lon="10.029742268033944"><ele>485.0</ele><time>2026-04-08T17:25:14.999Z</time></trkpt><trkpt lat="44.150939326810416" lon="10.029699947086895"><ele>483.00000000000006</ele><time>2026-04-08T17:25:15.999Z</time></trkpt><trkpt lat="44.15088371972317" lon="10.029638471989022"><ele>481.0</ele><time>2026-04-08T17:25:16.999Z</time></trkpt><trkpt lat="44.150837053339636" lon="10.029571154278631"><ele>481.00000000000006</ele><time>2026-04-08T17:25:17.999Z</time></trkpt><trkpt lat="44.15079867907541" lon="10.029495178934221"><ele>481.0</ele><time>2026-04-08T17:25:18.999Z</time></trkpt><trkpt lat="44.15077371316973" lon="10.029401538908774"><ele>481.0</ele><time>2026-04-08T17:25:19.999Z</time></trkpt><trkpt lat="44.150750488554195" lon="10.029313265404534"><ele>481.0</ele><time>2026-04-08T17:25:20.999Z</time></trkpt><trkpt lat="44.1507249499508" lon="10.029230227990324"><ele>481.00000000000006</ele><time>2026-04-08T17:25:21.999Z</time></trkpt><trkpt lat="44.150707117046366" lon="10.029143213485531"><ele>481.0</ele><time>2026-04-08T17:25:22.999Z</time></trkpt><trkpt lat="44.15067143253207" lon="10.028981469388173"><ele>482.0</ele><time>2026-04-08T17:25:24.999Z</time></trkpt><trkpt lat="44.150645568658454" lon="10.028817692384889"><ele>483.0</ele><time>2026-04-08T17:25:26.999Z</time></trkpt><trkpt lat="44.15061300848364" lon="10.028652384985534"><ele>484.0</ele><time>2026-04-08T17:25:28.999Z</time></trkpt><trkpt lat="44.15059053437468" lon="10.02848346657326"><ele>485.0</ele><time>2026-04-08T17:25:30.999Z</time></trkpt><trkpt lat="44.15058670568862" lon="10.028388598402092"><ele>486.0</ele><time>2026-04-08T17:25:31.999Z</time></trkpt><trkpt lat="44.15058655656159" lon="10.02828733157742"><ele>486.0</ele><time>2026-04-08T17:25:32.999Z</time></trkpt><trkpt lat="44.15059170206106" lon="10.028183110790495"><ele>486.0</ele><time>2026-04-08T17:25:33.999Z</time></trkpt><trkpt lat="44.15060268205566" lon="10.028076691995615"><ele>486.0</ele><time>2026-04-08T17:25:34.999Z</time></trkpt><trkpt lat="44.150612169128806" lon="10.027966023352217"><ele>486.0</ele><time>2026-04-08T17:25:35.999Z</time></trkpt><trkpt lat="44.150621151271494" lon="10.027852705726538"><ele>486.0</ele><time>2026-04-08T17:25:36.999Z</time></trkpt><trkpt lat="44.150630663469784" lon="10.027735770102776"><ele>486.0</ele><time>2026-04-08T17:25:37.999Z</time></trkpt><trkpt lat="44.1506378058392" lon="10.027617735243462"><ele>486.0</ele><time>2026-04-08T17:25:38.999Z</time></trkpt><trkpt lat="44.15063480484346" lon="10.027509589097589"><ele>486.0</ele><time>2026-04-08T17:25:39.999Z</time></trkpt><trkpt lat="44.150610264472675" lon="10.027410615789252"><ele>486.0</ele><time>2026-04-08T17:25:40.999Z</time></trkpt><trkpt lat="44.15056943610154" lon="10.0273280041734"><ele>486.0</ele><time>2026-04-08T17:25:41.999Z</time></trkpt><trkpt lat="44.15051091885563" lon="10.027261181068194"><ele>486.0</ele><time>2026-04-08T17:25:42.999Z</time></trkpt><trkpt lat="44.15044084005445" lon="10.027222175529385"><ele>486.0</ele><time>2026-04-08T17:25:43.999Z</time></trkpt><trkpt lat="44.15036286924309" lon="10.027234845933897"><ele>488.0</ele><time>2026-04-08T17:25:44.999Z</time></trkpt><trkpt lat="44.15029662619555" lon="10.027273532057905"><ele>490.0</ele><time>2026-04-08T17:25:45.999Z</time></trkpt><trkpt lat="44.150235647438684" lon="10.027307163902698"><ele>492.0</ele><time>2026-04-08T17:25:46.999Z</time></trkpt><trkpt lat="44.150169665928196" lon="10.027284731954628"><ele>494.0</ele><time>2026-04-08T17:25:47.999Z</time></trkpt><trkpt lat="44.15010861877705" lon="10.027145555947824"><ele>496.0</ele><time>2026-04-08T17:25:49.999Z</time></trkpt><trkpt lat="44.150125997350244" lon="10.027045442613922"><ele>498.0</ele><time>2026-04-08T17:25:50.999Z</time></trkpt><trkpt lat="44.15013983814415" lon="10.026931332722777"><ele>498.0</ele><time>2026-04-08T17:25:51.999Z</time></trkpt><trkpt lat="44.15013177020231" lon="10.026799378115786"><ele>497.99999999999994</ele><time>2026-04-08T17:25:52.999Z</time></trkpt><trkpt lat="44.150113145030716" lon="10.026667063045481"><ele>497.99999999999994</ele><time>2026-04-08T17:25:53.999Z</time></trkpt><trkpt lat="44.15004220577801" lon="10.026579620360122"><ele>498.0</ele><time>2026-04-08T17:25:54.999Z</time></trkpt><trkpt lat="44.149985603495445" lon="10.026518740175916"><ele>498.0</ele><time>2026-04-08T17:25:55.999Z</time></trkpt><trkpt lat="44.14989011401752" lon="10.02647687856136"><ele>498.0</ele><time>2026-04-08T17:25:57.999Z</time></trkpt><trkpt lat="44.14980088001627" lon="10.026388363264676"><ele>498.0</ele><time>2026-04-08T17:25:59.999Z</time></trkpt><trkpt lat="44.14977385255176" lon="10.026308035449585"><ele>498.0</ele><time>2026-04-08T17:26:00.999Z</time></trkpt><trkpt lat="44.149756106482165" lon="10.026205852037256"><ele>498.0</ele><time>2026-04-08T17:26:01.999Z</time></trkpt><trkpt lat="44.1497488292074" lon="10.026078555522963"><ele>498.0</ele><time>2026-04-08T17:26:02.999Z</time></trkpt><trkpt lat="44.14975406775526" lon="10.02593875753486"><ele>498.0</ele><time>2026-04-08T17:26:03.999Z</time></trkpt><trkpt lat="44.14978608842122" lon="10.025820626851893"><ele>499.6666666666667</ele><time>2026-04-08T17:26:04.999Z</time></trkpt><trkpt lat="44.149831957384336" lon="10.025720252141536"><ele>501.33333333333337</ele><time>2026-04-08T17:26:05.999Z</time></trkpt><trkpt lat="44.1498601188716" lon="10.025626331280883"><ele>503.0</ele><time>2026-04-08T17:26:06.999Z</time></trkpt><trkpt lat="44.14988963113687" lon="10.025538367958722"><ele>504.6666666666667</ele><time>2026-04-08T17:26:07.999Z</time></trkpt><trkpt lat="44.14988336694396" lon="10.025427234875943"><ele>506.33333333333337</ele><time>2026-04-08T17:26:08.999Z</time></trkpt><trkpt lat="44.14981193168442" lon="10.02533589942576"><ele>508.0</ele><time>2026-04-08T17:26:09.999Z</time></trkpt><trkpt lat="44.14972016466178" lon="10.025318994307222"><ele>508.0</ele><time>2026-04-08T17:26:10.999Z</time></trkpt><trkpt lat="44.14962883302545" lon="10.025277441938844"><ele>508.0</ele><time>2026-04-08T17:26:11.999Z</time></trkpt><trkpt lat="44.14952965275291" lon="10.025195882556782"><ele>508.0</ele><time>2026-04-08T17:26:13Z</time></trkpt><trkpt lat="44.14943157079288" lon="10.025084777365517"><ele>508.0</ele><time>2026-04-08T17:26:14Z</time></trkpt><trkpt lat="44.14934774189488" lon="10.024969015139504"><ele>507.83333333333337</ele><time>2026-04-08T17:26:15Z</time></trkpt><trkpt lat="44.149284575599324" lon="10.024883748618086"><ele>507.6666666666667</ele><time>2026-04-08T17:26:16Z</time></trkpt><trkpt lat="44.14923028103957" lon="10.02483678911517"><ele>507.5</ele><time>2026-04-08T17:26:17Z</time></trkpt><trkpt lat="44.149167274545704" lon="10.024831392638184"><ele>507.33333333333337</ele><time>2026-04-08T17:26:18Z</time></trkpt><trkpt lat="44.14910260973292" lon="10.02487925155793"><ele>507.1666666666667</ele><time>2026-04-08T17:26:19Z</time></trkpt><trkpt lat="44.14905323653741" lon="10.024966025444533"><ele>507.0</ele><time>2026-04-08T17:26:20Z</time></trkpt><trkpt lat="44.14899642196075" lon="10.025061509218466"><ele>507.0</ele><time>2026-04-08T17:26:21Z</time></trkpt><trkpt lat="44.148931199998565" lon="10.025164282765134"><ele>507.00000000000006</ele><time>2026-04-08T17:26:22Z</time></trkpt><trkpt lat="44.148850731197605" lon="10.025254178634224"><ele>507.00000000000006</ele><time>2026-04-08T17:26:23Z</time></trkpt><trkpt lat="44.1487550002916" lon="10.025310633514106"><ele>507.0</ele><time>2026-04-08T17:26:24Z</time></trkpt><trkpt lat="44.1486395031854" lon="10.025333896380985"><ele>507.0</ele><time>2026-04-08T17:26:25Z</time></trkpt><trkpt lat="44.14851478464902" lon="10.025322566106585"><ele>507.0</ele><time>2026-04-08T17:26:26Z</time></trkpt><trkpt lat="44.14840714082035" lon="10.02526214464233"><ele>507.0</ele><time>2026-04-08T17:26:27Z</time></trkpt><trkpt lat="44.148329082693095" lon="10.025155307284807"><ele>507.0</ele><time>2026-04-08T17:26:28Z</time></trkpt><trkpt lat="44.14825527681801" lon="10.02502293395603"><ele>507.0</ele><time>2026-04-08T17:26:29Z</time></trkpt><trkpt lat="44.14817491750236" lon="10.02489284141983"><ele>511.0</ele><time>2026-04-08T17:26:30Z</time></trkpt><trkpt lat="44.14808032013519" lon="10.0247902836014"><ele>515.0</ele><time>2026-04-08T17:26:31Z</time></trkpt><trkpt lat="44.14797462788125" lon="10.024757940299905"><ele>519.0</ele><time>2026-04-08T17:26:32Z</time></trkpt><trkpt lat="44.14787301117083" lon="10.02478155300895"><ele>523.0</ele><time>2026-04-08T17:26:33Z</time></trkpt><trkpt lat="44.147768966280864" lon="10.024819697701776"><ele>527.0</ele><time>2026-04-08T17:26:34Z</time></trkpt><trkpt lat="44.14765279977346" lon="10.024866154177966"><ele>527.0</ele><time>2026-04-08T17:26:35Z</time></trkpt><trkpt lat="44.14753406018284" lon="10.024916059807424"><ele>527.0</ele><time>2026-04-08T17:26:36Z</time></trkpt><trkpt lat="44.14743464806869" lon="10.024950669090142"><ele>527.0</ele><time>2026-04-08T17:26:37Z</time></trkpt><trkpt lat="44.14734215618785" lon="10.024940840546439"><ele>527.0</ele><time>2026-04-08T17:26:38Z</time></trkpt><trkpt lat="44.14725931144412" lon="10.024869426324022"><ele>527.0</ele><time>2026-04-08T17:26:39Z</time></trkpt><trkpt lat="44.14718054555263" lon="10.02477399935635"><ele>524.25</ele><time>2026-04-08T17:26:40Z</time></trkpt><trkpt lat="44.14708996297583" lon="10.024684145896055"><ele>521.5</ele><time>2026-04-08T17:26:41Z</time></trkpt><trkpt lat="44.146983898647484" lon="10.024595728705254"><ele>518.75</ele><time>2026-04-08T17:26:42Z</time></trkpt><trkpt lat="44.1468688685323" lon="10.024518362310864"><ele>516.0</ele><time>2026-04-08T17:26:43Z</time></trkpt><trkpt lat="44.14676782053695" lon="10.024455167337202"><ele>516.0</ele><time>2026-04-08T17:26:44Z</time></trkpt><trkpt lat="44.146692266023855" lon="10.02440556584347"><ele>516.0</ele><time>2026-04-08T17:26:45Z</time></trkpt><trkpt lat="44.14662282881684" lon="10.02437880163366"><ele>516.0</ele><time>2026-04-08T17:26:46Z</time></trkpt><trkpt lat="44.14654224285852" lon="10.024375468623552"><ele>516.0</ele><time>2026-04-08T17:26:47Z</time></trkpt><trkpt lat="44.14645875974341" lon="10.02440147101126"><ele>516.0</ele><time>2026-04-08T17:26:48Z</time></trkpt><trkpt lat="44.14638640828554" lon="10.024478934599513"><ele>516.0</ele><time>2026-04-08T17:26:49Z</time></trkpt><trkpt lat="44.146309077528485" lon="10.024574938658747"><ele>513.5</ele><time>2026-04-08T17:26:50Z</time></trkpt><trkpt lat="44.14621453471274" lon="10.024678746460127"><ele>511.0</ele><time>2026-04-08T17:26:51Z</time></trkpt><trkpt lat="44.146109939183894" lon="10.024790394833413"><ele>508.5</ele><time>2026-04-08T17:26:52Z</time></trkpt><trkpt lat="44.14601338632747" lon="10.024881189932445"><ele>506.0</ele><time>2026-04-08T17:26:53Z</time></trkpt><trkpt lat="44.14590435274748" lon="10.024935892623631"><ele>506.0</ele><time>2026-04-08T17:26:54Z</time></trkpt><trkpt lat="44.145784455019076" lon="10.024952895254367"><ele>506.0</ele><time>2026-04-08T17:26:55Z</time></trkpt><trkpt lat="44.14565998933204" lon="10.024951430581202"><ele>506.0</ele><time>2026-04-08T17:26:56Z</time></trkpt><trkpt lat="44.14553977886905" lon="10.024878957300842"><ele>506.0</ele><time>2026-04-08T17:26:57Z</time></trkpt><trkpt lat="44.14540060280634" lon="10.024832881446958"><ele>506.75</ele><time>2026-04-08T17:26:58Z</time></trkpt><trkpt lat="44.14527427002935" lon="10.024760199780953"><ele>507.5</ele><time>2026-04-08T17:26:59Z</time></trkpt><trkpt lat="44.14517111625085" lon="10.024672818195347"><ele>508.25</ele><time>2026-04-08T17:27:00Z</time></trkpt><trkpt lat="44.14509084807982" lon="10.02455008506471"><ele>509.0</ele><time>2026-04-08T17:27:01Z</time></trkpt><trkpt lat="44.14502018134124" lon="10.024405333629367"><ele>509.0</ele><time>2026-04-08T17:27:02Z</time></trkpt><trkpt lat="44.14492622767334" lon="10.024299559864552"><ele>509.0</ele><time>2026-04-08T17:27:02.999Z</time></trkpt><trkpt lat="44.14482107854172" lon="10.02422375872489"><ele>509.0</ele><time>2026-04-08T17:27:03.999Z</time></trkpt><trkpt lat="44.14471396456929" lon="10.024169583063776"><ele>509.0</ele><time>2026-04-08T17:27:04.999Z</time></trkpt><trkpt lat="44.144611918734796" lon="10.024134161261182"><ele>512.6</ele><time>2026-04-08T17:27:05.999Z</time></trkpt><trkpt lat="44.14452669165164" lon="10.024104924524618"><ele>516.2</ele><time>2026-04-08T17:27:06.999Z</time></trkpt><trkpt lat="44.144450129037935" lon="10.024057679752477"><ele>519.8000000000001</ele><time>2026-04-08T17:27:07.999Z</time></trkpt><trkpt lat="44.14438474614736" lon="10.023978646823497"><ele>523.4</ele><time>2026-04-08T17:27:08.999Z</time></trkpt><trkpt lat="44.14433771707534" lon="10.023871111591346"><ele>527.0</ele><time>2026-04-08T17:27:09.999Z</time></trkpt><trkpt lat="44.144313097737104" lon="10.023728343963189"><ele>527.0</ele><time>2026-04-08T17:27:10.999Z</time></trkpt><trkpt lat="44.144319509751284" lon="10.023558020425183"><ele>527.0</ele><time>2026-04-08T17:27:11.999Z</time></trkpt><trkpt lat="44.144308736424136" lon="10.023381320784631"><ele>527.0</ele><time>2026-04-08T17:27:12.999Z</time></trkpt><trkpt lat="44.144275445017236" lon="10.023200641371483"><ele>527.0</ele><time>2026-04-08T17:27:13.999Z</time></trkpt><trkpt lat="44.14424582955159" lon="10.023009939753546"><ele>525.5</ele><time>2026-04-08T17:27:14.999Z</time></trkpt><trkpt lat="44.14421110387323" lon="10.022818294298817"><ele>524.0</ele><time>2026-04-08T17:27:15.999Z</time></trkpt><trkpt lat="44.14418098921451" lon="10.022635260428975"><ele>522.5</ele><time>2026-04-08T17:27:16.999Z</time></trkpt><trkpt lat="44.14415134258825" lon="10.022443849228097"><ele>521.0</ele><time>2026-04-08T17:27:17.999Z</time></trkpt><trkpt lat="44.14412896514251" lon="10.022243211683802"><ele>520.0</ele><time>2026-04-08T17:27:18.999Z</time></trkpt><trkpt lat="44.144100053820836" lon="10.02202827300792"><ele>519.0</ele><time>2026-04-08T17:27:19.999Z</time></trkpt><trkpt lat="44.14406760163812" lon="10.021808632658336"><ele>518.0</ele><time>2026-04-08T17:27:20.999Z</time></trkpt><trkpt lat="44.14404772178982" lon="10.02159796518359"><ele>517.75</ele><time>2026-04-08T17:27:21.999Z</time></trkpt><trkpt lat="44.14405882384093" lon="10.021413704895886"><ele>517.5</ele><time>2026-04-08T17:27:22.999Z</time></trkpt><trkpt lat="44.14405200449833" lon="10.021243712724116"><ele>517.25</ele><time>2026-04-08T17:27:23.999Z</time></trkpt><trkpt lat="44.14402026167571" lon="10.021091785333706"><ele>517.0</ele><time>2026-04-08T17:27:24.999Z</time></trkpt><trkpt lat="44.14400257441317" lon="10.020934059699567"><ele>517.0</ele><time>2026-04-08T17:27:25.999Z</time></trkpt><trkpt lat="44.143984757086855" lon="10.020782549133326"><ele>517.0</ele><time>2026-04-08T17:27:26.999Z</time></trkpt><trkpt lat="44.1439640291857" lon="10.020634087420838"><ele>517.0</ele><time>2026-04-08T17:27:27.999Z</time></trkpt><trkpt lat="44.14392936177328" lon="10.02049710123387"><ele>517.0</ele><time>2026-04-08T17:27:28.999Z</time></trkpt><trkpt lat="44.143877918189105" lon="10.020385582035646"><ele>517.0</ele><time>2026-04-08T17:27:29.999Z</time></trkpt><trkpt lat="44.143810869223884" lon="10.0202961475588"><ele>517.0</ele><time>2026-04-08T17:27:30.999Z</time></trkpt><trkpt lat="44.143727088186495" lon="10.020255442450223"><ele>517.0</ele><time>2026-04-08T17:27:31.999Z</time></trkpt><trkpt lat="44.14363121449526" lon="10.02024207497007"><ele>517.0</ele><time>2026-04-08T17:27:32.999Z</time></trkpt><trkpt lat="44.14351612098603" lon="10.020231057703244"><ele>517.0</ele><time>2026-04-08T17:27:33.999Z</time></trkpt><trkpt lat="44.14339493604647" lon="10.02022468533861"><ele>517.0</ele><time>2026-04-08T17:27:34.999Z</time></trkpt><trkpt lat="44.14327053845578" lon="10.020220219471396"><ele>515.25</ele><time>2026-04-08T17:27:35.999Z</time></trkpt><trkpt lat="44.14315089790032" lon="10.020255054214154"><ele>513.5</ele><time>2026-04-08T17:27:36.999Z</time></trkpt><trkpt lat="44.14303726339221" lon="10.020329401535557"><ele>511.75</ele><time>2026-04-08T17:27:37.999Z</time></trkpt><trkpt lat="44.14293255336608" lon="10.020428904380246"><ele>510.0</ele><time>2026-04-08T17:27:38.999Z</time></trkpt><trkpt lat="44.14283747757734" lon="10.020529725811992"><ele>510.0</ele><time>2026-04-08T17:27:39.999Z</time></trkpt><trkpt lat="44.14275262252367" lon="10.020633736761022"><ele>510.0</ele><time>2026-04-08T17:27:40.999Z</time></trkpt><trkpt lat="44.142684877324655" lon="10.020752717442463"><ele>510.0</ele><time>2026-04-08T17:27:41.999Z</time></trkpt><trkpt lat="44.14264267948057" lon="10.020887924194087"><ele>510.0</ele><time>2026-04-08T17:27:42.999Z</time></trkpt><trkpt lat="44.14262173029743" lon="10.021028055400514"><ele>510.0</ele><time>2026-04-08T17:27:43.999Z</time></trkpt><trkpt lat="44.14262235265681" lon="10.02116885113678"><ele>511.8333333333333</ele><time>2026-04-08T17:27:44.999Z</time></trkpt><trkpt lat="44.14261918334337" lon="10.021308861625172"><ele>513.6666666666666</ele><time>2026-04-08T17:27:45.999Z</time></trkpt><trkpt lat="44.14261393845148" lon="10.021434713130338"><ele>515.5</ele><time>2026-04-08T17:27:46.999Z</time></trkpt><trkpt lat="44.142612746544465" lon="10.021557222910262"><ele>517.3333333333333</ele><time>2026-04-08T17:27:47.999Z</time></trkpt><trkpt lat="44.142597830852495" lon="10.02167072441384"><ele>519.1666666666666</ele><time>2026-04-08T17:27:48.999Z</time></trkpt><trkpt lat="44.142572620486646" lon="10.02177168433479"><ele>521.0</ele><time>2026-04-08T17:27:49.999Z</time></trkpt><trkpt lat="44.14248976795309" lon="10.021883469196256"><ele>520.6</ele><time>2026-04-08T17:27:51.999Z</time></trkpt><trkpt lat="44.1423550173923" lon="10.021944962177741"><ele>520.2</ele><time>2026-04-08T17:27:53.999Z</time></trkpt><trkpt lat="44.142272075772446" lon="10.021982072948651"><ele>519.8</ele><time>2026-04-08T17:27:54.999Z</time></trkpt><trkpt lat="44.14218805119466" lon="10.022031989254982"><ele>519.4</ele><time>2026-04-08T17:27:55.999Z</time></trkpt><trkpt lat="44.1420993985014" lon="10.022096294107186"><ele>519.0</ele><time>2026-04-08T17:27:56.999Z</time></trkpt><trkpt lat="44.14200768435834" lon="10.02216421863227"><ele>519.0</ele><time>2026-04-08T17:27:57.999Z</time></trkpt><trkpt lat="44.141910022126986" lon="10.02222304356246"><ele>519.0</ele><time>2026-04-08T17:27:58.999Z</time></trkpt><trkpt lat="44.14180953797196" lon="10.022282995647828"><ele>519.0</ele><time>2026-04-08T17:27:59.999Z</time></trkpt><trkpt lat="44.14171085623936" lon="10.022327476661978"><ele>519.0</ele><time>2026-04-08T17:28:00.999Z</time></trkpt><trkpt lat="44.14162378021061" lon="10.022337793907276"><ele>519.0</ele><time>2026-04-08T17:28:01.999Z</time></trkpt><trkpt lat="44.14154896092112" lon="10.022299726600142"><ele>517.8</ele><time>2026-04-08T17:28:02.999Z</time></trkpt><trkpt lat="44.14149203569584" lon="10.022206125545775"><ele>516.5999999999999</ele><time>2026-04-08T17:28:03.999Z</time></trkpt><trkpt lat="44.14145028447878" lon="10.022099555081892"><ele>515.4</ele><time>2026-04-08T17:28:04.999Z</time></trkpt><trkpt lat="44.141393138063265" lon="10.022001333973856"><ele>514.1999999999999</ele><time>2026-04-08T17:28:05.999Z</time></trkpt><trkpt lat="44.14131896105058" lon="10.02192818835296"><ele>513.0</ele><time>2026-04-08T17:28:06.999Z</time></trkpt><trkpt lat="44.14122630114188" lon="10.021881672590656"><ele>513.0</ele><time>2026-04-08T17:28:07.999Z</time></trkpt><trkpt lat="44.14111789034022" lon="10.021848101613108"><ele>513.0</ele><time>2026-04-08T17:28:08.999Z</time></trkpt><trkpt lat="44.140999624460065" lon="10.021823570895222"><ele>513.0</ele><time>2026-04-08T17:28:09.999Z</time></trkpt><trkpt lat="44.14088228174827" lon="10.021805719557511"><ele>513.0</ele><time>2026-04-08T17:28:10.999Z</time></trkpt><trkpt lat="44.14077310129797" lon="10.021794331169733"><ele>510.59999999999997</ele><time>2026-04-08T17:28:11.999Z</time></trkpt><trkpt lat="44.14067039218725" lon="10.021794235465968"><ele>508.19999999999993</ele><time>2026-04-08T17:28:12.999Z</time></trkpt><trkpt lat="44.14057547299942" lon="10.021840941310401"><ele>505.8</ele><time>2026-04-08T17:28:13.999Z</time></trkpt><trkpt lat="44.140488886833296" lon="10.021924273484498"><ele>503.4</ele><time>2026-04-08T17:28:14.999Z</time></trkpt><trkpt lat="44.14041972070725" lon="10.022034115687468"><ele>501.0</ele><time>2026-04-08T17:28:15.999Z</time></trkpt><trkpt lat="44.14037484435615" lon="10.022157658726632"><ele>501.0</ele><time>2026-04-08T17:28:16.999Z</time></trkpt><trkpt lat="44.14033358015208" lon="10.0222775221277"><ele>501.0</ele><time>2026-04-08T17:28:18Z</time></trkpt><trkpt lat="44.14026701495284" lon="10.0223826056872"><ele>501.0</ele><time>2026-04-08T17:28:19Z</time></trkpt><trkpt lat="44.14018515598657" lon="10.022470033149265"><ele>501.0</ele><time>2026-04-08T17:28:20Z</time></trkpt><trkpt lat="44.1400890527792" lon="10.022536380554191"><ele>501.0</ele><time>2026-04-08T17:28:21Z</time></trkpt><trkpt lat="44.13998582237287" lon="10.022599201985974"><ele>502.25</ele><time>2026-04-08T17:28:22Z</time></trkpt><trkpt lat="44.139883510447106" lon="10.022656581419835"><ele>503.5</ele><time>2026-04-08T17:28:23Z</time></trkpt><trkpt lat="44.13977286274072" lon="10.02271092133282"><ele>504.75</ele><time>2026-04-08T17:28:24Z</time></trkpt><trkpt lat="44.13964911554369" lon="10.02275473292134"><ele>506.0</ele><time>2026-04-08T17:28:25Z</time></trkpt><trkpt lat="44.139529773023085" lon="10.022794897371801"><ele>506.0</ele><time>2026-04-08T17:28:26Z</time></trkpt><trkpt lat="44.13942107099338" lon="10.022826301440215"><ele>506.0</ele><time>2026-04-08T17:28:27Z</time></trkpt><trkpt lat="44.139321733242184" lon="10.022860678069724"><ele>506.0</ele><time>2026-04-08T17:28:28Z</time></trkpt><trkpt lat="44.13922670388145" lon="10.022906562717507"><ele>506.0</ele><time>2026-04-08T17:28:29Z</time></trkpt><trkpt lat="44.139141285983634" lon="10.022961573500496"><ele>506.0</ele><time>2026-04-08T17:28:30Z</time></trkpt><trkpt lat="44.13907111677453" lon="10.02303259876527"><ele>506.8</ele><time>2026-04-08T17:28:31Z</time></trkpt><trkpt lat="44.1390101262535" lon="10.023116489501996"><ele>507.6</ele><time>2026-04-08T17:28:32Z</time></trkpt><trkpt lat="44.1389523643253" lon="10.023214452383828"><ele>508.4</ele><time>2026-04-08T17:28:33Z</time></trkpt><trkpt lat="44.13888812755221" lon="10.02332804005549"><ele>509.2</ele><time>2026-04-08T17:28:34Z</time></trkpt><trkpt lat="44.13881990753581" lon="10.02343885979282"><ele>510.0</ele><time>2026-04-08T17:28:35Z</time></trkpt><trkpt lat="44.13875154911157" lon="10.023525334835206"><ele>510.0</ele><time>2026-04-08T17:28:36Z</time></trkpt><trkpt lat="44.13867631173136" lon="10.02358304433927"><ele>510.0</ele><time>2026-04-08T17:28:37Z</time></trkpt><trkpt lat="44.13858735035163" lon="10.023602152967479"><ele>510.0</ele><time>2026-04-08T17:28:38Z</time></trkpt><trkpt lat="44.13849360152125" lon="10.023612089405887"><ele>510.0</ele><time>2026-04-08T17:28:39Z</time></trkpt><trkpt lat="44.13839139941113" lon="10.023615060686454"><ele>510.0</ele><time>2026-04-08T17:28:40Z</time></trkpt><trkpt lat="44.13828157462881" lon="10.023603055656025"><ele>506.25</ele><time>2026-04-08T17:28:41Z</time></trkpt><trkpt lat="44.13816232728114" lon="10.023579180560514"><ele>502.5</ele><time>2026-04-08T17:28:42Z</time></trkpt><trkpt lat="44.138038611899596" lon="10.023530310286713"><ele>498.75</ele><time>2026-04-08T17:28:43Z</time></trkpt><trkpt lat="44.13792310903075" lon="10.023476452901754"><ele>495.0</ele><time>2026-04-08T17:28:44Z</time></trkpt><trkpt lat="44.13781847990756" lon="10.023420894938706"><ele>495.0</ele><time>2026-04-08T17:28:45Z</time></trkpt><trkpt lat="44.13771183934116" lon="10.023358112765255"><ele>495.0</ele><time>2026-04-08T17:28:46Z</time></trkpt><trkpt lat="44.13760859837774" lon="10.023286314237813"><ele>495.0</ele><time>2026-04-08T17:28:47Z</time></trkpt><trkpt lat="44.1375044073392" lon="10.023197364430441"><ele>495.0</ele><time>2026-04-08T17:28:48Z</time></trkpt><trkpt lat="44.13739791895099" lon="10.02309370966018"><ele>493.5</ele><time>2026-04-08T17:28:49Z</time></trkpt><trkpt lat="44.13727844057514" lon="10.022980788789921"><ele>492.0</ele><time>2026-04-08T17:28:50Z</time></trkpt><trkpt lat="44.137168064926065" lon="10.022866596596804"><ele>490.5</ele><time>2026-04-08T17:28:51Z</time></trkpt><trkpt lat="44.137065248438866" lon="10.022755545923337"><ele>489.0</ele><time>2026-04-08T17:28:52Z</time></trkpt><trkpt lat="44.13696856219675" lon="10.02264963294816"><ele>489.0</ele><time>2026-04-08T17:28:53Z</time></trkpt><trkpt lat="44.13688020250859" lon="10.022536862855576"><ele>489.0</ele><time>2026-04-08T17:28:54Z</time></trkpt><trkpt lat="44.13678486446607" lon="10.022416627442748"><ele>489.0</ele><time>2026-04-08T17:28:55Z</time></trkpt><trkpt lat="44.1366776977868" lon="10.022278674964499"><ele>489.0</ele><time>2026-04-08T17:28:56Z</time></trkpt><trkpt lat="44.13656314537205" lon="10.022128855601476"><ele>492.6</ele><time>2026-04-08T17:28:57Z</time></trkpt><trkpt lat="44.136457562860244" lon="10.022007010640634"><ele>496.2</ele><time>2026-04-08T17:28:58Z</time></trkpt><trkpt lat="44.136382675242395" lon="10.021903573788569"><ele>499.80000000000007</ele><time>2026-04-08T17:28:59Z</time></trkpt><trkpt lat="44.136320216681774" lon="10.021804569922772"><ele>503.40000000000003</ele><time>2026-04-08T17:29:00Z</time></trkpt><trkpt lat="44.13627894200633" lon="10.02169321004601"><ele>507.0</ele><time>2026-04-08T17:29:01Z</time></trkpt><trkpt lat="44.136288673231896" lon="10.021554917665643"><ele>508.8</ele><time>2026-04-08T17:29:02Z</time></trkpt><trkpt lat="44.136292120671655" lon="10.021391901332098"><ele>510.6</ele><time>2026-04-08T17:29:03Z</time></trkpt><trkpt lat="44.136280865850445" lon="10.0212430226762"><ele>512.4000000000001</ele><time>2026-04-08T17:29:04Z</time></trkpt><trkpt lat="44.136276715707545" lon="10.021112842578402"><ele>514.2</ele><time>2026-04-08T17:29:05Z</time></trkpt><trkpt lat="44.13626675379932" lon="10.020973016946172"><ele>516.0</ele><time>2026-04-08T17:29:06Z</time></trkpt><trkpt lat="44.136244489185735" lon="10.020827203678747"><ele>512.8</ele><time>2026-04-08T17:29:07Z</time></trkpt><trkpt lat="44.13622204497527" lon="10.02066502404448"><ele>509.6</ele><time>2026-04-08T17:29:08Z</time></trkpt><trkpt lat="44.136180407286965" lon="10.020511332941584"><ele>506.4</ele><time>2026-04-08T17:29:08.999Z</time></trkpt><trkpt lat="44.13612873643016" lon="10.020391711338693"><ele>503.2</ele><time>2026-04-08T17:29:09.999Z</time></trkpt><trkpt lat="44.136084165630294" lon="10.020295901735672"><ele>500.0</ele><time>2026-04-08T17:29:10.999Z</time></trkpt><trkpt lat="44.13603265767571" lon="10.020206145849864"><ele>500.0</ele><time>2026-04-08T17:29:11.999Z</time></trkpt><trkpt lat="44.13593431979349" lon="10.02018828539031"><ele>500.0</ele><time>2026-04-08T17:29:12.999Z</time></trkpt><trkpt lat="44.13583193058937" lon="10.02017994924304"><ele>500.0</ele><time>2026-04-08T17:29:13.999Z</time></trkpt><trkpt lat="44.135719860451026" lon="10.020174221525142"><ele>500.0</ele><time>2026-04-08T17:29:14.999Z</time></trkpt><trkpt lat="44.13562780964298" lon="10.020140481580965"><ele>500.0</ele><time>2026-04-08T17:29:15.999Z</time></trkpt><trkpt lat="44.13557492376036" lon="10.020047318299259"><ele>499.8</ele><time>2026-04-08T17:29:16.999Z</time></trkpt><trkpt lat="44.13550394824818" lon="10.019957084096925"><ele>499.6</ele><time>2026-04-08T17:29:17.999Z</time></trkpt><trkpt lat="44.13543753274795" lon="10.019840728556622"><ele>499.4</ele><time>2026-04-08T17:29:18.999Z</time></trkpt><trkpt lat="44.135368618787076" lon="10.019732017107918"><ele>499.2</ele><time>2026-04-08T17:29:19.999Z</time></trkpt><trkpt lat="44.13530115644465" lon="10.019627535968981"><ele>499.0</ele><time>2026-04-08T17:29:20.999Z</time></trkpt><trkpt lat="44.13522732412791" lon="10.019535823730049"><ele>499.0</ele><time>2026-04-08T17:29:21.999Z</time></trkpt><trkpt lat="44.13514487183954" lon="10.019455008483577"><ele>499.0</ele><time>2026-04-08T17:29:22.999Z</time></trkpt><trkpt lat="44.135066700296115" lon="10.019367758686874"><ele>499.0</ele><time>2026-04-08T17:29:23.999Z</time></trkpt><trkpt lat="44.13501206499583" lon="10.019257783533574"><ele>499.0</ele><time>2026-04-08T17:29:24.999Z</time></trkpt><trkpt lat="44.13498256207084" lon="10.019134830628364"><ele>499.0</ele><time>2026-04-08T17:29:25.999Z</time></trkpt><trkpt lat="44.13497220200323" lon="10.019033505507005"><ele>499.0</ele><time>2026-04-08T17:29:26.999Z</time></trkpt><trkpt lat="44.13495173068382" lon="10.01893683061747"><ele>499.0</ele><time>2026-04-08T17:29:27.999Z</time></trkpt><trkpt lat="44.134861847376136" lon="10.018871878269453"><ele>499.0</ele><time>2026-04-08T17:29:28.999Z</time></trkpt><trkpt lat="44.13477478030106" lon="10.018786744530697"><ele>499.0</ele><time>2026-04-08T17:29:29.999Z</time></trkpt><trkpt lat="44.13467370067875" lon="10.018702811435002"><ele>499.0</ele><time>2026-04-08T17:29:30.999Z</time></trkpt><trkpt lat="44.134576084684" lon="10.018621310513769"><ele>499.0</ele><time>2026-04-08T17:29:31.999Z</time></trkpt><trkpt lat="44.13448546163439" lon="10.018543651228875"><ele>499.0</ele><time>2026-04-08T17:29:32.999Z</time></trkpt><trkpt lat="44.134399403811095" lon="10.018470471839331"><ele>499.0</ele><time>2026-04-08T17:29:33.999Z</time></trkpt><trkpt lat="44.13431854620805" lon="10.018396864994587"><ele>499.0</ele><time>2026-04-08T17:29:34.999Z</time></trkpt><trkpt lat="44.13424708676547" lon="10.018317764765282"><ele>499.0</ele><time>2026-04-08T17:29:35.999Z</time></trkpt><trkpt lat="44.134194404007175" lon="10.01823477316349"><ele>496.79999999999995</ele><time>2026-04-08T17:29:36.999Z</time></trkpt><trkpt lat="44.13414639083429" lon="10.018136116545442"><ele>494.59999999999997</ele><time>2026-04-08T17:29:37.999Z</time></trkpt><trkpt lat="44.13409357215324" lon="10.018018193461106"><ele>492.4</ele><time>2026-04-08T17:29:38.999Z</time></trkpt><trkpt lat="44.13403785678078" lon="10.017881504215126"><ele>490.2</ele><time>2026-04-08T17:29:39.999Z</time></trkpt><trkpt lat="44.133987347609946" lon="10.017751451731883"><ele>488.0</ele><time>2026-04-08T17:29:40.999Z</time></trkpt><trkpt lat="44.13394141196035" lon="10.017631027799933"><ele>488.0</ele><time>2026-04-08T17:29:41.999Z</time></trkpt><trkpt lat="44.13390531108098" lon="10.017519744143856"><ele>487.99999999999994</ele><time>2026-04-08T17:29:42.999Z</time></trkpt><trkpt lat="44.13388047734488" lon="10.017405937280321"><ele>487.99999999999994</ele><time>2026-04-08T17:29:43.999Z</time></trkpt><trkpt lat="44.13386386096849" lon="10.01726776564423"><ele>488.0</ele><time>2026-04-08T17:29:44.999Z</time></trkpt><trkpt lat="44.13384847427164" lon="10.017118946416405"><ele>488.0</ele><time>2026-04-08T17:29:45.999Z</time></trkpt><trkpt lat="44.13381901044684" lon="10.01698111351642"><ele>485.66666666666663</ele><time>2026-04-08T17:29:46.999Z</time></trkpt><trkpt lat="44.1338100246544" lon="10.016861565778928"><ele>483.3333333333333</ele><time>2026-04-08T17:29:47.999Z</time></trkpt><trkpt lat="44.13379820527128" lon="10.01676658235836"><ele>481.0</ele><time>2026-04-08T17:29:48.999Z</time></trkpt><trkpt lat="44.13380567781009" lon="10.01667728818385"><ele>478.66666666666663</ele><time>2026-04-08T17:29:49.999Z</time></trkpt><trkpt lat="44.13373455554897" lon="10.016610052366188"><ele>476.3333333333333</ele><time>2026-04-08T17:29:50.999Z</time></trkpt><trkpt lat="44.13366467959831" lon="10.016603736350023"><ele>474.0</ele><time>2026-04-08T17:29:51.999Z</time></trkpt><trkpt lat="44.133590245039535" lon="10.016605382235875"><ele>474.0</ele><time>2026-04-08T17:29:52.999Z</time></trkpt><trkpt lat="44.1335085157737" lon="10.01662606850987"><ele>474.0</ele><time>2026-04-08T17:29:53.999Z</time></trkpt><trkpt lat="44.13342264030867" lon="10.016658743651973"><ele>474.0</ele><time>2026-04-08T17:29:54.999Z</time></trkpt><trkpt lat="44.1333329128522" lon="10.016702579280993"><ele>474.0</ele><time>2026-04-08T17:29:55.999Z</time></trkpt><trkpt lat="44.13325219272719" lon="10.01676634690468"><ele>474.0</ele><time>2026-04-08T17:29:56.999Z</time></trkpt><trkpt lat="44.13318026913636" lon="10.016850220271218"><ele>470.4</ele><time>2026-04-08T17:29:57.999Z</time></trkpt><trkpt lat="44.13312610530131" lon="10.016958600433021"><ele>466.79999999999995</ele><time>2026-04-08T17:29:58.999Z</time></trkpt><trkpt lat="44.13308196756457" lon="10.017073602085054"><ele>463.20000000000005</ele><time>2026-04-08T17:29:59.999Z</time></trkpt><trkpt lat="44.13303907520973" lon="10.017185875537907"><ele>459.6</ele><time>2026-04-08T17:30:00.999Z</time></trkpt><trkpt lat="44.132991833729086" lon="10.017299152320515"><ele>456.0</ele><time>2026-04-08T17:30:01.999Z</time></trkpt><trkpt lat="44.1329372554617" lon="10.017416003107995"><ele>458.0</ele><time>2026-04-08T17:30:02.999Z</time></trkpt><trkpt lat="44.132880046850524" lon="10.017540140128865"><ele>460.0</ele><time>2026-04-08T17:30:03.999Z</time></trkpt><trkpt lat="44.13282827381559" lon="10.017664340994331"><ele>462.0</ele><time>2026-04-08T17:30:04.999Z</time></trkpt><trkpt lat="44.132775788133536" lon="10.017785044195847"><ele>464.0</ele><time>2026-04-08T17:30:05.999Z</time></trkpt><trkpt lat="44.132725404964475" lon="10.017897174535982"><ele>466.0</ele><time>2026-04-08T17:30:06.999Z</time></trkpt><trkpt lat="44.132674710711456" lon="10.017999120442717"><ele>466.00000000000006</ele><time>2026-04-08T17:30:07.999Z</time></trkpt><trkpt lat="44.1326131143815" lon="10.018071509186333"><ele>466.0</ele><time>2026-04-08T17:30:08.999Z</time></trkpt><trkpt lat="44.132544793874594" lon="10.01813117269646"><ele>466.0</ele><time>2026-04-08T17:30:09.999Z</time></trkpt><trkpt lat="44.13246378066202" lon="10.018179341148318"><ele>466.0</ele><time>2026-04-08T17:30:10.999Z</time></trkpt><trkpt lat="44.1323858639738" lon="10.018194893323628"><ele>466.00000000000006</ele><time>2026-04-08T17:30:11.999Z</time></trkpt><trkpt lat="44.132319921305495" lon="10.018187869751257"><ele>466.0</ele><time>2026-04-08T17:30:12.999Z</time></trkpt><trkpt lat="44.13225688692043" lon="10.018158576053477"><ele>464.4</ele><time>2026-04-08T17:30:13.999Z</time></trkpt><trkpt lat="44.13219868388679" lon="10.018093649729753"><ele>462.8</ele><time>2026-04-08T17:30:14.999Z</time></trkpt><trkpt lat="44.132134125998554" lon="10.018002908350537"><ele>461.19999999999993</ele><time>2026-04-08T17:30:15.999Z</time></trkpt><trkpt lat="44.13205071039822" lon="10.017892995529568"><ele>459.59999999999997</ele><time>2026-04-08T17:30:16.999Z</time></trkpt><trkpt lat="44.13195581882639" lon="10.017776222611277"><ele>458.0</ele><time>2026-04-08T17:30:17.999Z</time></trkpt><trkpt lat="44.131851676699526" lon="10.017653604067885"><ele>458.0</ele><time>2026-04-08T17:30:18.999Z</time></trkpt><trkpt lat="44.131760278318524" lon="10.017546872605175"><ele>458.0</ele><time>2026-04-08T17:30:19.999Z</time></trkpt><trkpt lat="44.13166118864939" lon="10.017466627030641"><ele>458.0</ele><time>2026-04-08T17:30:20.999Z</time></trkpt><trkpt lat="44.13153468212419" lon="10.01740427801115"><ele>458.0</ele><time>2026-04-08T17:30:21.999Z</time></trkpt><trkpt lat="44.131415877364454" lon="10.017361895386252"><ele>454.16666666666663</ele><time>2026-04-08T17:30:22.999Z</time></trkpt><trkpt lat="44.13131986839832" lon="10.017326931218442"><ele>450.3333333333333</ele><time>2026-04-08T17:30:24Z</time></trkpt><trkpt lat="44.13124355420829" lon="10.017306206080551"><ele>446.5</ele><time>2026-04-08T17:30:25Z</time></trkpt><trkpt lat="44.13117358951745" lon="10.017261449676313"><ele>442.66666666666663</ele><time>2026-04-08T17:30:27Z</time></trkpt><trkpt lat="44.131205801188166" lon="10.017169856746095"><ele>438.8333333333333</ele><time>2026-04-08T17:30:30Z</time></trkpt><trkpt lat="44.131319719917705" lon="10.017214758631782"><ele>435.0</ele><time>2026-04-08T17:30:32Z</time></trkpt><trkpt lat="44.131384207056975" lon="10.017208484579768"><ele>435.0</ele><time>2026-04-08T17:30:33Z</time></trkpt><trkpt lat="44.131459140835624" lon="10.017239650961544"><ele>435.0</ele><time>2026-04-08T17:30:34Z</time></trkpt><trkpt lat="44.1315450127331" lon="10.017252227645159"><ele>435.0</ele><time>2026-04-08T17:30:35Z</time></trkpt><trkpt lat="44.131635121537734" lon="10.017263759001814"><ele>435.0</ele><time>2026-04-08T17:30:36Z</time></trkpt><trkpt lat="44.13171523606355" lon="10.017251749001039"><ele>435.0</ele><time>2026-04-08T17:30:37Z</time></trkpt><trkpt lat="44.13178330567105" lon="10.017275516276188"><ele>435.0</ele><time>2026-04-08T17:30:38Z</time></trkpt><trkpt lat="44.131854066026875" lon="10.017244969515746"><ele>436.4</ele><time>2026-04-08T17:30:39Z</time></trkpt><trkpt lat="44.13190113830968" lon="10.017142522618833"><ele>437.8</ele><time>2026-04-08T17:30:40Z</time></trkpt><trkpt lat="44.13196989886336" lon="10.017061804956287"><ele>439.20000000000005</ele><time>2026-04-08T17:30:41Z</time></trkpt><trkpt lat="44.13203572242218" lon="10.01695470930674"><ele>440.6</ele><time>2026-04-08T17:30:42Z</time></trkpt><trkpt lat="44.132113441799326" lon="10.016835084634684"><ele>442.0</ele><time>2026-04-08T17:30:43Z</time></trkpt><trkpt lat="44.13220216850802" lon="10.01669851756374"><ele>441.0</ele><time>2026-04-08T17:30:44Z</time></trkpt><trkpt lat="44.132301873686885" lon="10.016542374309791"><ele>440.0</ele><time>2026-04-08T17:30:45Z</time></trkpt><trkpt lat="44.13240319308227" lon="10.016383556135628"><ele>439.0</ele><time>2026-04-08T17:30:46Z</time></trkpt><trkpt lat="44.1324948779253" lon="10.016242399479358"><ele>438.0</ele><time>2026-04-08T17:30:47Z</time></trkpt><trkpt lat="44.132582391841304" lon="10.016108405841495"><ele>438.0</ele><time>2026-04-08T17:30:48Z</time></trkpt><trkpt lat="44.13266420442042" lon="10.015982122306456"><ele>438.0</ele><time>2026-04-08T17:30:49Z</time></trkpt><trkpt lat="44.13273983053811" lon="10.015863525384718"><ele>438.0</ele><time>2026-04-08T17:30:50Z</time></trkpt><trkpt lat="44.13281206356861" lon="10.015750623084012"><ele>438.0</ele><time>2026-04-08T17:30:51Z</time></trkpt><trkpt lat="44.13288271550987" lon="10.015641602559043"><ele>436.59999999999997</ele><time>2026-04-08T17:30:52Z</time></trkpt><trkpt lat="44.132960028062186" lon="10.01552422834465"><ele>435.19999999999993</ele><time>2026-04-08T17:30:53Z</time></trkpt><trkpt lat="44.13304303851613" lon="10.01540778070009"><ele>433.8</ele><time>2026-04-08T17:30:54Z</time></trkpt><trkpt lat="44.133117298853975" lon="10.015302367020574"><ele>432.4</ele><time>2026-04-08T17:30:55Z</time></trkpt><trkpt lat="44.13317321951997" lon="10.015221501418957"><ele>431.0</ele><time>2026-04-08T17:30:56Z</time></trkpt><trkpt lat="44.133237489658256" lon="10.015128560209382"><ele>430.20000000000005</ele><time>2026-04-08T17:30:58Z</time></trkpt><trkpt lat="44.13316542192086" lon="10.015020244419452"><ele>429.40000000000003</ele><time>2026-04-08T17:30:59Z</time></trkpt><trkpt lat="44.13304318967841" lon="10.015024446715179"><ele>428.6</ele><time>2026-04-08T17:31:01Z</time></trkpt><trkpt lat="44.1329663607364" lon="10.015079763854759"><ele>427.8</ele><time>2026-04-08T17:31:02Z</time></trkpt><trkpt lat="44.132871051159064" lon="10.01512625403129"><ele>427.0</ele><time>2026-04-08T17:31:03Z</time></trkpt><trkpt lat="44.13278470146668" lon="10.015169520198011"><ele>427.00000000000006</ele><time>2026-04-08T17:31:04Z</time></trkpt><trkpt lat="44.13271241442181" lon="10.01515387378068"><ele>427.0</ele><time>2026-04-08T17:31:07Z</time></trkpt><trkpt lat="44.13270337621096" lon="10.015016681842527"><ele>427.0</ele><time>2026-04-08T17:31:09Z</time></trkpt><trkpt lat="44.13272312970491" lon="10.01493158234547"><ele>427.0</ele><time>2026-04-08T17:31:10Z</time></trkpt><trkpt lat="44.132707768689194" lon="10.01477367107662"><ele>427.00000000000006</ele><time>2026-04-08T17:31:12Z</time></trkpt><trkpt lat="44.132652134260155" lon="10.014701625668563"><ele>427.0</ele><time>2026-04-08T17:31:13Z</time></trkpt><trkpt lat="44.132585264454846" lon="10.014610471471332"><ele>425.6</ele><time>2026-04-08T17:31:14Z</time></trkpt><trkpt lat="44.1325166609537" lon="10.01450108193505"><ele>424.20000000000005</ele><time>2026-04-08T17:31:15Z</time></trkpt><trkpt lat="44.13244482657562" lon="10.014388046517507"><ele>422.8</ele><time>2026-04-08T17:31:15.999Z</time></trkpt><trkpt lat="44.132376089581555" lon="10.014280754554994"><ele>421.4</ele><time>2026-04-08T17:31:16.999Z</time></trkpt><trkpt lat="44.13232085428043" lon="10.014170018005554"><ele>420.0</ele><time>2026-04-08T17:31:17.999Z</time></trkpt><trkpt lat="44.132269028148016" lon="10.014102701456004"><ele>416.6</ele><time>2026-04-08T17:31:18.999Z</time></trkpt><trkpt lat="44.132203251037645" lon="10.013987401662503"><ele>413.2</ele><time>2026-04-08T17:31:20.999Z</time></trkpt><trkpt lat="44.13215557652107" lon="10.013890078331617"><ele>409.79999999999995</ele><time>2026-04-08T17:31:22.999Z</time></trkpt><trkpt lat="44.13211081941085" lon="10.013788982940229"><ele>406.4</ele><time>2026-04-08T17:31:26.999Z</time></trkpt><trkpt lat="44.132035319453436" lon="10.013635734044241"><ele>403.0</ele><time>2026-04-08T17:31:28.999Z</time></trkpt><trkpt lat="44.13197489535637" lon="10.01352914510511"><ele>403.0</ele><time>2026-04-08T17:31:29.999Z</time></trkpt><trkpt lat="44.13189365112809" lon="10.013392410355301"><ele>403.0</ele><time>2026-04-08T17:31:30.999Z</time></trkpt><trkpt lat="44.1318106474806" lon="10.013243982361912"><ele>403.0</ele><time>2026-04-08T17:31:31.999Z</time></trkpt><trkpt lat="44.13172857529342" lon="10.0131186039936"><ele>403.0</ele><time>2026-04-08T17:31:32.999Z</time></trkpt><trkpt lat="44.1316622158176" lon="10.013020375389296"><ele>401.59999999999997</ele><time>2026-04-08T17:31:33.999Z</time></trkpt><trkpt lat="44.13158633633843" lon="10.012890690131977"><ele>400.2</ele><time>2026-04-08T17:31:35.999Z</time></trkpt><trkpt lat="44.1315963061112" lon="10.012701176958906"><ele>398.8</ele><time>2026-04-08T17:31:37.999Z</time></trkpt><trkpt lat="44.13158809747668" lon="10.01260819287023"><ele>397.4</ele><time>2026-04-08T17:31:38.999Z</time></trkpt><trkpt lat="44.131569671555745" lon="10.01245145016986"><ele>396.0</ele><time>2026-04-08T17:31:40.999Z</time></trkpt><trkpt lat="44.13156804244071" lon="10.012333481825953"><ele>397.6</ele><time>2026-04-08T17:31:42.999Z</time></trkpt><trkpt lat="44.131582338438974" lon="10.012242916151983"><ele>399.20000000000005</ele><time>2026-04-08T17:31:44.999Z</time></trkpt><trkpt lat="44.13160103216945" lon="10.012137630231756"><ele>400.79999999999995</ele><time>2026-04-08T17:31:47.999Z</time></trkpt><trkpt lat="44.131595662182114" lon="10.011992049913106"><ele>402.4</ele><time>2026-04-08T17:31:50.999Z</time></trkpt><trkpt lat="44.131525795085956" lon="10.011856282984809"><ele>404.0</ele><time>2026-04-08T17:31:52.999Z</time></trkpt><trkpt lat="44.13144050220968" lon="10.011768382259804"><ele>404.0</ele><time>2026-04-08T17:31:54.999Z</time></trkpt><trkpt lat="44.1313857299804" lon="10.011677945658633"><ele>404.0</ele><time>2026-04-08T17:31:56.999Z</time></trkpt><trkpt lat="44.13136914662614" lon="10.011540549888117"><ele>404.0</ele><time>2026-04-08T17:31:58.999Z</time></trkpt><trkpt lat="44.131387841186815" lon="10.011408929884624"><ele>404.0</ele><time>2026-04-08T17:32:00.999Z</time></trkpt><trkpt lat="44.13142355770726" lon="10.011297556395425"><ele>404.0</ele><time>2026-04-08T17:32:02.999Z</time></trkpt><trkpt lat="44.1314717930031" lon="10.01119847923808"><ele>399.75</ele><time>2026-04-08T17:32:05.999Z</time></trkpt><trkpt lat="44.13154165458106" lon="10.011097395522283"><ele>395.5</ele><time>2026-04-08T17:32:08.999Z</time></trkpt><trkpt lat="44.13143604783529" lon="10.011231183645712"><ele>391.25</ele><time>2026-04-08T17:32:09.999Z</time></trkpt><trkpt lat="44.13129211376302" lon="10.011137981227607"><ele>387.0</ele><time>2026-04-08T17:32:10.999Z</time></trkpt><trkpt lat="44.131363046844825" lon="10.011124033325205"><ele>387.0</ele><time>2026-04-08T17:33:06Z</time></trkpt><trkpt lat="44.13142743964406" lon="10.01116255381963"><ele>387.0</ele><time>2026-04-08T17:33:09Z</time></trkpt><trkpt lat="44.13142597153561" lon="10.011251256787103"><ele>387.0</ele><time>2026-04-08T17:33:11Z</time></trkpt><trkpt lat="44.131378946008354" lon="10.011365583091056"><ele>387.0</ele><time>2026-04-08T17:33:13Z</time></trkpt><trkpt lat="44.1313574289733" lon="10.011450301279758"><ele>387.0</ele><time>2026-04-08T17:33:14Z</time></trkpt><trkpt lat="44.13134316789793" lon="10.01154688564424"><ele>387.0</ele><time>2026-04-08T17:33:15Z</time></trkpt><trkpt lat="44.13134233765389" lon="10.011648741797432"><ele>387.0</ele><time>2026-04-08T17:33:16Z</time></trkpt><trkpt lat="44.131360418320895" lon="10.01175197827804"><ele>387.0</ele><time>2026-04-08T17:33:17Z</time></trkpt><trkpt lat="44.1313951876558" lon="10.011845831045155"><ele>387.0</ele><time>2026-04-08T17:33:18Z</time></trkpt><trkpt lat="44.13146290630017" lon="10.011886270660467"><ele>387.0</ele><time>2026-04-08T17:33:19Z</time></trkpt><trkpt lat="44.13152317874483" lon="10.011949973082992"><ele>387.0</ele><time>2026-04-08T17:33:20Z</time></trkpt><trkpt lat="44.13156854948198" lon="10.012092089642616"><ele>387.0</ele><time>2026-04-08T17:33:21.999Z</time></trkpt><trkpt lat="44.13156539090181" lon="10.012224145014947"><ele>387.0</ele><time>2026-04-08T17:33:23.999Z</time></trkpt><trkpt lat="44.13153377876723" lon="10.012392661420689"><ele>388.5</ele><time>2026-04-08T17:33:25.999Z</time></trkpt><trkpt lat="44.13153549239307" lon="10.012486445476677"><ele>390.0</ele><time>2026-04-08T17:33:26.999Z</time></trkpt><trkpt lat="44.13154600334426" lon="10.01258900254829"><ele>391.5</ele><time>2026-04-08T17:33:27.999Z</time></trkpt><trkpt lat="44.131559307765215" lon="10.012689799931138"><ele>393.0</ele><time>2026-04-08T17:33:28.999Z</time></trkpt><trkpt lat="44.13157563386574" lon="10.012788010595997"><ele>394.5</ele><time>2026-04-08T17:33:29.999Z</time></trkpt><trkpt lat="44.131565951628254" lon="10.012887249648449"><ele>396.0</ele><time>2026-04-08T17:33:31.999Z</time></trkpt><trkpt lat="44.131655577356625" lon="10.013037812725173"><ele>396.0</ele><time>2026-04-08T17:33:34.999Z</time></trkpt><trkpt lat="44.131729510948674" lon="10.013151930898362"><ele>396.0</ele><time>2026-04-08T17:33:35.999Z</time></trkpt><trkpt lat="44.13181005440959" lon="10.013291439061232"><ele>396.0</ele><time>2026-04-08T17:33:36.999Z</time></trkpt><trkpt lat="44.131892510639084" lon="10.013441653516272"><ele>396.0</ele><time>2026-04-08T17:33:37.999Z</time></trkpt><trkpt lat="44.13197573451267" lon="10.01358892808319"><ele>397.1666666666667</ele><time>2026-04-08T17:33:38.999Z</time></trkpt><trkpt lat="44.13205355952629" lon="10.013727399751819"><ele>398.33333333333337</ele><time>2026-04-08T17:33:39.999Z</time></trkpt><trkpt lat="44.13208875608247" lon="10.013818391733949"><ele>399.5</ele><time>2026-04-08T17:33:40.999Z</time></trkpt><trkpt lat="44.13210645592742" lon="10.01391716639929"><ele>400.6666666666667</ele><time>2026-04-08T17:33:41.999Z</time></trkpt><trkpt lat="44.1321220053843" lon="10.014021874744863"><ele>401.83333333333337</ele><time>2026-04-08T17:33:42.999Z</time></trkpt><trkpt lat="44.132135419885685" lon="10.014123996102592"><ele>403.0</ele><time>2026-04-08T17:33:43.999Z</time></trkpt><trkpt lat="44.13215894773832" lon="10.01428983755066"><ele>403.33333333333337</ele><time>2026-04-08T17:33:45.999Z</time></trkpt><trkpt lat="44.13217197272765" lon="10.01438164855812"><ele>403.66666666666663</ele><time>2026-04-08T17:33:46.999Z</time></trkpt><trkpt lat="44.13221287204605" lon="10.014706231412083"><ele>404.0</ele><time>2026-04-08T17:33:47.999Z</time></trkpt><trkpt lat="44.13234718131157" lon="10.01487320004302"><ele>407.2</ele><time>2026-04-08T17:33:48.999Z</time></trkpt><trkpt lat="44.132416862420726" lon="10.014925681825492"><ele>410.4</ele><time>2026-04-08T17:33:50.999Z</time></trkpt><trkpt lat="44.13247488859409" lon="10.014961126155793"><ele>413.6</ele><time>2026-04-08T17:33:57.999Z</time></trkpt><trkpt lat="44.13246672964853" lon="10.015070629715115"><ele>416.8</ele><time>2026-04-08T17:33:59.999Z</time></trkpt><trkpt lat="44.13248106220218" lon="10.015179825077078"><ele>420.0</ele><time>2026-04-08T17:34:00.999Z</time></trkpt><trkpt lat="44.13261871281057" lon="10.01531539212193"><ele>423.5</ele><time>2026-04-08T17:34:03.999Z</time></trkpt><trkpt lat="44.13302333829471" lon="10.015056454824542"><ele>427.0</ele><time>2026-04-08T17:34:07.999Z</time></trkpt><trkpt lat="44.13310878556805" lon="10.015024684484768"><ele>427.0</ele><time>2026-04-08T17:34:08.999Z</time></trkpt><trkpt lat="44.13316834482361" lon="10.015112155026275"><ele>427.00000000000006</ele><time>2026-04-08T17:34:10.999Z</time></trkpt><trkpt lat="44.13313098683347" lon="10.015242666128515"><ele>427.00000000000006</ele><time>2026-04-08T17:34:12.999Z</time></trkpt><trkpt lat="44.133061983175075" lon="10.015318259216356"><ele>427.0</ele><time>2026-04-08T17:34:13.999Z</time></trkpt><trkpt lat="44.13298290024039" lon="10.015420928538237"><ele>427.0</ele><time>2026-04-08T17:34:14.999Z</time></trkpt><trkpt lat="44.132902378444086" lon="10.015540801915137"><ele>427.0</ele><time>2026-04-08T17:34:15.999Z</time></trkpt><trkpt lat="44.132816799317304" lon="10.015670372540344"><ele>427.0</ele><time>2026-04-08T17:34:16.999Z</time></trkpt><trkpt lat="44.132731048588205" lon="10.015808603643174"><ele>427.0</ele><time>2026-04-08T17:34:17.999Z</time></trkpt><trkpt lat="44.132639123151925" lon="10.015938011042708"><ele>427.0</ele><time>2026-04-08T17:34:18.999Z</time></trkpt><trkpt lat="44.13255114810527" lon="10.016077186434055"><ele>425.5</ele><time>2026-04-08T17:34:19.999Z</time></trkpt><trkpt lat="44.13245888874978" lon="10.016226415993646"><ele>424.0</ele><time>2026-04-08T17:34:20.999Z</time></trkpt><trkpt lat="44.1323588712482" lon="10.016382123016909"><ele>422.5</ele><time>2026-04-08T17:34:21.999Z</time></trkpt><trkpt lat="44.13226049283011" lon="10.016546561301421"><ele>421.0</ele><time>2026-04-08T17:34:22.999Z</time></trkpt><trkpt lat="44.13215665779883" lon="10.016706162533238"><ele>426.25</ele><time>2026-04-08T17:34:23.999Z</time></trkpt><trkpt lat="44.13205386257592" lon="10.01686839651824"><ele>431.5</ele><time>2026-04-08T17:34:24.999Z</time></trkpt><trkpt lat="44.13196181312209" lon="10.017006692995214"><ele>436.75</ele><time>2026-04-08T17:34:25.999Z</time></trkpt><trkpt lat="44.13189511290151" lon="10.0171334079651"><ele>442.0</ele><time>2026-04-08T17:34:26.999Z</time></trkpt><trkpt lat="44.13183185197278" lon="10.0172188149325"><ele>442.0</ele><time>2026-04-08T17:34:27.999Z</time></trkpt><trkpt lat="44.13175353503838" lon="10.017241053296368"><ele>442.00000000000006</ele><time>2026-04-08T17:34:28.999Z</time></trkpt><trkpt lat="44.131661341209266" lon="10.017230881868953"><ele>442.00000000000006</ele><time>2026-04-08T17:34:29.999Z</time></trkpt><trkpt lat="44.13155021499671" lon="10.017214515203605"><ele>442.0</ele><time>2026-04-08T17:34:30.999Z</time></trkpt><trkpt lat="44.13142691852991" lon="10.017199213019902"><ele>442.0</ele><time>2026-04-08T17:34:31.999Z</time></trkpt><trkpt lat="44.13131331768364" lon="10.017171531938628"><ele>440.6</ele><time>2026-04-08T17:34:32.999Z</time></trkpt><trkpt lat="44.13123222802657" lon="10.017145846545606"><ele>439.20000000000005</ele><time>2026-04-08T17:34:33.999Z</time></trkpt><trkpt lat="44.1311388633855" lon="10.01720140735791"><ele>437.8</ele><time>2026-04-08T17:34:36Z</time></trkpt><trkpt lat="44.13117868490915" lon="10.017319316743496"><ele>436.4</ele><time>2026-04-08T17:34:38Z</time></trkpt><trkpt lat="44.13125048000833" lon="10.017348064336575"><ele>435.0</ele><time>2026-04-08T17:34:39Z</time></trkpt><trkpt lat="44.13135008829431" lon="10.017368472945552"><ele>435.0</ele><time>2026-04-08T17:34:40Z</time></trkpt><trkpt lat="44.13145931005446" lon="10.017404592517288"><ele>435.0</ele><time>2026-04-08T17:34:41Z</time></trkpt><trkpt lat="44.131578583922135" lon="10.017448428849848"><ele>435.0</ele><time>2026-04-08T17:34:42Z</time></trkpt><trkpt lat="44.131691079034844" lon="10.01751319919222"><ele>435.0</ele><time>2026-04-08T17:34:43Z</time></trkpt><trkpt lat="44.13179046819202" lon="10.017602605948715"><ele>440.75</ele><time>2026-04-08T17:34:44Z</time></trkpt><trkpt lat="44.13187219554281" lon="10.017734514307291"><ele>446.5</ele><time>2026-04-08T17:34:45Z</time></trkpt><trkpt lat="44.13197268232137" lon="10.01785121187069"><ele>452.25</ele><time>2026-04-08T17:34:46Z</time></trkpt><trkpt lat="44.13208203013385" lon="10.0179837054374"><ele>458.0</ele><time>2026-04-08T17:34:47Z</time></trkpt><trkpt lat="44.13217784536589" lon="10.018105706317206"><ele>458.0</ele><time>2026-04-08T17:34:48Z</time></trkpt><trkpt lat="44.13225702670172" lon="10.01819876866974"><ele>457.99999999999994</ele><time>2026-04-08T17:34:49Z</time></trkpt><trkpt lat="44.13234714102484" lon="10.018244833020052"><ele>457.99999999999994</ele><time>2026-04-08T17:34:50Z</time></trkpt><trkpt lat="44.13244824082376" lon="10.018237216225039"><ele>458.0</ele><time>2026-04-08T17:34:51Z</time></trkpt><trkpt lat="44.132550798556125" lon="10.018151365500273"><ele>458.0</ele><time>2026-04-08T17:34:52Z</time></trkpt><trkpt lat="44.13265043654176" lon="10.018054338326996"><ele>457.5</ele><time>2026-04-08T17:34:53Z</time></trkpt><trkpt lat="44.132734277206396" lon="10.017918122567274"><ele>457.0</ele><time>2026-04-08T17:34:54Z</time></trkpt><trkpt lat="44.13280598958185" lon="10.017754199305966"><ele>456.5</ele><time>2026-04-08T17:34:55Z</time></trkpt><trkpt lat="44.13287109613352" lon="10.017579144188375"><ele>456.0</ele><time>2026-04-08T17:34:56Z</time></trkpt><trkpt lat="44.132946377429846" lon="10.01739654492945"><ele>456.0</ele><time>2026-04-08T17:34:57Z</time></trkpt><trkpt lat="44.13302891130259" lon="10.0172159448229"><ele>456.0</ele><time>2026-04-08T17:34:58Z</time></trkpt><trkpt lat="44.13312437788413" lon="10.017049554984983"><ele>456.0</ele><time>2026-04-08T17:34:59Z</time></trkpt><trkpt lat="44.13319090042276" lon="10.016910414131662"><ele>456.0</ele><time>2026-04-08T17:35:00Z</time></trkpt><trkpt lat="44.133259620349556" lon="10.016804129681168"><ele>454.6</ele><time>2026-04-08T17:35:01Z</time></trkpt><trkpt lat="44.13334065115043" lon="10.0167084987607"><ele>453.20000000000005</ele><time>2026-04-08T17:35:02Z</time></trkpt><trkpt lat="44.13345622110317" lon="10.016650585042049"><ele>451.79999999999995</ele><time>2026-04-08T17:35:03Z</time></trkpt><trkpt lat="44.13357715667796" lon="10.016614951891135"><ele>450.4</ele><time>2026-04-08T17:35:04Z</time></trkpt><trkpt lat="44.133671086023895" lon="10.016610037246407"><ele>449.0</ele><time>2026-04-08T17:35:05Z</time></trkpt><trkpt lat="44.13373320592972" lon="10.01664914700043"><ele>454.0</ele><time>2026-04-08T17:35:06Z</time></trkpt><trkpt lat="44.13376733425721" lon="10.016731660922227"><ele>459.0</ele><time>2026-04-08T17:35:07Z</time></trkpt><trkpt lat="44.133783636955464" lon="10.016861212302166"><ele>464.0</ele><time>2026-04-08T17:35:08Z</time></trkpt><trkpt lat="44.133801126788256" lon="10.017013657449024"><ele>469.0</ele><time>2026-04-08T17:35:09Z</time></trkpt><trkpt lat="44.13382037657774" lon="10.017181873787571"><ele>474.0</ele><time>2026-04-08T17:35:10Z</time></trkpt><trkpt lat="44.13384163285297" lon="10.017370135561725"><ele>475.25</ele><time>2026-04-08T17:35:11Z</time></trkpt><trkpt lat="44.13388229650014" lon="10.017563670350002"><ele>476.5</ele><time>2026-04-08T17:35:12Z</time></trkpt><trkpt lat="44.133935871673195" lon="10.017746148316393"><ele>477.75</ele><time>2026-04-08T17:35:13Z</time></trkpt><trkpt lat="44.13400114852665" lon="10.017909703098603"><ele>479.0</ele><time>2026-04-08T17:35:14Z</time></trkpt><trkpt lat="44.13406518999344" lon="10.018064763608013"><ele>479.0</ele><time>2026-04-08T17:35:15Z</time></trkpt><trkpt lat="44.134136667778264" lon="10.018206348523362"><ele>479.0</ele><time>2026-04-08T17:35:16Z</time></trkpt><trkpt lat="44.13421015021212" lon="10.018335041093946"><ele>479.0</ele><time>2026-04-08T17:35:17Z</time></trkpt><trkpt lat="44.1342972061501" lon="10.018437665207703"><ele>479.0</ele><time>2026-04-08T17:35:18Z</time></trkpt><trkpt lat="44.13439737323628" lon="10.018523063147915"><ele>483.0</ele><time>2026-04-08T17:35:19Z</time></trkpt><trkpt lat="44.13449103113824" lon="10.01860501727374"><ele>487.0</ele><time>2026-04-08T17:35:20Z</time></trkpt><trkpt lat="44.13457352543994" lon="10.018670365798119"><ele>491.0</ele><time>2026-04-08T17:35:21Z</time></trkpt><trkpt lat="44.134677680514315" lon="10.018756582495149"><ele>495.0</ele><time>2026-04-08T17:36:08.999Z</time></trkpt><trkpt lat="44.13475627828553" lon="10.018818309542992"><ele>499.0</ele><time>2026-04-08T17:36:09.999Z</time></trkpt><trkpt lat="44.13484890522187" lon="10.018899467840393"><ele>499.0</ele><time>2026-04-08T17:36:10.999Z</time></trkpt><trkpt lat="44.13492276803761" lon="10.018984754816838"><ele>499.0</ele><time>2026-04-08T17:36:11.999Z</time></trkpt><trkpt lat="44.134969647559934" lon="10.019068486170678"><ele>499.0</ele><time>2026-04-08T17:36:12.999Z</time></trkpt><trkpt lat="44.134981200949845" lon="10.019202602647818"><ele>499.0</ele><time>2026-04-08T17:36:13.999Z</time></trkpt><trkpt lat="44.135023792252326" lon="10.019336881123607"><ele>499.0</ele><time>2026-04-08T17:36:14.999Z</time></trkpt><trkpt lat="44.135102634869384" lon="10.01944687060639"><ele>499.0</ele><time>2026-04-08T17:36:15.999Z</time></trkpt><trkpt lat="44.135202088126626" lon="10.019549332768907"><ele>499.0</ele><time>2026-04-08T17:36:16.999Z</time></trkpt><trkpt lat="44.13529400375256" lon="10.019652850881087"><ele>499.0</ele><time>2026-04-08T17:36:17.999Z</time></trkpt><trkpt lat="44.13538557439555" lon="10.019788086344075"><ele>499.0</ele><time>2026-04-08T17:36:18.999Z</time></trkpt><trkpt lat="44.13546865031701" lon="10.019916175199208"><ele>499.2</ele><time>2026-04-08T17:36:19.999Z</time></trkpt><trkpt lat="44.13553866072084" lon="10.020036729771833"><ele>499.4</ele><time>2026-04-08T17:36:20.999Z</time></trkpt><trkpt lat="44.13560129145062" lon="10.020130765772924"><ele>499.6</ele><time>2026-04-08T17:36:21.999Z</time></trkpt><trkpt lat="44.13567798389149" lon="10.020202409999179"><ele>499.8</ele><time>2026-04-08T17:36:22.999Z</time></trkpt><trkpt lat="44.135798553118754" lon="10.02018759411378"><ele>500.0</ele><time>2026-04-08T17:36:23.999Z</time></trkpt><trkpt lat="44.135922672106716" lon="10.020197903179412"><ele>500.0</ele><time>2026-04-08T17:36:24.999Z</time></trkpt><trkpt lat="44.13601077584915" lon="10.020225413317448"><ele>500.0</ele><time>2026-04-08T17:36:25.999Z</time></trkpt><trkpt lat="44.13608027730234" lon="10.020308744591459"><ele>500.0</ele><time>2026-04-08T17:36:26.999Z</time></trkpt><trkpt lat="44.136130169938475" lon="10.020433258552984"><ele>500.0</ele><time>2026-04-08T17:36:27.999Z</time></trkpt><trkpt lat="44.13617627739559" lon="10.020590224968398"><ele>500.0</ele><time>2026-04-08T17:36:28.999Z</time></trkpt><trkpt lat="44.136223068833985" lon="10.020765553760008"><ele>504.0</ele><time>2026-04-08T17:36:29.999Z</time></trkpt><trkpt lat="44.13625472811306" lon="10.020951894603524"><ele>508.0</ele><time>2026-04-08T17:36:30.999Z</time></trkpt><trkpt lat="44.13627082132439" lon="10.02116269151961"><ele>512.0</ele><time>2026-04-08T17:36:31.999Z</time></trkpt><trkpt lat="44.13627105483391" lon="10.021371323513716"><ele>516.0</ele><time>2026-04-08T17:36:32.999Z</time></trkpt><trkpt lat="44.13625578955803" lon="10.021546567087231"><ele>514.2</ele><time>2026-04-08T17:36:33.999Z</time></trkpt><trkpt lat="44.13625711060779" lon="10.021685584844155"><ele>512.4000000000001</ele><time>2026-04-08T17:36:34.999Z</time></trkpt><trkpt lat="44.136289240593484" lon="10.02181029289999"><ele>510.6</ele><time>2026-04-08T17:36:35.999Z</time></trkpt><trkpt lat="44.136359473860274" lon="10.02193090425413"><ele>508.8</ele><time>2026-04-08T17:36:36.999Z</time></trkpt><trkpt lat="44.136449381365594" lon="10.022048827237942"><ele>507.0</ele><time>2026-04-08T17:36:37.999Z</time></trkpt><trkpt lat="44.13655925030347" lon="10.022178563218203"><ele>502.75</ele><time>2026-04-08T17:36:38.999Z</time></trkpt><trkpt lat="44.136669572958766" lon="10.022315221576049"><ele>498.5</ele><time>2026-04-08T17:36:39.999Z</time></trkpt><trkpt lat="44.136784385099034" lon="10.02244895478036"><ele>494.25</ele><time>2026-04-08T17:36:40.999Z</time></trkpt><trkpt lat="44.13688501332425" lon="10.02259923480205"><ele>490.0</ele><time>2026-04-08T17:36:42Z</time></trkpt><trkpt lat="44.13698672761111" lon="10.022733150872993"><ele>489.8</ele><time>2026-04-08T17:36:43Z</time></trkpt><trkpt lat="44.13707869522718" lon="10.02284007922186"><ele>489.6</ele><time>2026-04-08T17:36:44Z</time></trkpt><trkpt lat="44.13715219937877" lon="10.022920002966131"><ele>489.4</ele><time>2026-04-08T17:36:45Z</time></trkpt><trkpt lat="44.13715417919266" lon="10.023033785733144"><ele>489.2</ele><time>2026-04-08T17:36:46Z</time></trkpt><trkpt lat="44.13728089159271" lon="10.022960150898594"><ele>489.0</ele><time>2026-04-08T17:36:47Z</time></trkpt><trkpt lat="44.13734796512332" lon="10.022925319704076"><ele>490.0</ele><time>2026-04-08T17:36:48Z</time></trkpt><trkpt lat="44.137422849187516" lon="10.022875067730395"><ele>491.0</ele><time>2026-04-08T17:36:49Z</time></trkpt><trkpt lat="44.13753372981441" lon="10.022806102307404"><ele>492.0</ele><time>2026-04-08T17:36:50Z</time></trkpt><trkpt lat="44.13765974810493" lon="10.022723554635975"><ele>493.0</ele><time>2026-04-08T17:36:51Z</time></trkpt><trkpt lat="44.137801333851336" lon="10.022648945047022"><ele>493.0</ele><time>2026-04-08T17:36:52Z</time></trkpt><trkpt lat="44.137927917883154" lon="10.02254128713399"><ele>493.0</ele><time>2026-04-08T17:36:53Z</time></trkpt><trkpt lat="44.138047909468526" lon="10.022466807137858"><ele>493.0</ele><time>2026-04-08T17:36:54Z</time></trkpt><trkpt lat="44.13815463362617" lon="10.022411756647601"><ele>493.0</ele><time>2026-04-08T17:36:55Z</time></trkpt><trkpt lat="44.13824326986867" lon="10.022352599629475"><ele>490.5</ele><time>2026-04-08T17:36:56Z</time></trkpt><trkpt lat="44.13832230070377" lon="10.022276693243521"><ele>488.0</ele><time>2026-04-08T17:36:57Z</time></trkpt><trkpt lat="44.13837963992784" lon="10.022172614981228"><ele>485.5</ele><time>2026-04-08T17:36:58Z</time></trkpt><trkpt lat="44.13842618945082" lon="10.021933131785538"><ele>483.0</ele><time>2026-04-08T17:36:59Z</time></trkpt><trkpt lat="44.13844069807906" lon="10.021739042695907"><ele>480.75</ele><time>2026-04-08T17:37:00Z</time></trkpt><trkpt lat="44.13843962876091" lon="10.021531940924438"><ele>478.5</ele><time>2026-04-08T17:37:01Z</time></trkpt><trkpt lat="44.13844934863815" lon="10.021322242480425"><ele>476.25</ele><time>2026-04-08T17:37:02Z</time></trkpt><trkpt lat="44.13846515161842" lon="10.021145493899274"><ele>474.0</ele><time>2026-04-08T17:37:03Z</time></trkpt><trkpt lat="44.13849753121507" lon="10.020994549128897"><ele>474.0</ele><time>2026-04-08T17:37:04Z</time></trkpt><trkpt lat="44.13856628037002" lon="10.020871409944666"><ele>474.0</ele><time>2026-04-08T17:37:05Z</time></trkpt><trkpt lat="44.13865253465343" lon="10.02075244148717"><ele>474.0</ele><time>2026-04-08T17:37:06Z</time></trkpt><trkpt lat="44.13874959320514" lon="10.020632042125811"><ele>474.0</ele><time>2026-04-08T17:37:07Z</time></trkpt><trkpt lat="44.138845942434116" lon="10.020496139555426"><ele>473.75</ele><time>2026-04-08T17:37:08Z</time></trkpt><trkpt lat="44.138956619732525" lon="10.020374389744973"><ele>473.5</ele><time>2026-04-08T17:37:09Z</time></trkpt><trkpt lat="44.13906808553751" lon="10.020246403644194"><ele>473.25</ele><time>2026-04-08T17:37:10Z</time></trkpt><trkpt lat="44.13917406467981" lon="10.020115845355196"><ele>473.0</ele><time>2026-04-08T17:37:11Z</time></trkpt><trkpt lat="44.1392858411529" lon="10.020023007947334"><ele>468.0</ele><time>2026-04-08T17:37:12Z</time></trkpt><trkpt lat="44.139392738541765" lon="10.019950246576661"><ele>463.0</ele><time>2026-04-08T17:37:13Z</time></trkpt><trkpt lat="44.13951568808668" lon="10.01989845077254"><ele>458.0</ele><time>2026-04-08T17:37:14Z</time></trkpt><trkpt lat="44.13965663000808" lon="10.019869487973608"><ele>453.0</ele><time>2026-04-08T17:37:15Z</time></trkpt><trkpt lat="44.13980433556635" lon="10.01983758233223"><ele>454.5</ele><time>2026-04-08T17:37:16Z</time></trkpt><trkpt lat="44.139944694829886" lon="10.019784212045407"><ele>456.0</ele><time>2026-04-08T17:37:17Z</time></trkpt><trkpt lat="44.14006216085543" lon="10.01968688452461"><ele>457.5</ele><time>2026-04-08T17:37:18Z</time></trkpt><trkpt lat="44.14017885952985" lon="10.019601568642175"><ele>459.0</ele><time>2026-04-08T17:37:19Z</time></trkpt><trkpt lat="44.140285472223624" lon="10.019538481500495"><ele>459.0</ele><time>2026-04-08T17:37:20Z</time></trkpt><trkpt lat="44.140355135345686" lon="10.019465232562148"><ele>459.0</ele><time>2026-04-08T17:37:21Z</time></trkpt><trkpt lat="44.14040582727925" lon="10.019327982772511"><ele>459.0</ele><time>2026-04-08T17:37:22Z</time></trkpt><trkpt lat="44.14040416175014" lon="10.019170059046079"><ele>459.0</ele><time>2026-04-08T17:37:23Z</time></trkpt><trkpt lat="44.14040577160681" lon="10.019003905684425"><ele>459.0</ele><time>2026-04-08T17:37:24Z</time></trkpt><trkpt lat="44.14045692426307" lon="10.018855939925903"><ele>456.75</ele><time>2026-04-08T17:37:25Z</time></trkpt><trkpt lat="44.14052743456298" lon="10.018736473739875"><ele>454.5</ele><time>2026-04-08T17:37:26Z</time></trkpt><trkpt lat="44.14058989501798" lon="10.018594965530687"><ele>452.25</ele><time>2026-04-08T17:37:27Z</time></trkpt><trkpt lat="44.14062951181351" lon="10.01844010728733"><ele>450.0</ele><time>2026-04-08T17:37:28Z</time></trkpt><trkpt lat="44.14065791078827" lon="10.018269518842816"><ele>449.75</ele><time>2026-04-08T17:37:29Z</time></trkpt><trkpt lat="44.14062835005216" lon="10.018096809349895"><ele>449.5</ele><time>2026-04-08T17:37:30Z</time></trkpt><trkpt lat="44.14056303614442" lon="10.017935330202157"><ele>449.25</ele><time>2026-04-08T17:37:30.999Z</time></trkpt><trkpt lat="44.14046198408304" lon="10.017797909137974"><ele>449.0</ele><time>2026-04-08T17:37:31.999Z</time></trkpt><trkpt lat="44.14036571087978" lon="10.017650079226769"><ele>449.0</ele><time>2026-04-08T17:37:32.999Z</time></trkpt><trkpt lat="44.14028378705502" lon="10.017513910333442"><ele>449.0</ele><time>2026-04-08T17:37:33.999Z</time></trkpt><trkpt lat="44.140223451228145" lon="10.017380614914035"><ele>449.0</ele><time>2026-04-08T17:37:34.999Z</time></trkpt><trkpt lat="44.14019381911335" lon="10.017243257231424"><ele>449.0</ele><time>2026-04-08T17:37:35.999Z</time></trkpt><trkpt lat="44.14018511038715" lon="10.017105101164512"><ele>449.0</ele><time>2026-04-08T17:37:36.999Z</time></trkpt><trkpt lat="44.14018590955192" lon="10.016961635488926"><ele>448.0</ele><time>2026-04-08T17:37:37.999Z</time></trkpt><trkpt lat="44.14023630967203" lon="10.016847218553304"><ele>447.0</ele><time>2026-04-08T17:37:38.999Z</time></trkpt><trkpt lat="44.14030221728669" lon="10.01673892329544"><ele>446.0</ele><time>2026-04-08T17:37:39.999Z</time></trkpt><trkpt lat="44.140367143635416" lon="10.016610006953103"><ele>445.0</ele><time>2026-04-08T17:37:40.999Z</time></trkpt><trkpt lat="44.14042252627783" lon="10.016492591845761"><ele>444.0</ele><time>2026-04-08T17:37:41.999Z</time></trkpt><trkpt lat="44.14045256083168" lon="10.01634319142323"><ele>443.0</ele><time>2026-04-08T17:37:42.999Z</time></trkpt><trkpt lat="44.14044827424425" lon="10.016184009124824"><ele>442.0</ele><time>2026-04-08T17:37:43.999Z</time></trkpt><trkpt lat="44.140446647502166" lon="10.016015224565257"><ele>441.0</ele><time>2026-04-08T17:37:44.999Z</time></trkpt><trkpt lat="44.14041234589301" lon="10.015847747173103"><ele>440.0</ele><time>2026-04-08T17:37:45.999Z</time></trkpt><trkpt lat="44.14036016013677" lon="10.015690467776817"><ele>438.2</ele><time>2026-04-08T17:37:46.999Z</time></trkpt><trkpt lat="44.14034114873947" lon="10.015549973010733"><ele>436.4</ele><time>2026-04-08T17:37:47.999Z</time></trkpt><trkpt lat="44.14034830902138" lon="10.015405171397198"><ele>434.6</ele><time>2026-04-08T17:37:48.999Z</time></trkpt><trkpt lat="44.14040591041952" lon="10.015266163987045"><ele>432.8</ele><time>2026-04-08T17:37:49.999Z</time></trkpt><trkpt lat="44.14046614710368" lon="10.01511147795589"><ele>431.0</ele><time>2026-04-08T17:37:50.999Z</time></trkpt><trkpt lat="44.140529533270175" lon="10.014947852251389"><ele>431.25</ele><time>2026-04-08T17:37:51.999Z</time></trkpt><trkpt lat="44.140591159646185" lon="10.014763133029446"><ele>431.5</ele><time>2026-04-08T17:37:52.999Z</time></trkpt><trkpt lat="44.14066409178805" lon="10.01459360693689"><ele>431.75</ele><time>2026-04-08T17:37:53.999Z</time></trkpt><trkpt lat="44.140733278346815" lon="10.0144392399404"><ele>432.0</ele><time>2026-04-08T17:37:54.999Z</time></trkpt><trkpt lat="44.140790878046296" lon="10.014285454027702"><ele>429.5</ele><time>2026-04-08T17:37:55.999Z</time></trkpt><trkpt lat="44.14083510734567" lon="10.01413020508518"><ele>427.0</ele><time>2026-04-08T17:37:56.999Z</time></trkpt><trkpt lat="44.14085678257976" lon="10.013964843766136"><ele>424.5</ele><time>2026-04-08T17:37:57.999Z</time></trkpt><trkpt lat="44.14086334915383" lon="10.013790269002294"><ele>422.0</ele><time>2026-04-08T17:37:58.999Z</time></trkpt><trkpt lat="44.14087157354827" lon="10.013609678154312"><ele>422.0</ele><time>2026-04-08T17:37:59.999Z</time></trkpt><trkpt lat="44.140878368602884" lon="10.013429221793984"><ele>422.0</ele><time>2026-04-08T17:38:00.999Z</time></trkpt><trkpt lat="44.14088980980336" lon="10.013258824819191"><ele>422.0</ele><time>2026-04-08T17:38:01.999Z</time></trkpt><trkpt lat="44.14091133211207" lon="10.013093002527715"><ele>422.0</ele><time>2026-04-08T17:38:02.999Z</time></trkpt><trkpt lat="44.14093893838262" lon="10.012921914199957"><ele>419.5</ele><time>2026-04-08T17:38:03.999Z</time></trkpt><trkpt lat="44.14098316629385" lon="10.012740893169216"><ele>417.0</ele><time>2026-04-08T17:38:04.999Z</time></trkpt><trkpt lat="44.1410275810971" lon="10.012540852940292"><ele>414.5</ele><time>2026-04-08T17:38:05.999Z</time></trkpt><trkpt lat="44.14106180953857" lon="10.01235374607318"><ele>412.0</ele><time>2026-04-08T17:38:06.999Z</time></trkpt><trkpt lat="44.14108296701067" lon="10.012184371324988"><ele>410.75</ele><time>2026-04-08T17:38:07.999Z</time></trkpt><trkpt lat="44.14110006430717" lon="10.012014184583078"><ele>409.5</ele><time>2026-04-08T17:38:08.999Z</time></trkpt><trkpt lat="44.14105811379995" lon="10.011836007308794"><ele>408.25</ele><time>2026-04-08T17:38:09.999Z</time></trkpt><trkpt lat="44.1410236071608" lon="10.011637321673502"><ele>407.0</ele><time>2026-04-08T17:38:10.999Z</time></trkpt><trkpt lat="44.14097870784423" lon="10.011412690811833"><ele>406.66666666666663</ele><time>2026-04-08T17:38:11.999Z</time></trkpt><trkpt lat="44.140930191363466" lon="10.011188337639693"><ele>406.33333333333337</ele><time>2026-04-08T17:38:12.999Z</time></trkpt><trkpt lat="44.14088403414367" lon="10.010985238538213"><ele>406.0</ele><time>2026-04-08T17:38:13.999Z</time></trkpt><trkpt lat="44.14083011869559" lon="10.01079398135532"><ele>406.75</ele><time>2026-04-08T17:38:14.999Z</time></trkpt><trkpt lat="44.14075690149187" lon="10.010635172869835"><ele>407.5</ele><time>2026-04-08T17:38:15.999Z</time></trkpt><trkpt lat="44.14065925274444" lon="10.010492057178018"><ele>408.25</ele><time>2026-04-08T17:38:16.999Z</time></trkpt><trkpt lat="44.14055493443106" lon="10.01037001469496"><ele>409.0</ele><time>2026-04-08T17:38:17.999Z</time></trkpt><trkpt lat="44.14045850362767" lon="10.010226369892843"><ele>405.5</ele><time>2026-04-08T17:38:18.999Z</time></trkpt><trkpt lat="44.14037749067409" lon="10.01006661851725"><ele>402.0</ele><time>2026-04-08T17:38:19.999Z</time></trkpt><trkpt lat="44.14031567287164" lon="10.009918748413513"><ele>398.5</ele><time>2026-04-08T17:38:20.999Z</time></trkpt><trkpt lat="44.14027190490198" lon="10.009767043030749"><ele>395.0</ele><time>2026-04-08T17:38:21.999Z</time></trkpt><trkpt lat="44.14024828395299" lon="10.009623452463819"><ele>394.99999999999994</ele><time>2026-04-08T17:38:22.999Z</time></trkpt><trkpt lat="44.14021582998893" lon="10.009510951860111"><ele>395.0</ele><time>2026-04-08T17:38:23.999Z</time></trkpt><trkpt lat="44.14015597123625" lon="10.009416346157623"><ele>395.0</ele><time>2026-04-08T17:38:24.999Z</time></trkpt><trkpt lat="44.14008020384779" lon="10.009340429844084"><ele>395.0</ele><time>2026-04-08T17:38:25.999Z</time></trkpt><trkpt lat="44.14000844997989" lon="10.00926885252062"><ele>394.99999999999994</ele><time>2026-04-08T17:38:26.999Z</time></trkpt><trkpt lat="44.13995447795051" lon="10.009217286083928"><ele>395.0</ele><time>2026-04-08T17:38:27.999Z</time></trkpt><trkpt lat="44.13988783049635" lon="10.009154270391544"><ele>406.0</ele><time>2026-04-08T17:38:29.999Z</time></trkpt><trkpt lat="44.13982568706789" lon="10.009089993235945"><ele>386.0</ele><time>2026-04-08T17:38:38.999Z</time></trkpt><trkpt lat="44.13977087972764" lon="10.009023618863516"><ele>386.0</ele><time>2026-04-08T17:38:40.999Z</time></trkpt><trkpt lat="44.13982267500527" lon="10.009084449902717"><ele>386.0</ele><time>2026-04-08T17:40:38.999Z</time></trkpt><trkpt lat="44.13988307736997" lon="10.009148770459323"><ele>386.0</ele><time>2026-04-08T17:40:53Z</time></trkpt></trkseg></trk></gpx>